[[{"header":{"parameterUnit":"m.s-1","parameterCategory":1,"la1":31.0,"la2":29.5877,"lo1":-88.7671,"lo2":-86.6584,"dy":0.0162,"dx":0.0185,"nx":115,"ny":88,"refTime":"2026-03-13T12:00:00:Z","depth":0,"parameterNumber":2,"parameterNumberName":"U-component_of_WINDS"},"data":[0.0,0.0,0.0,0.0,0.0,0.0,0.0,0.0,0.0,0.0,0.0,0.0,0.0,0.0,0.0,0.0,0.0,0.0,0.0,0.0,0.0,0.0,0.0,0.0,0.0,0.0,0.0,0.0,0.0,0.0,0.0,0.0,0.0,0.0,0.0,0.0,0.0,0.0,0.0,0.0,0.0,0.0,0.0,0.0,0.0,0.0,0.0,0.0,0.0,0.0,0.0,0.0,0.0,0.0,0.0,0.0,0.0,0.0,0.0,0.0,0.0,0.0,0.0,0.0,0.0,0.0,0.0,0.0,0.0,0.0,0.0,0.0,0.0,0.0,0.0,0.0,0.0,0.0,0.0,0.0,0.0,0.0,0.0,0.0,0.0,0.0,0.0,0.0,0.0,0.0,0.0,0.0,0.0,0.0,0.0,0.0,0.0,0.0,0.0,0.0,0.0,0.0,0.0,0.0,0.0,0.0,0.0,0.0,0.0,0.0,0.0,0.0,0.0,0.0,0.0,0.0,0.0,0.0,0.0,0.0,0.0,0.0,0.0,0.0,0.0,0.0,0.0,0.0,0.0,0.0,0.0,0.0,0.0,0.0,0.0,0.0,0.0,0.0,0.0,0.0,0.0,0.0,0.0,0.0,0.0,0.0,0.0,0.0,0.0,0.0,0.0,0.0,0.0,0.0,0.0,0.0,0.0,0.0,0.0,0.0,0.0,0.0,0.0,0.0,0.0,0.0,0.0,0.0,0.0,0.0,0.0,0.0,0.0,0.0,0.0,0.0,0.0,0.0,0.0,0.0,0.0,0.0,0.0,0.0,0.0,0.0,0.0,0.0,0.0,0.0,0.0,0.0,0.0,0.0,0.0,0.0,0.0,0.0,0.0,0.0,0.0,0.0,0.0,0.0,0.0,0.0,0.0,0.0,0.0,0.0,0.0,0.0,0.0,0.0,0.0,0.0,0.0,0.0,0.0,0.0,0.0,0.0,0.0,0.0,0.0,0.0,0.0,0.0,0.0,0.0,0.0,0.0,0.0,0.0,0.0,0.0,0.0,0.0,0.0,0.0,0.0,0.0,0.0,0.0,0.0,0.0,0.0,0.0,0.0,0.0,0.0,0.0,0.0,0.0,0.0,0.0,0.0,0.0,0.0,0.0,0.0,0.0,0.0,0.0,0.0,0.0,0.0,0.0,0.0,0.0,0.0,0.0,0.0,0.0,0.0,0.0,0.0,0.0,0.0,0.0,0.0,0.0,0.0,0.0,0.0,0.0,0.0,0.0,0.0,0.0,0.0,0.0,0.0,0.0,0.0,0.0,0.0,0.0,0.0,0.0,0.0,0.0,0.0,0.0,0.0,0.0,0.0,0.0,0.0,0.0,0.0,0.0,0.0,0.0,0.0,0.0,0.0,0.0,0.0,0.0,0.0,0.0,0.0,0.0,0.0,0.0,0.0,0.0,0.0,0.0,0.0,0.0,0.0,0.0,0.0,0.0,0.0,0.0,0.0,0.0,0.0,0.0,0.0,0.0,0.0,0.0,0.0,0.0,0.0,0.0,0.0,0.0,0.0,0.0,0.0,0.0,0.0,0.0,0.0,0.0,0.0,0.0,0.0,0.0,0.0,0.0,0.0,0.0,0.0,0.0,0.0,0.0,0.0,0.0,0.0,0.0,0.0,0.0,0.0,0.0,0.0,0.0,0.0,0.0,0.0,0.0,0.0,0.0,0.0,0.0,0.0,0.0,0.0,0.0,0.0,0.0,0.0,0.0,0.0,0.0,0.0,0.0,0.0,0.0,0.0,0.0,0.0,0.0,0.0,0.0,0.0,0.0,0.0,0.0,0.0,0.0,0.0,0.0,0.0,0.0,0.0,0.0,0.0,0.0,0.0,0.0,0.0,0.0,0.0,0.0,0.0,0.0,0.0,0.0,0.0,0.0,0.0,0.0,0.0,0.0,0.0,0.0,0.0,0.0,0.0,0.0,0.0,0.0,0.0,0.0,0.0,0.0,0.0,0.0,0.0,0.0,0.0,0.0,0.0,0.0,0.0,0.0,0.0,0.0,0.0,0.0,0.0,0.0,0.0,0.0,0.0,0.0,0.0,0.0,0.0,0.0,0.0,0.0,0.0,0.0,0.0,0.0,0.0,0.0,0.0,0.0,0.0,0.0,0.0,0.0,0.0,0.0,0.0,0.0,0.0,0.0,0.0,0.0,0.0,0.0,0.0,0.0,0.0,0.0,0.0,0.0,0.0,0.0,0.0,0.0,0.0,0.0,0.0,0.0,0.0,0.0,0.0,0.0,0.0,0.0,0.0,0.0,0.0,0.0,0.0,0.0,0.0,0.0,0.0,0.0,0.0,0.0,0.0,0.0,0.0,0.0,0.0,0.0,0.0,0.0,0.0,0.0,0.0,0.0,0.0,0.0,0.0,0.0,0.0,0.0,0.0,0.0,0.0,0.0,0.0,0.0,0.0,0.0,0.0,0.0,0.0,0.0,0.0,0.0,0.0,0.0,0.0,0.0,0.0,0.0,0.0,0.0,0.0,0.0,0.0,0.0,0.0,0.0,0.0,0.0,0.0,0.0,0.0,0.0,0.0,0.0,0.0,0.0,0.0,0.0,0.0,0.0,0.0,0.0,0.0,0.0,0.0,0.0,0.0,0.0,0.0,0.0,0.0,0.0,0.0,0.0,0.0,0.0,0.0,0.0,0.0,0.0,0.0,0.0,0.0,0.0,0.0,0.0,0.0,0.0,0.0,0.0,0.0,0.0,0.0,0.0,0.0,0.0,0.0,0.0,0.0,0.0,0.0,0.0,0.0,0.0,0.0,0.0,0.0,0.0,0.0,0.0,0.0,0.0,0.0,0.0,0.0,0.0,0.0,0.0,0.0,0.0,0.0,0.0,0.0,0.0,0.0,0.0,0.0,0.0,0.0,0.0,0.0,0.0,0.0,0.0,0.0,0.0,0.0,0.0,0.0,0.0,0.0,0.0,0.0,0.0,0.0,0.0,0.0,0.0,0.0,0.0,0.0,0.0,0.0,0.0,0.0,0.0,0.0,0.0,0.0,0.0,0.0,0.0,0.0,0.0,0.0,0.0,0.0,0.0,0.0,0.0,0.0,0.0,0.0,0.0,0.0,0.0,0.0,0.0,0.0,0.0,0.0,0.0,0.0,0.0,0.0,0.0,0.0,0.0,0.0,0.0,0.0,0.0,0.0,0.0,0.0,0.0,0.0,0.0,0.0,0.0,0.0,0.0,0.0,0.0,0.0,0.0,0.0,0.0,0.0,0.0,0.0,0.0,0.0,0.0,0.0,0.0,0.0,0.0,0.0,0.0,0.0,0.0,0.0,0.0,0.0,0.0,0.0,0.0,0.0,0.0,0.0,0.0,0.0,0.0,0.0,0.0,0.0,0.0,0.0,0.0,0.0,0.0,0.0,0.0,0.0,0.0,0.0,0.0,0.0,0.0,0.0,0.0,0.0,0.0,0.0,0.0,0.0,0.0,0.0,0.0,0.0,0.0,0.0,0.0,0.0,0.0,0.0,0.0,0.0,0.0,0.0,0.0,0.0,0.0,0.0,0.0,0.0,0.0,0.0,0.0,0.0,0.0,0.0,0.0,0.0,0.0,0.0,0.0,0.0,0.0,0.0,0.0,0.0,0.0,0.0,0.0,0.0,0.0,0.0,0.0,0.0,0.0,0.0,0.0,0.0,0.0,0.0,0.0,0.0,0.0,0.0,0.0,0.0,0.0,0.0,0.0,0.0,0.0,0.0,0.0,0.0,0.0,0.0,0.0,0.0,0.0,0.0,0.0,0.0,0.0,0.0,0.0,0.0,0.0,0.0,0.0,0.0,0.0,0.0,0.0,0.0,0.0,0.0,0.0,0.0,0.0,0.0,0.0,0.0,0.0,0.0,0.0,0.0,0.0,0.0,0.0,0.0,0.0,0.0,0.0,0.0,0.0,0.0,0.0,0.0,0.0,0.0,0.0,0.0,0.0,0.0,0.0,0.0,0.0,0.0,0.0,0.0,0.0,0.0,0.0,0.0,0.0,0.0,0.0,0.0,0.0,0.0,0.0,0.0,0.0,0.0,0.0,0.0,0.0,0.0,0.0,0.0,0.0,0.0,0.0,0.0,0.0,0.0,0.0,0.0,0.0,0.0,0.0,0.0,0.0,0.0,0.0,0.0,0.0,0.0,0.0,0.0,0.0,0.0,0.0,0.0,0.0,0.0,0.0,0.0,0.0,0.0,0.0,0.0,0.0,0.0,0.0,0.0,0.0,-1.0312,0.0,0.0,0.0,0.0,0.0,0.0,0.0,0.0,0.0,0.0,0.0,0.0,0.0,0.0,0.0,0.0,0.0,0.0,0.0,0.0,0.0,0.0,0.0,0.0,0.0,0.0,0.0,0.0,0.0,0.0,0.0,0.0,0.0,0.0,0.0,0.0,0.0,0.0,0.0,0.0,0.0,0.0,0.0,0.0,0.0,0.0,0.0,0.0,0.0,0.0,0.0,0.0,0.0,0.0,0.0,0.0,0.0,0.0,0.0,0.0,0.0,0.0,0.0,0.0,0.0,0.0,0.0,0.0,0.0,0.0,0.0,0.0,0.0,0.0,0.0,0.0,0.0,0.0,0.0,0.0,0.0,0.0,0.0,0.0,0.0,0.0,0.0,0.0,0.0,0.0,0.0,0.0,0.0,0.0,0.0,0.0,0.0,0.0,0.0,0.0,0.0,0.0,0.0,0.0,0.0,0.0,0.0,0.0,0.0,0.0,-1.0312,-1.0312,-1.0312,-1.0293,-1.0251,0.0,0.0,0.0,0.0,0.0,0.0,0.0,0.0,0.0,0.0,0.0,0.0,0.0,0.0,0.0,0.0,0.0,0.0,0.0,0.0,0.0,0.0,0.0,0.0,0.0,0.0,0.0,0.0,0.0,0.0,0.0,0.0,0.0,0.0,0.0,0.0,0.0,0.0,0.0,0.0,0.0,0.0,0.0,0.0,0.0,0.0,0.0,0.0,0.0,0.0,0.0,0.0,0.0,0.0,0.0,0.0,0.0,0.0,0.0,0.0,0.0,0.0,0.0,0.0,0.0,0.0,0.0,0.0,0.0,0.0,0.0,0.0,0.0,0.0,0.0,0.0,0.0,0.0,0.0,0.0,0.0,0.0,0.0,0.0,0.0,0.0,0.0,0.0,0.0,0.0,0.0,0.0,0.0,0.0,0.0,0.0,0.0,0.0,0.0,0.0,0.0,0.0,0.0,0.0,0.0,0.0,0.0,0.0,0.0,0.0,0.0,0.0,-1.0391,-1.0251,-1.0197,0.0,0.0,0.0,0.0,0.0,0.0,0.0,0.0,0.0,0.0,0.0,0.0,0.0,0.0,0.0,0.0,0.0,0.0,0.0,0.0,0.0,0.0,0.0,0.0,0.0,0.0,0.0,0.0,0.0,0.0,0.0,0.0,0.0,0.0,0.0,0.0,0.0,0.0,0.0,0.0,0.0,0.0,0.0,0.0,0.0,0.0,0.0,0.0,0.0,0.0,0.0,0.0,0.0,0.0,0.0,0.0,0.0,0.0,0.0,0.0,0.0,0.0,0.0,0.0,0.0,0.0,0.0,0.0,0.0,0.0,0.0,0.0,0.0,0.0,0.0,0.0,0.0,0.0,0.0,0.0,0.0,0.0,0.0,0.0,0.0,0.0,0.0,0.0,0.0,0.0,0.0,0.0,0.0,0.0,0.0,0.0,0.0,0.0,0.0,0.0,0.0,0.0,0.0,0.0,0.0,0.0,0.0,0.0,0.0,0.0,-1.0664,-1.1445,-1.0662,0.0,-1.0183,0.0,0.0,0.0,0.0,0.0,0.0,0.0,0.0,0.0,0.0,0.0,0.0,0.0,0.0,0.0,0.0,0.0,0.0,0.0,0.0,0.0,0.0,0.0,0.0,0.0,0.0,0.0,0.0,0.0,0.0,0.0,0.0,0.0,0.0,0.0,0.0,0.0,0.0,0.0,0.0,0.0,0.0,0.0,0.0,0.0,0.0,0.0,0.0,0.0,0.0,0.0,0.0,0.0,0.0,0.0,0.0,0.0,0.0,0.0,0.0,0.0,0.0,0.0,0.0,0.0,0.0,0.0,0.0,0.0,0.0,0.0,0.0,0.0,0.0,0.0,0.0,0.0,0.0,0.0,0.0,0.0,0.0,0.0,0.0,0.0,0.0,0.0,0.0,0.0,0.0,0.0,0.0,0.0,0.0,0.0,0.0,0.0,0.0,0.0,0.0,0.0,0.0,0.0,0.0,0.0,0.0,0.0,0.0,0.0,0.0,-1.0953,-1.084,-1.042,-1.0195,0.0,0.0,0.0,0.0,0.0,0.0,0.0,0.0,0.0,0.0,0.0,0.0,0.0,0.0,0.0,0.0,0.0,0.0,0.0,0.0,0.0,0.0,0.0,0.0,0.0,0.0,0.0,0.0,0.0,0.0,0.0,0.0,0.0,0.0,0.0,0.0,0.0,0.0,0.0,0.0,0.0,0.0,0.0,0.0,0.0,0.0,0.0,0.0,0.0,0.0,0.0,0.0,0.0,0.0,0.0,0.0,0.0,0.0,0.0,0.0,0.0,0.0,0.0,0.0,0.0,0.0,0.0,0.0,0.0,0.0,0.0,0.0,0.0,0.0,0.0,0.0,0.0,0.0,0.0,0.0,0.0,0.0,0.0,0.0,0.0,0.0,0.0,0.0,0.0,0.0,0.0,0.0,0.0,0.0,0.0,0.0,0.0,0.0,0.0,0.0,0.0,0.0,0.0,0.0,0.0,0.0,0.0,0.0,0.0,0.0,-1.1083,-1.0867,-1.0308,-1.0232,-1.0101,-0.9848,0.0,0.0,0.0,0.0,0.0,0.0,0.0,0.0,0.0,0.0,0.0,0.0,0.0,0.0,0.0,0.0,0.0,0.0,0.0,0.0,0.0,0.0,0.0,0.0,0.0,0.0,0.0,0.0,0.0,0.0,0.0,0.0,0.0,0.0,0.0,0.0,0.0,0.0,0.0,0.0,0.0,0.0,0.0,0.0,0.0,0.0,0.0,0.0,0.0,0.0,0.0,0.0,0.0,0.0,0.0,0.0,0.0,0.0,0.0,0.0,0.0,0.0,0.0,0.0,0.0,0.0,0.0,0.0,0.0,0.0,0.0,0.0,0.0,0.0,0.0,0.0,0.0,0.0,0.0,0.0,0.0,0.0,0.0,0.0,0.0,0.0,0.0,0.0,0.0,0.0,0.0,0.0,0.0,0.0,0.0,0.0,0.0,0.0,0.0,0.0,0.0,0.0,0.0,0.0,0.0,0.0,0.0,0.0,-1.2522,-1.1102,-1.0239,-1.0219,-1.0195,-0.9819,0.0,0.0,0.0,0.0,0.0,0.0,0.0,0.0,0.0,0.0,0.0,0.0,0.0,0.0,0.0,0.0,0.0,0.0,0.0,0.0,0.0,0.0,0.0,0.0,0.0,0.0,0.0,0.0,0.0,0.0,0.0,0.0,0.0,0.0,0.0,0.0,0.0,0.0,0.0,0.0,0.0,0.0,0.0,0.0,0.0,0.0,0.0,0.0,0.0,0.0,0.0,0.0,0.0,0.0,0.0,0.0,0.0,0.0,0.0,0.0,0.0,0.0,0.0,0.0,0.0,0.0,0.0,0.0,0.0,0.0,0.0,0.0,0.0,0.0,0.0,0.0,0.0,0.0,0.0,0.0,0.0,0.0,0.0,0.0,0.0,0.0,0.0,0.0,0.0,0.0,0.0,0.0,0.0,0.0,0.0,0.0,0.0,0.0,0.0,0.0,0.0,0.0,0.0,0.0,0.0,0.0,0.0,0.0,0.0,-1.1083,-1.0514,-1.044,-1.0928,-1.0484,-0.978,0.0,0.0,0.0,0.0,0.0,0.0,0.0,0.0,0.0,0.0,0.0,0.0,0.0,0.0,0.0,0.0,0.0,0.0,0.0,0.0,0.0,0.0,0.0,0.0,0.0,0.0,0.0,0.0,0.0,0.0,0.0,0.0,0.0,0.0,0.0,0.0,0.0,0.0,0.0,0.0,0.0,0.0,0.0,0.0,0.0,0.0,0.0,0.0,0.0,0.0,0.0,0.0,0.0,0.0,0.0,0.0,0.0,0.0,0.0,0.0,0.0,0.0,0.0,0.0,0.0,0.0,0.0,0.0,0.0,0.0,0.0,0.0,0.0,0.0,0.0,0.0,0.0,0.0,0.0,0.0,0.0,0.0,0.0,0.0,0.0,0.0,0.0,0.0,0.0,0.0,0.0,0.0,0.0,0.0,0.0,0.0,0.0,0.0,0.0,0.0,0.0,0.0,0.0,0.0,0.0,0.0,0.0,0.0,0.0,-1.0224,0.0,-1.0725,-1.0961,-1.0488,-0.9657,0.0,0.0,0.0,0.0,0.0,0.0,0.0,0.0,0.0,0.0,0.0,0.0,0.0,0.0,0.0,0.0,0.0,0.0,0.0,0.0,0.0,0.0,0.0,0.0,0.0,0.0,0.0,0.0,0.0,0.0,0.0,0.0,0.0,0.0,0.0,0.0,0.0,0.0,0.0,0.0,0.0,0.0,0.0,0.0,0.0,0.0,0.0,0.0,0.0,0.0,0.0,0.0,0.0,0.0,0.0,0.0,0.0,0.0,0.0,0.0,0.0,0.0,0.0,0.0,0.0,0.0,0.0,0.0,0.0,0.0,0.0,0.0,0.0,0.0,0.0,0.0,0.0,0.0,0.0,0.0,0.0,0.0,0.0,0.0,0.0,0.0,0.0,0.0,0.0,0.0,0.0,0.0,0.0,0.0,0.0,0.0,0.0,0.0,0.0,0.0,0.0,0.0,0.0,0.0,0.0,0.0,0.0,0.0,-1.0191,-1.023,-1.0976,-1.1012,-1.0266,-1.023,-0.9403,0.0,0.0,0.0,0.0,0.0,0.0,0.0,0.0,0.0,0.0,0.0,0.0,0.0,0.0,0.0,0.0,0.0,0.0,0.0,0.0,0.0,0.0,0.0,0.0,0.0,0.0,0.0,0.0,0.0,0.0,0.0,0.0,0.0,0.0,0.0,0.0,0.0,0.0,0.0,0.0,0.0,0.0,0.0,0.0,0.0,0.0,0.0,0.0,0.0,0.0,0.0,0.0,0.0,0.0,0.0,0.0,0.0,0.0,0.0,0.0,0.0,0.0,0.0,0.0,0.0,0.0,0.0,0.0,0.0,0.0,0.0,0.0,0.0,0.0,0.0,0.0,0.0,0.0,0.0,0.0,0.0,0.0,0.0,0.0,0.0,0.0,0.0,0.0,0.0,0.0,0.0,0.0,0.0,0.0,0.0,0.0,0.0,0.0,0.0,0.0,0.0,0.0,0.0,0.0,0.0,0.0,0.0,0.0,0.0,-1.014,-1.0956,-1.1285,-1.1011,-1.0486,-0.9919,0.0,0.0,0.0,0.0,0.0,0.0,0.0,0.0,0.0,0.0,0.0,0.0,0.0,0.0,0.0,0.0,0.0,0.0,0.0,0.0,0.0,0.0,0.0,0.0,0.0,0.0,0.0,0.0,0.0,0.0,0.0,0.0,0.0,0.0,0.0,0.0,0.0,0.0,0.0,0.0,0.0,0.0,0.0,0.0,0.0,0.0,0.0,0.0,0.0,0.0,0.0,0.0,0.0,0.0,0.0,0.0,0.0,0.0,0.0,0.0,0.0,0.0,0.0,0.0,0.0,0.0,0.0,0.0,0.0,0.0,0.0,0.0,0.0,0.0,0.0,0.0,0.0,0.0,0.0,0.0,0.0,0.0,0.0,0.0,0.0,0.0,0.0,0.0,0.0,0.0,0.0,0.0,0.0,0.0,0.0,0.0,0.0,0.0,0.0,0.0,0.0,0.0,0.0,0.0,0.0,0.0,0.0,0.0,0.0,-1.0613,-1.0799,-1.1069,-1.1406,-1.0612,-1.0016,-0.9675,0.0,0.0,0.0,0.0,0.0,0.0,0.0,0.0,0.0,0.0,0.0,0.0,0.0,0.0,0.0,0.0,0.0,0.0,0.0,0.0,0.0,0.0,0.0,0.0,0.0,0.0,0.0,0.0,0.0,0.0,0.0,0.0,0.0,0.0,0.0,0.0,0.0,0.0,0.0,0.0,0.0,0.0,0.0,0.0,0.0,0.0,0.0,0.0,0.0,0.0,0.0,0.0,0.0,0.0,0.0,0.0,0.0,0.0,0.0,0.0,0.0,0.0,0.0,0.0,0.0,0.0,0.0,0.0,0.0,0.0,0.0,0.0,0.0,0.0,0.0,0.0,0.0,0.0,0.0,0.0,0.0,0.0,0.0,0.0,0.0,0.0,0.0,0.0,0.0,0.0,0.0,0.0,0.0,0.0,0.0,0.0,0.0,0.0,0.0,0.0,0.0,0.0,0.0,0.0,0.0,0.0,0.0,0.0,-1.1502,-1.0675,-1.0656,-1.1464,-1.0708,-0.988,0.0,0.0,0.0,0.0,0.0,0.0,0.0,0.0,0.0,0.0,0.0,0.0,0.0,0.0,0.0,0.0,0.0,0.0,0.0,0.0,0.0,0.0,0.0,0.0,0.0,0.0,0.0,0.0,0.0,0.0,0.0,0.0,0.0,0.0,0.0,0.0,0.0,0.0,0.0,0.0,0.0,0.0,0.0,0.0,0.0,0.0,0.0,0.0,0.0,0.0,0.0,0.0,0.0,0.0,0.0,0.0,0.0,0.0,0.0,0.0,0.0,0.0,0.0,0.0,0.0,0.0,0.0,0.0,0.0,0.0,0.0,0.0,0.0,0.0,0.0,0.0,0.0,0.0,0.0,0.0,0.0,0.0,0.0,0.0,0.0,0.0,0.0,0.0,0.0,0.0,0.0,0.0,0.0,0.0,0.0,0.0,0.0,0.0,0.0,0.0,0.0,0.0,0.0,0.0,0.0,0.0,0.0,0.0,0.0,-1.2334,-1.2142,-1.2142,-1.2339,-1.1528,-1.0991,0.0,0.0,0.0,0.0,0.0,0.0,0.0,0.0,0.0,0.0,0.0,0.0,0.0,0.0,0.0,0.0,0.0,0.0,0.0,0.0,0.0,0.0,0.0,0.0,0.0,0.0,0.0,0.0,0.0,0.0,0.0,0.0,0.0,0.0,0.0,0.0,0.0,0.0,0.0,0.0,0.0,0.0,0.0,0.0,0.0,0.0,0.0,0.0,0.0,0.0,0.0,0.0,0.0,0.0,0.0,0.0,0.0,0.0,0.0,0.0,0.0,0.0,0.0,0.0,0.0,0.0,0.0,0.0,0.0,0.0,0.0,0.0,0.0,0.0,0.0,0.0,0.0,0.0,0.0,0.0,0.0,0.0,0.0,0.0,0.0,0.0,0.0,0.0,0.0,0.0,0.0,0.0,0.0,0.0,0.0,0.0,0.0,0.0,0.0,0.0,0.0,0.0,0.0,0.0,0.0,0.0,0.0,0.0,-1.2132,-1.27,-1.3392,-1.3431,-1.2719,-1.1875,-1.126,0.0,0.0,0.0,0.0,0.0,0.0,0.0,0.0,0.0,0.0,0.0,0.0,0.0,0.0,0.0,0.0,0.0,0.0,0.0,0.0,0.0,0.0,0.0,0.0,0.0,0.0,0.0,0.0,0.0,0.0,0.0,0.0,0.0,0.0,0.0,0.0,0.0,0.0,0.0,0.0,0.0,0.0,0.0,0.0,0.0,0.0,0.0,0.0,0.0,0.0,0.0,0.0,0.0,0.0,0.0,0.0,0.0,0.0,0.0,0.0,0.0,0.0,0.0,0.0,0.0,0.0,0.0,0.0,0.0,0.0,0.0,0.0,0.0,0.0,0.0,0.0,0.0,0.0,0.0,0.0,0.0,0.0,0.0,0.0,0.0,0.0,0.0,0.0,0.0,0.0,0.0,0.0,0.0,0.0,0.0,0.0,0.0,0.0,0.0,0.0,0.0,0.0,0.0,0.0,0.0,0.0,0.0,0.0,-1.2566,-1.2719,-1.4253,-1.431,-1.2762,-1.2013,-1.1147,0.0,0.0,0.0,0.0,0.0,0.0,0.0,0.0,0.0,0.0,0.0,0.0,0.0,0.0,0.0,0.0,0.0,0.0,0.0,0.0,0.0,0.0,0.0,0.0,0.0,0.0,0.0,0.0,0.0,0.0,0.0,0.0,0.0,0.0,0.0,0.0,0.0,0.0,0.0,0.0,0.0,0.0,0.0,0.0,0.0,0.0,0.0,0.0,0.0,0.0,0.0,0.0,0.0,0.0,0.0,0.0,0.0,0.0,0.0,0.0,0.0,0.0,0.0,0.0,0.0,0.0,0.0,0.0,0.0,0.0,0.0,0.0,0.0,0.0,0.0,0.0,0.0,0.0,0.0,0.0,0.0,0.0,0.0,0.0,0.0,0.0,0.0,0.0,0.0,0.0,0.0,0.0,0.0,0.0,0.0,0.0,0.0,0.0,0.0,0.0,0.0,0.0,0.0,0.0,0.0,0.0,0.0,0.0,-1.2671,-1.2724,-1.3676,-1.3709,-1.2719,-1.2541,-1.1713,0.0,0.0,0.0,0.0,0.0,0.0,0.0,0.0,0.0,0.0,0.0,0.0,0.0,0.0,0.0,0.0,0.0,0.0,0.0,0.0,0.0,0.0,0.0,0.0,0.0,0.0,0.0,0.0,0.0,0.0,0.0,0.0,0.0,0.0,0.0,0.0,0.0,0.0,0.0,0.0,0.0,0.0,0.0,0.0,0.0,0.0,0.0,0.0,-0.6889,0.0,0.0,0.0,0.0,0.0,0.0,0.0,0.0,0.0,0.0,0.0,0.0,0.0,0.0,0.0,0.0,0.0,0.0,0.0,0.0,0.0,0.0,0.0,0.0,0.0,0.0,0.0,0.0,0.0,0.0,0.0,0.0,0.0,0.0,0.0,0.0,0.0,0.0,0.0,0.0,0.0,0.0,0.0,0.0,0.0,0.0,0.0,0.0,0.0,0.0,0.0,0.0,0.0,0.0,0.0,0.0,0.0,0.0,0.0,-1.2458,-1.2122,-1.3267,-1.3324,-1.2161,-1.2088,-1.1462,0.0,0.0,0.0,0.0,0.0,0.0,0.0,0.0,0.0,0.0,0.0,0.0,0.0,0.0,0.0,0.0,0.0,0.0,0.0,0.0,0.0,0.0,0.0,0.0,0.0,0.0,0.0,0.0,0.0,0.0,0.0,0.0,0.0,0.0,0.0,0.0,0.0,0.0,0.0,0.0,0.0,0.0,0.0,0.0,0.0,0.0,0.0,0.0,0.0,0.0,0.0,0.0,0.0,0.0,0.0,0.0,0.0,0.0,0.0,0.0,0.0,0.0,0.0,0.0,0.0,0.0,0.0,0.0,0.0,0.0,0.0,0.0,0.0,0.0,0.0,0.0,0.0,0.0,0.0,0.0,0.0,0.0,0.0,0.0,0.0,0.0,0.0,0.0,0.0,0.0,0.0,0.0,0.0,0.0,0.0,0.0,0.0,0.0,0.0,0.0,0.0,0.0,0.0,0.0,0.0,0.0,0.0,-1.1534,-1.2049,-1.1502,-1.2786,-1.2829,-1.1457,-1.1288,-1.0889,-1.0227,0.0,0.0,0.0,0.0,0.0,0.0,0.0,0.0,0.0,0.0,0.0,0.0,0.0,0.0,0.0,0.0,0.0,0.0,0.0,0.0,0.0,0.0,0.0,0.0,0.0,0.0,0.0,0.0,0.0,0.0,0.0,0.0,0.0,0.0,0.0,0.0,0.0,0.0,-0.66,-0.7462,0.0,0.0,0.0,0.0,0.0,0.0,0.0,0.0,-0.5676,0.0,0.0,0.0,0.0,0.0,0.0,0.0,0.0,0.0,0.0,0.0,0.0,0.0,0.0,0.0,0.0,0.0,0.0,0.0,0.0,0.0,0.0,0.0,0.0,0.0,0.0,0.0,0.0,0.0,0.0,0.0,0.0,0.0,0.0,0.0,0.0,0.0,0.0,0.0,0.0,0.0,0.0,0.0,0.0,0.0,0.0,0.0,0.0,0.0,0.0,0.0,0.0,0.0,0.0,0.0,0.0,-0.9922,-1.1014,-1.1532,-1.1406,-1.1656,-1.1674,-1.1401,-1.0748,-1.0335,-1.0178,0.0,0.0,0.0,0.0,0.0,0.0,0.0,0.0,0.0,0.0,0.0,0.0,0.0,0.0,0.0,0.0,0.0,0.0,0.0,0.0,0.0,0.0,0.0,0.0,0.0,0.0,0.0,0.0,0.0,0.0,0.0,0.0,0.0,0.0,0.0,0.0,0.0,0.0,0.0,-0.8812,-0.9229,0.0,0.0,0.0,0.0,0.0,0.0,0.0,0.0,-0.5251,0.0,0.0,0.0,0.0,0.0,0.0,0.0,0.0,0.0,0.0,0.0,0.0,0.0,0.0,0.0,0.0,0.0,0.0,0.0,0.0,0.0,0.0,0.0,0.0,0.0,0.0,0.0,0.0,0.0,0.0,0.0,0.0,0.0,0.0,0.0,0.0,0.0,0.0,0.0,0.0,0.0,0.0,0.0,0.0,0.0,0.0,0.0,0.0,0.0,0.0,0.0,0.0,0.0,0.0,0.0,-0.991,-1.0885,-1.1175,-1.0771,-1.1156,-1.12,-1.0783,-1.0411,-1.0187,0.0,0.0,0.0,0.0,0.0,0.0,0.0,0.0,0.0,0.0,0.0,0.0,0.0,0.0,0.0,0.0,0.0,0.0,0.0,0.0,0.0,0.0,0.0,0.0,0.0,0.0,0.0,0.0,0.0,0.0,0.0,0.0,0.0,0.0,0.0,0.0,0.0,0.0,0.0,0.0,-0.8731,-0.9077,-0.7858,0.0,0.0,0.0,0.0,0.0,0.0,-0.5095,-0.5104,0.0,0.0,0.0,0.0,0.0,0.0,0.0,0.0,0.0,0.0,0.0,0.0,0.0,0.0,0.0,0.0,0.0,0.0,0.0,0.0,0.0,0.0,0.0,0.0,0.0,0.0,0.0,0.0,0.0,0.0,0.0,0.0,0.0,0.0,0.0,0.0,0.0,0.0,0.0,0.0,0.0,0.0,0.0,0.0,0.0,0.0,0.0,0.0,0.0,0.0,0.0,0.0,0.0,0.0,0.0,-0.9908,-1.0718,-1.0795,-1.0187,-1.0787,-1.0775,-0.9994,-1.0116,-1.0136,0.0,0.0,0.0,0.0,0.0,0.0,0.0,0.0,0.0,0.0,0.0,0.0,0.0,0.0,0.0,0.0,0.0,0.0,0.0,0.0,0.0,0.0,0.0,0.0,0.0,0.0,0.0,0.0,0.0,0.0,0.0,0.0,0.0,0.0,0.0,0.0,0.0,0.0,0.0,0.0,0.0,-0.8411,-0.7796,-0.7685,0.0,0.0,0.0,0.0,-0.5718,-0.5519,0.0,0.0,0.0,0.0,0.0,0.0,0.0,0.0,0.0,0.0,0.0,0.0,0.0,0.0,0.0,0.0,0.0,0.0,0.0,0.0,0.0,0.0,0.0,0.0,0.0,0.0,0.0,0.0,0.0,0.0,0.0,0.0,0.0,0.0,0.0,0.0,0.0,0.0,0.0,0.0,0.0,0.0,0.0,0.0,0.0,0.0,0.0,0.0,0.0,0.0,0.0,0.0,0.0,0.0,0.0,0.0,-0.9968,-1.0161,-1.0213,-1.0202,-1.0302,-0.9958,-0.9164,-0.9832,-0.9877,0.0,0.0,0.0,0.0,0.0,0.0,0.0,0.0,0.0,0.0,0.0,0.0,0.0,0.0,0.0,0.0,0.0,0.0,0.0,0.0,0.0,0.0,0.0,0.0,0.0,0.0,0.0,0.0,0.0,0.0,0.0,0.0,0.0,0.0,0.0,0.0,0.0,0.0,0.0,0.0,0.0,-0.7819,-0.7706,-0.7685,-0.7964,0.0,0.0,-0.7502,-0.7333,-0.6915,0.0,0.0,0.0,0.0,0.0,0.0,0.0,0.0,0.0,0.0,0.0,0.0,0.0,0.0,0.0,0.0,0.0,0.0,0.0,0.0,0.0,0.0,0.0,0.0,0.0,0.0,0.0,0.0,0.0,0.0,0.0,0.0,0.0,0.0,0.0,0.0,0.0,0.0,0.0,0.0,0.0,0.0,0.0,0.0,0.0,0.0,0.0,0.0,0.0,0.0,0.0,0.0,0.0,0.0,0.0,-0.8282,-0.9925,-0.9617,-0.9687,-1.0172,-1.019,-0.9806,-0.9033,-0.9777,-0.9586,0.0,0.0,0.0,0.0,0.0,0.0,0.0,0.0,0.0,0.0,0.0,0.0,0.0,0.0,0.0,0.0,0.0,0.0,0.0,0.0,0.0,0.0,0.0,0.0,0.0,0.0,0.0,0.0,0.0,0.0,0.0,0.0,0.0,0.0,0.0,0.0,0.0,0.0,0.0,0.0,0.0,0.0,-0.7632,-0.7681,0.0,0.0,0.0,-0.8568,-0.9005,0.0,0.0,0.0,0.0,0.0,0.0,0.0,0.0,0.0,0.0,0.0,0.0,0.0,0.0,0.0,0.0,0.0,0.0,0.0,0.0,0.0,0.0,0.0,0.0,0.0,0.0,0.0,0.0,0.0,0.0,0.0,0.0,0.0,0.0,0.0,0.0,0.0,0.0,0.0,0.0,0.0,0.0,0.0,0.0,0.0,0.0,0.0,0.0,0.0,0.0,0.0,0.0,0.0,0.0,0.0,0.0,0.0,-0.9989,-0.9291,-0.931,-1.0178,-1.0197,-0.9707,-0.8724,-0.9488,0.0,0.0,0.0,0.0,0.0,0.0,0.0,0.0,0.0,0.0,0.0,0.0,0.0,0.0,0.0,0.0,0.0,0.0,0.0,0.0,0.0,0.0,0.0,0.0,0.0,0.0,0.0,-0.168,0.0,0.0,0.0,0.0,0.0,0.0,0.0,0.0,0.0,0.0,0.0,0.0,0.0,0.0,-0.7378,-0.7582,-0.7661,-0.7635,0.0,0.0,-0.9276,-1.0098,-0.771,-0.5586,0.0,0.0,0.0,0.0,0.0,0.0,0.0,0.0,0.0,0.0,0.0,0.0,0.0,0.0,0.0,0.0,0.0,0.0,0.0,0.0,0.0,0.0,0.0,0.0,0.0,0.0,0.0,0.0,0.0,0.0,0.0,0.0,0.0,0.0,0.0,0.0,0.0,0.0,0.0,0.0,0.0,0.0,0.0,0.0,0.0,0.0,0.0,0.0,0.0,0.0,0.0,0.0,0.0,0.0,-0.7567,-1.0047,-0.9339,-0.9293,-1.0145,-1.0186,-0.9429,-0.7871,-0.8633,-0.8281,0.0,0.0,0.0,0.0,0.0,0.0,0.0,0.0,0.0,0.0,0.0,0.0,0.0,0.0,0.0,0.0,0.0,0.0,0.0,0.0,0.0,0.0,0.0,0.0,0.0,0.0,0.0,0.0,0.0,0.0,0.0,0.0,0.0,0.0,0.0,0.0,0.0,0.0,0.0,0.0,0.0,-0.6753,-0.7487,-0.7665,-0.7402,0.0,-0.791,-0.9297,-1.0137,-0.8711,-0.6973,-0.5371,0.0,0.0,0.0,0.0,0.0,0.0,0.0,0.0,0.0,0.0,0.0,0.0,0.0,0.0,0.0,0.0,0.0,0.0,0.0,0.0,0.0,0.0,0.0,0.0,0.0,0.0,0.0,0.0,0.0,0.0,0.0,0.0,0.0,0.0,0.0,0.0,0.0,0.0,0.0,0.0,0.0,0.0,0.0,0.0,0.0,0.0,0.0,0.0,0.0,0.0,0.0,0.0,0.0,-0.6824,-0.9322,-0.805,-0.8051,-0.9366,-0.8942,-0.8105,-0.6934,-0.7754,-0.7383,0.0,0.0,0.0,0.0,0.0,0.0,0.0,0.0,0.0,0.0,0.0,0.0,0.0,0.0,0.0,0.0,0.0,0.0,0.0,0.0,0.0,0.0,0.0,0.0,0.0,0.0,0.0,0.0,-0.4706,-0.5098,-0.5098,0.0,0.0,0.0,0.0,0.0,0.0,0.0,0.0,0.0,0.0,-0.7129,-0.6908,-0.687,0.0,0.0,-0.7422,-0.8301,-0.8633,-0.8145,-0.7109,-0.5371,-0.5098,0.0,0.0,0.0,0.0,0.0,0.0,0.0,0.0,0.0,0.0,0.0,0.0,0.0,0.0,0.0,0.0,0.0,0.0,0.0,0.0,0.0,0.0,0.0,0.0,0.0,0.0,0.0,0.0,0.0,0.0,0.0,0.0,0.0,0.0,0.0,0.0,0.0,0.0,0.0,0.0,0.0,0.0,0.0,0.0,0.0,0.0,0.0,0.0,0.0,0.0,0.0,0.0,-0.6225,-0.8508,-0.7117,-0.7127,-0.8591,-0.8027,-0.7285,-0.6465,-0.6992,-0.6601,0.0,0.0,0.0,0.0,0.0,0.0,0.0,0.0,0.0,0.0,0.0,0.0,0.0,0.0,0.0,0.0,0.0,0.0,0.0,0.0,0.0,0.0,0.0,0.0,0.0,0.0,0.0,0.0,-0.5096,-0.5098,-0.5098,0.0,0.0,0.0,0.0,0.0,0.0,0.0,0.0,0.0,0.0,-0.7177,-0.6824,-0.6795,-0.6777,-0.6777,-0.7539,-0.7812,-0.7031,-0.7344,-0.7129,-0.5371,0.0,0.0,0.0,0.0,0.0,0.0,0.0,0.0,0.0,0.0,0.0,0.0,0.0,0.0,0.0,0.0,0.0,0.0,0.0,0.0,0.0,0.0,0.0,0.0,0.0,0.0,0.0,-0.6376,0.0,0.0,-0.5176,0.0,0.0,0.0,0.0,0.0,0.0,0.0,0.0,0.0,0.0,0.0,0.0,0.0,0.0,0.0,0.0,0.0,0.0,0.0,0.0,0.0,0.0,-0.5963,-0.7684,-0.6834,-0.6816,-0.7693,-0.7689,-0.7238,-0.6403,-0.6422,-0.5994,-0.5137,0.0,0.0,0.0,0.0,0.0,0.0,0.0,0.0,0.0,0.0,0.0,0.0,0.0,0.0,0.0,0.0,0.0,0.0,0.0,0.0,0.0,0.0,0.0,0.0,0.0,0.0,-0.5102,-0.5095,-0.5078,0.0,0.0,0.0,0.0,0.0,0.0,0.0,0.0,0.0,0.0,-0.6953,-0.6747,-0.7549,-0.7654,-0.7617,-0.7617,-0.8359,-0.8086,-0.5625,-0.6621,-0.7109,0.0,0.0,0.0,0.0,0.0,0.0,0.0,0.0,0.0,0.0,0.0,0.0,0.0,0.0,0.0,0.0,0.0,0.0,0.0,0.0,0.0,0.0,0.0,0.0,0.0,0.0,0.0,-0.7428,-0.7145,0.0,0.0,0.0,0.0,0.0,0.0,0.0,0.0,0.0,0.0,0.0,-0.8812,-0.8898,0.0,0.0,0.0,0.0,0.0,0.0,0.0,0.0,0.0,0.0,0.0,0.0,-0.5955,-0.7538,-0.6269,-0.5954,-0.6789,-0.6259,-0.5848,-0.5537,-0.5542,-0.5387,-0.5115,0.0,0.0,0.0,0.0,0.0,0.0,0.0,0.0,0.0,0.0,0.0,0.0,0.0,0.0,0.0,0.0,0.0,0.0,0.0,0.0,0.0,0.0,0.0,0.0,0.0,-0.5087,0.0,0.0,0.0,0.0,0.0,0.0,0.0,0.0,0.0,0.0,0.0,-0.7168,-0.6872,-0.7556,-0.7979,-0.7752,-0.7665,-0.7443,0.0,0.0,0.0,0.0,0.0,0.0,0.0,0.0,0.0,0.0,0.0,0.0,0.0,0.0,-0.7084,-0.644,-0.6227,-0.5782,-0.4715,0.0,0.0,0.0,0.0,0.0,0.0,0.0,0.0,0.0,0.0,0.0,0.0,0.0,0.0,-0.8461,0.0,-0.8099,0.0,0.0,0.0,0.0,0.0,0.0,0.0,0.0,-0.8883,-0.9181,-0.9678,-0.9724,-0.943,0.0,-0.9145,-0.8544,0.0,0.0,0.0,0.0,0.0,0.0,0.0,0.0,-0.6151,-0.7262,-0.589,-0.5376,-0.5897,-0.5382,-0.5089,-0.5093,-0.5105,-0.5089,-0.5103,-0.5088,-0.5091,0.0,0.0,0.0,0.0,0.0,0.0,0.0,0.0,0.0,0.0,0.0,0.0,0.0,0.0,0.0,0.0,0.0,0.0,0.0,0.0,0.0,0.0,0.0,-0.5092,0.0,0.0,0.0,0.0,0.0,0.0,0.0,0.0,0.0,-0.5702,-0.6613,-0.7157,-0.6894,-0.7525,-0.806,-0.8133,0.0,0.0,0.0,0.0,0.0,0.0,0.0,-0.8685,-0.9019,-0.8319,-0.7324,-0.6152,-0.5976,-0.6046,-0.6182,0.0,0.0,-0.6826,-0.6981,-0.6822,-0.6178,-0.4953,-0.4265,-0.5042,-0.5117,-0.5004,0.0,0.0,0.0,0.0,0.0,0.0,0.0,0.0,-1.0194,-1.0147,0.0,-0.9206,0.0,0.0,0.0,0.0,0.0,-0.857,0.0,0.0,-0.897,-0.8934,-0.8968,-0.898,-0.8956,-0.8968,-0.9652,-0.9543,-0.87,-0.7152,0.0,0.0,0.0,0.0,0.0,0.0,-0.6532,-0.6743,-0.568,-0.5088,-0.5109,-0.5108,-0.5089,-0.5088,-0.509,-0.5094,-0.5091,-0.5091,-0.5101,-0.5099,-0.5099,0.0,0.0,0.0,0.0,0.0,0.0,0.0,0.0,0.0,0.0,0.0,0.0,0.0,0.0,0.0,0.0,0.0,0.0,0.0,0.0,-0.5102,0.0,0.0,0.0,0.0,0.0,0.0,0.0,0.0,0.0,0.0,-0.6786,-0.6636,-0.6789,-0.7632,0.0,0.0,0.0,0.0,-0.8301,-0.9806,-1.0096,-1.0049,-1.0055,-1.0125,-0.9408,-0.713,0.0,0.0,-0.5447,-0.6523,-0.7201,-0.6326,-0.5445,-0.5433,-0.7294,-0.7297,-0.7411,-0.8268,-0.6128,-0.4255,-0.4016,-0.4485,-0.489,-1.2196,0.0,0.0,0.0,0.0,-1.1768,-1.1774,-1.1749,-1.1692,-1.1327,-1.0753,-1.0507,0.0,0.0,0.0,0.0,0.0,0.0,-0.9824,-0.9819,-0.9848,-0.9771,-0.9701,-0.968,-0.9663,-0.9608,-0.9825,-0.9498,-0.866,-0.8229,-0.7707,-0.718,0.0,0.0,0.0,0.0,-0.6436,-0.6446,-0.5582,-0.5101,-0.5105,-0.5099,-0.5107,-0.5088,-0.5097,-0.5105,-0.5093,-0.5094,-0.5105,-0.5103,-0.5103,0.0,0.0,0.0,0.0,0.0,0.0,0.0,0.0,0.0,0.0,0.0,0.0,0.0,0.0,0.0,0.0,0.0,0.0,0.0,-0.5067,-0.5097,-0.535,0.0,0.0,0.0,0.0,0.0,0.0,0.0,0.0,0.0,-0.6405,-0.7442,-0.8278,0.0,0.0,-0.9245,-0.9785,-0.9123,-0.8507,-0.837,-0.8341,0.0,-0.836,-0.9361,-0.9092,-0.6094,-0.625,-0.6581,-0.6113,-0.5935,-0.5745,-0.539,-0.518,-0.5163,-0.5493,-0.5604,-0.564,-0.58,-0.4993,-0.4159,-0.3949,-0.3974,-0.4009,-1.3399,-1.2949,-1.2514,-1.2313,-1.232,-1.2357,-1.2352,-1.2364,-1.2301,-1.2157,-1.2007,-1.1658,-1.1236,-1.0801,-1.0169,0.0,0.0,0.0,-1.0083,-1.0067,-1.0086,-1.0048,-0.9952,-0.9946,-0.9944,-0.9899,-0.9893,-0.9623,-0.9115,-0.9174,-0.893,-0.8451,0.0,0.0,-0.8541,-0.7461,-0.676,-0.6479,-0.5577,-0.5063,-0.5008,-0.5036,-0.5074,-0.5096,-0.5096,-0.5104,-0.51,-0.5101,-0.5094,-0.5098,-0.5096,-0.5091,0.0,0.0,0.0,0.0,0.0,0.0,0.0,0.0,0.0,0.0,0.0,-0.4372,-0.5024,0.0,0.0,0.0,-0.5423,-0.5605,-0.5623,-0.5908,0.0,0.0,0.0,0.0,0.0,0.0,0.0,-0.7506,-0.7123,-0.6794,-0.7,-0.7767,-0.8228,-0.7911,-0.8284,-0.8749,-0.9096,0.0,-0.7758,-0.7562,-0.7563,-0.7659,-0.7884,-0.8396,-0.7928,-0.5517,-0.5524,-0.5875,-0.5859,-0.5425,-0.5093,-0.5059,-0.5048,-0.503,-0.4938,-0.4856,-0.4761,-0.4702,-0.4492,-0.4236,-0.3955,-0.3773,-0.3667,-1.4265,-1.416,-1.2894,-1.2382,-1.2391,-1.2448,-1.2469,-1.248,-1.2426,-1.2824,-1.349,-1.2595,-1.2261,-1.2286,-1.0688,0.0,-1.0088,-0.9971,-0.9946,-0.9987,-0.9931,-0.9893,-0.9881,-0.9881,-0.9881,-0.9894,-0.9875,-0.9875,-0.9875,-0.9881,-0.9881,-0.9868,-0.9229,-0.9266,-0.9875,-0.8436,-0.7342,-0.6644,-0.5679,-0.5084,-0.4914,-0.4962,-0.5029,-0.5095,-0.5095,-0.5099,-0.5099,-0.5099,-0.5099,-0.5099,-0.5099,-0.5099,-0.5099,0.0,0.0,0.0,0.0,0.0,0.0,0.0,0.0,0.0,0.0,0.0,0.0,0.0,0.0,0.0,-0.5818,0.0,-0.6292,-0.6961,0.0,0.0,0.0,-0.5939,-0.5279,-0.574,-0.6267,-0.6691,0.0,0.0,-0.7964,-0.7636,-0.7083,-0.6261,-0.6294,-0.6696,-0.7471,-0.6875,-0.6495,-0.7256,-0.7311,-0.7456,-0.7737,-0.7244,-0.6391,-0.5315,-0.509,-0.5145,-0.5155,-0.5134,-0.51,-0.5097,-0.506,-0.5011,-0.5093,-0.4919,-0.4754,-0.4554,-0.4482,-0.4373,-0.4039,-0.3862,-0.3758,-1.4899,-1.4972,-1.4089,-1.3815,-1.3945,-1.3966,-1.3958,-1.3977,-1.3974,-1.3745,-1.3362,-1.3117,-1.2704,-1.2105,-1.1006,-1.0928,-1.1605,-1.0439,-1.0231,-1.0766,-1.0169,-0.9882,-0.9825,-0.9825,-0.9791,-0.9747,-0.9747,-0.9754,-0.9747,-0.9798,-0.9825,-0.9831,-0.9703,-0.9424,-0.8959,-0.8552,-0.7671,-0.6324,-0.6071,-0.5628,-0.4992,-0.5003,-0.4998,-0.5027,-0.5068,-0.5099,-0.5099,-0.5099,-0.5099,-0.5099,-0.5099,-0.5099,-0.5099,-0.5101,0.0,0.0,0.0,0.0,0.0,0.0,0.0,0.0,0.0,-0.4654,-0.5072,0.0,-0.4823,0.0,-0.5243,-0.5331,-0.5344,-0.5497,0.0,0.0,-0.5688,-0.5741,-0.6775,-0.5941,-0.5783,-0.7089,-0.6755,-0.6445,-0.6529,-0.6422,-0.6047,-0.5238,-0.6331,-0.7296,-0.7482,-0.6766,-0.6277,-0.6407,-0.603,-0.5644,-0.5827,-0.566,-0.5413,-0.5067,-0.5052,-0.5105,-0.5105,-0.5097,-0.5095,-0.51,-0.5091,-0.5065,-0.5015,-0.4889,-0.4724,-0.4541,-0.4482,-0.4425,-0.4169,-0.3962,-0.3766,-1.5255,-1.5048,-1.4639,-1.4381,-1.4227,-1.4429,-1.4453,-1.4375,-1.4362,-1.4071,-1.3558,-1.3184,-1.2794,-1.2313,-1.146,-1.1399,-1.1929,-1.0752,-1.0494,-1.0945,-1.0177,-0.9796,-0.9754,-0.9761,-0.9732,-0.9698,-0.9698,-0.9698,-0.9698,-0.9732,-0.9772,-0.9754,-0.9791,-0.9581,-0.9102,-0.877,-0.8153,-0.728,-0.6487,-0.5753,-0.5043,-0.4973,-0.516,-0.5557,-0.5613,-0.5804,-0.6157,-0.5972,-0.5783,-0.5605,-0.5277,-0.5099,-0.5099,-0.5095,-0.5098,0.0,0.0,0.0,0.0,0.0,0.0,0.0,0.0,0.0,0.0,0.0,-0.5097,-0.5089,-0.5382,-0.558,-0.558,-0.5858,-0.6108,-0.6181,-0.5766,-0.5719,-0.6252,-0.5465,-0.5231,-0.6103,-0.5763,-0.5443,-0.5382,-0.5359,-0.5197,-0.4733,-0.5551,-0.623,-0.6213,-0.5797,-0.5517,-0.5529,-0.5175,-0.4867,-0.4899,-0.4944,-0.4981,-0.5003,-0.5038,-0.5052,-0.5087,-0.5106,-0.5097,-0.5095,-0.5096,-0.5085,-0.5057,-0.4969,-0.4828,-0.4675,-0.4594,-0.4437,-0.4131,-0.3933,-0.3758,-1.5503,-1.4934,-1.4727,-1.4354,-1.391,-1.4282,-1.432,-1.4162,-1.4162,-1.4051,-1.3864,-1.3137,-1.2842,-1.2798,-1.2015,-1.1766,-1.1884,-1.1039,-1.0739,-1.0857,-1.0058,-0.9698,-0.9698,-0.9698,-0.9698,-0.9698,-0.9665,-0.9665,-0.9665,-0.9667,-0.9667,-0.9641,-0.9641,-0.9649,-0.962,-0.9021,-0.861,-0.8418,-0.693,-0.5826,-0.5138,-0.5181,-0.559,-0.6382,-0.6445,-0.6725,-0.7289,-0.6983,-0.6584,-0.6204,-0.5628,-0.5268,-0.5234,-0.5241,-0.5183,0.0,-0.4996,0.0,0.0,0.0,0.0,0.0,0.0,0.0,0.0,-0.5089,-0.5081,-0.5082,-0.5708,-0.6121,-0.6096,-0.6663,-0.6769,-0.6089,-0.5944,-0.5624,-0.4891,-0.4777,-0.4757,-0.4706,-0.4679,-0.4666,-0.4609,-0.457,-0.4594,-0.4552,-0.4604,-0.4729,-0.467,-0.4679,-0.471,-0.4768,-0.475,-0.4761,-0.4781,-0.4793,-0.4849,-0.4954,-0.4989,-0.5029,-0.5068,-0.51,-0.5103,-0.5096,-0.5097,-0.5106,-0.5093,-0.5057,-0.4979,-0.4856,-0.4674,-0.4391,-0.3979,-0.3825,-0.3744,-1.5666,-1.5573,-1.4346,-1.3846,-1.3913,-1.3965,-1.3997,-1.3955,-1.3955,-1.3924,-1.3881,-1.3549,-1.3526,-1.3602,-1.2834,-1.257,-1.271,-1.1422,-1.0858,-1.0866,-1.0076,-0.9698,-0.9698,-0.9698,-0.9698,-0.9691,-0.9575,-0.9534,-0.9552,-0.9421,-0.9376,-0.9376,-0.9376,-0.9377,-0.9358,0.0,0.0,0.0,-0.7204,-0.6641,-0.5859,-0.6487,-0.6938,-0.7111,-0.7163,0.0,-0.6489,-0.6563,-0.6502,-0.6218,-0.6284,0.0,0.0,0.0,0.0,0.0,0.0,0.0,0.0,0.0,0.0,0.0,-0.501,-0.5037,-0.5099,-0.506,-0.5001,-0.4962,-0.5028,-0.5064,-0.5004,-0.5084,-0.5083,-0.4935,-0.4944,-0.4863,-0.4666,-0.4679,-0.4679,-0.462,-0.4611,-0.4572,-0.447,-0.4426,-0.4398,-0.4301,-0.4265,-0.4293,-0.4306,-0.4463,-0.4601,-0.4629,-0.4702,-0.4757,-0.4736,-0.4757,-0.4793,-0.4841,-0.4922,-0.4979,-0.5019,-0.5064,-0.5061,-0.5024,-0.5064,-0.5096,-0.5094,-0.5078,-0.507,-0.5034,-0.4635,-0.4152,-0.3745,-0.3692,-0.3693,-1.5996,0.0,-1.452,-1.3885,0.0,-1.3667,-1.3652,-1.3667,-1.3724,-1.3709,-1.3652,-1.3542,-1.3557,-1.3634,-1.3223,-1.3136,-1.3209,-1.1765,-1.1166,-1.1177,-1.0033,-0.9507,-0.9506,-0.9499,-0.9499,-0.9497,-0.9429,-0.9403,-0.9403,-0.934,-0.9312,-0.9312,-0.9312,-0.9304,-0.9304,-0.9304,-0.8592,-0.7171,-0.6785,-0.6181,-0.5364,-0.5742,-0.6189,-0.6625,-0.6686,0.0,0.0,0.0,0.0,0.0,0.0,0.0,0.0,0.0,0.0,-0.4934,-0.4928,-0.4922,-0.4853,-0.488,-0.4922,-0.4941,-0.4885,-0.4896,-0.4987,-0.4958,-0.4935,-0.4834,-0.4768,-0.469,-0.4686,-0.4579,-0.4532,-0.4591,-0.4596,-0.4596,-0.4601,-0.4678,-0.4659,-0.4534,-0.448,-0.4448,-0.4311,-0.4299,-0.4263,-0.4207,-0.4217,-0.4211,-0.4207,-0.4323,-0.4398,-0.4459,-0.4577,-0.4631,-0.4564,-0.4604,-0.4679,-0.4725,-0.4779,-0.4816,-0.4902,-0.4938,-0.4957,-0.4953,-0.4961,-0.4978,-0.504,-0.5078,-0.5091,-0.5029,-0.4581,-0.4013,-0.3573,-0.3425,-0.3372,-1.6075,-1.5452,-1.459,-1.3867,-1.3329,-1.3346,-1.3346,-1.3396,0.0,0.0,0.0,-1.3396,-1.3396,-1.3396,-1.343,-1.3442,-1.3309,-1.2113,-1.1489,-1.1317,-1.009,-0.9428,-0.9314,-0.9249,-0.9257,-0.9228,-0.9199,-0.9161,-0.9189,-0.9142,-0.9169,-0.9196,-0.9189,-0.9216,-0.921,-0.8965,-0.8214,-0.6999,-0.6523,-0.5823,-0.4886,-0.4956,-0.5391,-0.6173,-0.6192,-0.6429,-0.6939,-0.6696,-0.6367,-0.5996,-0.5423,-0.5097,-0.5082,-0.5128,-0.5043,-0.4786,-0.4805,-0.4801,-0.4679,-0.4708,-0.4775,-0.4794,-0.4682,-0.4668,-0.4834,-0.4912,-0.4941,-0.489,-0.485,-0.4827,-0.4787,-0.4641,-0.4544,-0.4534,-0.4496,-0.4485,-0.4527,-0.4584,-0.4547,-0.4398,-0.4374,-0.4374,-0.4397,-0.4236,-0.4201,-0.4311,-0.4356,-0.4307,-0.4282,-0.4265,-0.4232,-0.4267,-0.4385,-0.4437,-0.437,-0.4403,-0.4487,-0.4602,-0.4588,-0.4598,-0.4661,-0.4735,-0.479,-0.4803,-0.4698,-0.4621,-0.4767,-0.4948,-0.5051,-0.5034,-0.4117,-0.324,-0.2798,-0.2534,-0.2503,-1.5279,-1.5139,-1.3778,-1.315,-1.3049,-1.3067,-1.3191,-1.3396,-1.343,-1.343,-1.3396,-1.3396,-1.3396,-1.3396,-1.3508,-1.321,-1.2574,-1.2536,-1.1822,-1.0584,-1.0337,-0.991,-0.9303,-0.9134,-0.9047,-0.9006,-0.8814,-0.8693,-0.8681,-0.8579,-0.8595,-0.8771,-0.8783,-0.884,-0.8849,-0.7692,-0.6947,-0.6773,-0.7504,-0.7184,-0.5763,-0.64,-0.6814,-0.6923,-0.6923,-0.6646,-0.6089,-0.6191,-0.6156,-0.5934,-0.5983,-0.5948,-0.5771,-0.5733,-0.5442,-0.471,-0.4588,-0.4547,-0.4532,-0.4537,-0.4527,-0.4472,-0.4352,-0.4384,-0.4635,-0.4902,-0.5114,-0.5224,-0.5462,-0.5549,-0.5208,-0.5056,-0.4784,-0.4355,-0.4295,-0.4306,-0.4281,-0.4317,-0.4317,-0.4226,-0.4226,-0.445,-0.4757,-0.4372,-0.4197,-0.4627,-0.461,-0.4679,-0.4646,-0.4432,-0.4214,-0.414,-0.4185,-0.4205,-0.4137,-0.4182,-0.4241,-0.4347,-0.4392,-0.4392,-0.4303,-0.4477,-0.4539,-0.4478,-0.3977,-0.3796,-0.4041,-0.4629,-0.4843,-0.4679,-0.2768,-0.0572,-0.0179,-0.0,-0.0572,-1.4377,-1.4247,-1.3219,-1.2778,-1.2797,-1.2762,-1.2852,-1.2962,-1.2962,-1.3156,-1.3396,-1.3396,-1.3311,-1.3191,-1.3244,-1.3093,-1.2706,-1.2271,-1.1559,-1.0672,-1.0114,-0.9494,-0.8846,-0.8706,-0.8657,-0.8655,-0.855,-0.8497,-0.8485,-0.8425,-0.8454,-0.853,-0.8542,-0.8579,-0.8575,-0.7973,-0.7235,-0.6498,-0.6294,-0.5849,-0.5163,-0.5494,-0.5688,-0.5688,-0.5688,-0.5535,-0.5145,-0.5191,-0.5203,-0.5149,-0.5226,-0.5203,-0.5099,-0.5075,-0.4885,-0.4476,-0.4381,-0.433,-0.4289,-0.4296,-0.4228,-0.414,-0.4204,-0.4254,-0.4287,-0.455,-0.4866,-0.5188,-0.5126,-0.4899,-0.4721,-0.4573,-0.437,-0.4113,-0.4185,-0.4207,-0.4108,-0.4091,-0.4056,-0.4027,-0.4249,-0.4493,-0.4726,-0.4446,-0.4293,-0.4628,-0.455,-0.4528,-0.4791,-0.4396,-0.3982,-0.3868,-0.3955,-0.3969,-0.3855,-0.384,-0.3903,-0.3971,-0.4051,-0.4064,-0.3976,-0.4099,-0.4058,-0.371,-0.2978,-0.2542,-0.2787,-0.3576,-0.4145,-0.4142,-0.0717,0.1908,0.2716,0.2353,0.0896,-1.3823,-1.3765,-1.2864,-1.2514,-1.2514,-1.2572,-1.261,-1.261,-1.261,-1.2836,-1.3191,-1.3226,-1.3121,-1.2924,-1.2906,-1.2906,-1.2806,-1.2102,-1.1429,-1.0761,-0.9996,-0.9218,-0.8439,-0.8357,-0.8339,-0.8312,-0.8296,-0.8269,-0.8298,-0.8282,-0.8311,-0.8335,-0.8374,-0.8399,-0.8399,-0.8243,-0.762,-0.6528,-0.53,-0.4569,-0.4437,-0.4437,-0.4431,-0.442,-0.4437,-0.442,-0.4437,-0.4391,-0.4392,-0.4431,-0.4424,-0.4409,-0.4369,-0.4353,-0.4346,-0.4263,-0.4185,-0.4079,-0.3983,-0.3945,-0.3905,-0.3825,-0.3964,-0.4061,-0.4055,-0.4192,-0.4556,-0.4977,-0.4811,-0.4515,-0.4356,-0.4313,-0.4176,-0.4099,-0.4303,-0.4387,-0.4167,-0.4068,-0.3974,-0.3942,-0.4249,-0.4514,-0.4664,-0.457,-0.4528,-0.4574,-0.4399,-0.4449,-0.4698,-0.4309,-0.3904,-0.3673,-0.3679,-0.3675,-0.352,-0.3479,-0.349,-0.352,-0.3582,-0.3537,-0.3483,-0.358,-0.3417,-0.284,-0.1782,-0.1298,-0.154,-0.2055,-0.2781,-0.2938,0.0503,0.4105,0.4457,0.3786,0.2469,-1.4179,-1.4023,-1.2801,-1.2231,-1.2271,-1.2475,-1.2591,-1.2591,-1.261,-1.261,-1.2684,-1.2668,-1.2668,-1.2649,-1.2665,-1.2614,-1.2646,-1.2546,-1.1777,-1.0624,-1.0447,-0.9709,-0.8444,-0.8196,-0.8125,-0.8106,-0.8016,-0.7956,-0.7941,-0.7927,-0.8012,-0.8131,-0.8306,-0.8374,-0.8323,-0.7744,-0.7346,-0.7187,-0.5851,-0.4833,-0.4262,-0.4236,-0.4214,-0.4224,-0.4236,-0.423,-0.4249,-0.4214,-0.4236,-0.422,-0.4239,-0.422,-0.4214,-0.4204,-0.4214,-0.4198,-0.4015,-0.3855,-0.3667,-0.3485,-0.3438,-0.3516,-0.3461,-0.3623,-0.4065,-0.4085,-0.4298,-0.4756,-0.5199,-0.4978,-0.4385,-0.4718,-0.4778,-0.4339,-0.4741,-0.5013,-0.4541,-0.4451,-0.4349,-0.4105,-0.4154,-0.4457,-0.5021,-0.4747,-0.4548,-0.4724,-0.4601,-0.4512,-0.4522,-0.4229,-0.3852,-0.3503,-0.3396,-0.3297,-0.3195,-0.3103,-0.3017,-0.2982,-0.2939,-0.2847,-0.2788,-0.2954,-0.2997,-0.1873,-0.0807,-0.0287,-0.0343,-0.0378,-0.0543,-0.0949,0.1432,0.4432,0.4473,0.4303,0.3593,-1.3381,-1.3328,-1.2377,-1.1961,-1.1982,-1.2071,-1.2113,-1.2128,-1.2113,-1.2133,-1.2113,-1.2133,-1.2215,-1.2372,-1.2372,-1.2372,-1.2336,-1.221,-1.1486,-1.0363,-1.0197,-0.942,-0.8188,-0.8025,-0.7929,-0.7826,-0.7871,-0.7739,-0.7516,-0.7486,-0.7606,-0.7782,-0.7883,-0.7968,-0.8065,-0.7805,-0.747,-0.704,-0.6394,-0.5545,-0.466,-0.4325,-0.4217,-0.4217,-0.4217,-0.4217,-0.4205,-0.4159,-0.4159,-0.4198,-0.4158,-0.4098,-0.4032,-0.4019,-0.3955,-0.3847,-0.3625,-0.3431,-0.3302,-0.3224,-0.3115,-0.2916,-0.3193,-0.3385,-0.3391,-0.3742,-0.3936,-0.3747,-0.4174,-0.4378,-0.4272,-0.4425,-0.4476,-0.4399,-0.4658,-0.4733,-0.4486,-0.445,-0.4315,-0.4023,-0.4374,-0.4641,-0.4675,-0.447,-0.4296,-0.4292,-0.4135,-0.4026,-0.4064,-0.3692,-0.3316,-0.3078,-0.2846,-0.2817,-0.2956,-0.2678,-0.2466,-0.2367,-0.231,-0.2198,-0.2119,-0.231,-0.2197,-0.1098,-0.0032,0.0519,0.0277,0.0722,0.0931,0.1026,0.2327,0.4697,0.444,0.4627,0.4437,-1.2887,-1.2648,-1.1901,-1.1549,-1.1549,-1.1549,-1.1564,-1.1549,-1.1549,-1.1549,-1.1564,-1.1549,-1.1659,-1.1839,-1.2003,-1.2045,-1.1946,-1.1833,-1.1293,-1.0402,-1.004,-0.925,-0.8138,-0.7871,-0.7709,-0.7538,-0.7634,-0.7531,-0.7241,-0.7209,-0.7301,-0.747,-0.7485,-0.7561,-0.7695,-0.7709,-0.7475,-0.7008,-0.6684,-0.6005,-0.5054,-0.4479,-0.4172,-0.406,-0.4022,-0.4035,-0.4035,-0.3998,-0.3976,-0.4022,-0.4008,-0.3943,-0.3811,-0.3765,-0.3636,-0.3418,-0.318,-0.303,-0.2938,-0.288,-0.2707,-0.2436,-0.2789,-0.2875,-0.274,-0.322,-0.332,-0.2815,-0.2963,-0.3369,-0.3841,-0.3967,-0.4159,-0.4474,-0.4712,-0.4798,-0.4503,-0.4463,-0.4292,-0.3983,-0.4314,-0.4641,-0.423,-0.4095,-0.4023,-0.3687,-0.3472,-0.3341,-0.3441,-0.3083,-0.2765,-0.2626,-0.2258,-0.2208,-0.264,-0.2344,-0.1927,-0.1621,-0.1535,-0.1452,-0.1352,-0.1501,-0.1422,-0.0363,0.0725,0.1253,0.1051,0.1428,0.2025,0.2513,0.3682,0.4905,0.4633,0.4865,0.493,-1.316,-1.2539,-1.143,-1.0968,-1.0944,-1.0968,-1.0944,-1.0968,-1.0944,-1.0944,-1.093,-1.093,-1.0944,-1.0963,-1.149,-1.1601,-1.1423,-1.1637,-1.1359,-1.0663,-1.0107,-0.9376,-0.8481,-0.7901,-0.7484,-0.7233,-0.7241,-0.7225,-0.7148,-0.7164,-0.7209,-0.7209,-0.7193,-0.7209,-0.7241,-0.7227,-0.7213,-0.7073,-0.6558,-0.5996,-0.5335,-0.4649,-0.4065,-0.3701,-0.3644,-0.3645,-0.363,-0.3614,-0.3636,-0.3628,-0.3709,-0.3693,-0.3612,-0.3434,-0.3222,-0.2959,-0.2801,-0.2663,-0.251,-0.2375,-0.2171,-0.2017,-0.2043,-0.1987,-0.1815,-0.2314,-0.249,-0.222,-0.2032,-0.2273,-0.3021,-0.3624,-0.4175,-0.4746,-0.5373,-0.5282,-0.4647,-0.454,-0.4354,-0.3991,-0.3939,-0.3957,-0.3912,-0.3912,-0.3584,-0.3235,-0.3093,-0.2952,-0.2704,-0.2624,-0.2433,-0.2118,-0.1734,-0.1499,-0.1896,-0.1639,-0.1273,-0.0919,-0.0645,-0.059,-0.0447,-0.0308,-0.0088,0.0283,0.112,0.162,0.171,0.2095,0.2697,0.3365,0.4263,0.4996,0.5341,0.5048,0.4977,-1.2416,-1.1518,-1.109,-1.0897,-1.0897,-1.0897,-1.0763,-1.0543,-1.053,-1.0381,-1.0207,-1.0207,-1.007,-0.9907,-1.0328,-1.0705,-1.1024,-1.1164,-1.0869,-1.0207,-0.9645,-0.8958,-0.8243,-0.7633,-0.7147,-0.689,-0.6924,-0.6855,-0.6545,-0.6421,-0.6433,-0.657,-0.6558,-0.6625,-0.673,-0.6746,-0.6763,-0.6694,-0.6153,-0.5708,-0.5347,-0.4474,-0.3847,-0.3611,-0.3533,-0.3485,-0.3485,-0.3468,-0.3468,-0.3468,-0.3578,-0.3528,-0.329,-0.305,-0.279,-0.2549,-0.2423,-0.2269,-0.2026,-0.1981,-0.169,-0.1181,-0.1218,-0.1099,-0.0808,-0.1062,-0.1262,-0.1128,-0.1311,-0.1745,-0.2432,-0.3201,-0.3909,-0.4442,-0.4723,-0.479,-0.4498,-0.4397,-0.4272,-0.3933,-0.3619,-0.3387,-0.3262,-0.3048,-0.2688,-0.2337,-0.2072,-0.1851,-0.1595,-0.1397,-0.1238,-0.1062,-0.0748,-0.0534,-0.0639,-0.0578,-0.0316,0.0015,0.0265,0.0222,0.0294,0.0303,0.0456,0.1206,0.1878,0.2412,0.2672,0.2792,0.3428,0.4619,0.5514,0.6158,0.6388,0.5862,0.5396,-1.1491,-1.0534,-1.03,-1.0222,-1.0222,-1.0222,-1.0059,-0.983,-0.983,-0.9689,-0.951,-0.9484,-0.9339,-0.9204,-0.9365,-0.9741,-1.0247,-1.0543,-1.0471,-0.999,-0.9435,-0.8756,-0.8005,-0.7361,-0.6894,-0.6618,-0.6693,-0.659,-0.6304,-0.6023,-0.5961,-0.6106,-0.6011,-0.6046,-0.6148,-0.6183,-0.6183,-0.6094,-0.5857,-0.5599,-0.5232,-0.4478,-0.3877,-0.361,-0.3407,-0.3244,-0.3186,-0.3196,-0.317,-0.3135,-0.3276,-0.3145,-0.2685,-0.2566,-0.24,-0.217,-0.1988,-0.1868,-0.1714,-0.1509,-0.0982,-0.0216,-0.0316,-0.0243,0.0221,0.0111,-0.0022,-0.02,-0.0535,-0.1108,-0.1826,-0.2533,-0.3277,-0.3991,-0.4244,-0.4244,-0.4163,-0.4073,-0.3881,-0.3564,-0.309,-0.2757,-0.2495,-0.2147,-0.1738,-0.1306,-0.1084,-0.0909,-0.0643,-0.0444,-0.0155,0.0,0.0242,0.033,0.0362,0.0546,0.0941,0.1296,0.1177,0.1103,0.1115,0.108,0.1334,0.2106,0.277,0.3324,0.3606,0.3674,0.4579,0.5849,0.6875,0.7644,0.7255,0.654,0.6361,-1.0485,-0.9608,-0.9046,-0.8942,-0.8996,-0.8996,-0.886,-0.8887,-0.8844,-0.8805,-0.8701,-0.8723,-0.8618,-0.8684,-0.8618,-0.8778,-0.9027,-0.9677,-1.0032,-1.004,-0.9484,-0.8697,-0.7821,-0.7142,-0.6628,-0.6367,-0.6436,-0.6408,-0.626,-0.59,-0.5741,-0.5778,-0.5534,-0.544,-0.5478,-0.5478,-0.5478,-0.5494,-0.5559,-0.5492,-0.5095,-0.4545,-0.4068,-0.3629,-0.3287,-0.3006,-0.2755,-0.2787,-0.2747,-0.2627,-0.2763,-0.25,-0.1951,-0.1974,-0.2005,-0.1782,-0.1482,-0.1471,-0.16,-0.0892,-0.0081,0.0728,0.0621,0.0578,0.0889,0.1025,0.0892,0.0467,0.0111,-0.0376,-0.1121,-0.1633,-0.2397,-0.3605,-0.3971,-0.3999,-0.3841,-0.3633,-0.3347,-0.2965,-0.2483,-0.1909,-0.1427,-0.1191,-0.0905,-0.0398,-0.0266,-0.0244,0.0022,0.0177,0.0353,0.0772,0.1121,0.1252,0.1435,0.1683,0.2198,0.2568,0.2249,0.2049,0.2194,0.2212,0.2392,0.3076,0.4109,0.4635,0.429,0.4543,0.5888,0.7112,0.8119,0.8688,0.815,0.7606,0.7736,-0.9954,-0.9063,-0.8884,-0.8789,-0.8789,-0.8789,-0.8679,-0.8439,-0.8174,-0.7907,-0.7608,-0.7336,-0.7209,-0.7209,-0.7209,-0.754,-0.8011,-0.8108,-0.8448,-0.9068,-0.8649,-0.8241,-0.7777,-0.7014,-0.6209,-0.5582,-0.5148,-0.5009,-0.5029,-0.4889,-0.4796,-0.4776,-0.4736,-0.4677,-0.4697,-0.4677,-0.4677,-0.465,-0.4465,-0.4411,-0.4446,-0.3852,-0.3515,-0.3624,-0.3271,-0.2946,-0.2767,-0.2567,-0.2532,-0.2678,-0.2507,-0.2118,-0.1609,-0.1582,-0.1559,-0.1322,-0.1061,-0.0836,-0.0743,-0.0195,0.0748,0.1692,0.1642,0.1532,0.173,0.1667,0.1449,0.1025,0.0601,0.0111,-0.0177,-0.0795,-0.1686,-0.2944,-0.3135,-0.3193,-0.3066,-0.2783,-0.2634,-0.2476,-0.1829,-0.1101,-0.0531,-0.0266,-0.0044,0.0244,0.04,0.0578,0.0841,0.104,0.1345,0.1738,0.2003,0.2198,0.2272,0.2445,0.2874,0.3262,0.3136,0.2927,0.3086,0.3259,0.3483,0.4046,0.51,0.5528,0.5188,0.5629,0.6865,0.7875,0.8623,0.8833,0.8833,0.8819,0.8788,-0.9297,-0.8432,-0.8382,-0.841,-0.8354,-0.8248,-0.8039,-0.7801,-0.7443,-0.7118,-0.6841,-0.6639,-0.651,-0.651,-0.651,-0.6781,-0.7198,-0.6904,-0.7229,-0.7846,-0.778,-0.7492,-0.7234,-0.6619,-0.6013,-0.5475,-0.5066,-0.4831,-0.4699,-0.4555,-0.439,-0.4199,-0.4142,-0.4101,-0.3999,-0.4019,-0.404,-0.407,-0.3917,-0.3902,-0.3988,-0.3531,-0.3275,-0.3393,-0.3137,-0.2906,-0.2761,-0.2342,-0.2264,-0.2469,-0.2241,-0.1816,-0.1364,-0.1332,-0.1236,-0.0949,-0.0589,-0.0268,0.0,0.0565,0.1353,0.2285,0.2285,0.2198,0.2328,0.2198,0.2,0.1626,0.1281,0.0881,0.0606,0.0143,-0.0696,-0.1661,-0.2252,-0.2372,-0.2224,-0.2003,-0.1854,-0.1661,-0.1086,-0.0266,0.0466,0.0643,0.0822,0.0912,0.1112,0.1336,0.1576,0.1799,0.2141,0.2483,0.2783,0.2917,0.2971,0.3226,0.3556,0.3827,0.3978,0.3824,0.3829,0.3974,0.4176,0.484,0.5763,0.6219,0.6033,0.643,0.7328,0.8195,0.8998,0.9135,0.9206,0.9488,0.9544,-0.847,-0.7686,-0.7627,-0.7627,-0.7598,-0.7266,-0.7148,-0.702,-0.6669,-0.6488,-0.6457,-0.6366,-0.6358,-0.6397,-0.6305,-0.6397,-0.6457,-0.6388,-0.6388,-0.6554,-0.6635,-0.6474,-0.6011,-0.5752,-0.5566,-0.5475,-0.5448,-0.533,-0.4861,-0.4579,-0.4409,-0.3822,-0.3759,-0.3696,-0.35,-0.3473,-0.3563,-0.3709,-0.3763,-0.3756,-0.3729,-0.3481,-0.326,-0.3036,-0.2914,-0.2804,-0.2646,-0.2178,-0.1942,-0.2115,-0.1946,-0.1629,-0.1309,-0.1148,-0.0906,-0.0598,-0.0058,0.0363,0.0751,0.1315,0.1975,0.2529,0.2676,0.2751,0.2738,0.2737,0.2628,0.2362,0.2183,0.1852,0.1396,0.1076,0.0596,-0.0163,-0.1265,-0.1651,-0.1306,-0.1178,-0.1108,-0.0889,-0.0334,0.051,0.1579,0.1551,0.1595,0.173,0.1843,0.1975,0.2254,0.2514,0.2751,0.3108,0.3466,0.3515,0.3542,0.3605,0.3971,0.4639,0.4756,0.4573,0.4423,0.4513,0.4923,0.5614,0.6194,0.6659,0.6974,0.7197,0.7748,0.862,0.9144,0.9402,0.9588,0.9774,0.9949,-0.7592,-0.6837,-0.6829,-0.6829,-0.6798,-0.67,-0.6661,-0.6601,-0.6244,-0.6068,-0.6006,-0.5727,-0.5672,-0.5617,-0.5609,-0.5758,-0.5882,-0.5734,-0.5571,-0.5487,-0.53,-0.5357,-0.5232,-0.4831,-0.4454,-0.4235,-0.4171,-0.3792,-0.368,-0.3587,-0.3358,-0.3173,-0.3067,-0.3004,-0.2934,-0.2891,-0.295,-0.2998,-0.3014,-0.2896,-0.2688,-0.2602,-0.2521,-0.2457,-0.2471,-0.2567,-0.2611,-0.2122,-0.1818,-0.1883,-0.1747,-0.1465,-0.101,-0.0725,-0.0425,-0.0019,0.051,0.1032,0.1451,0.1858,0.2433,0.3089,0.307,0.3084,0.329,0.3301,0.3243,0.3164,0.3122,0.29,0.2458,0.2116,0.1552,0.0686,-0.0231,-0.0654,-0.0287,-0.0115,-0.0222,-0.0624,0.0444,0.1541,0.2227,0.2376,0.2311,0.2403,0.2485,0.2584,0.2853,0.3087,0.3298,0.3744,0.406,0.4081,0.4089,0.4089,0.4478,0.5337,0.5472,0.5224,0.5011,0.4856,0.5463,0.6171,0.6684,0.7141,0.7276,0.7446,0.8265,0.8977,0.9331,0.9581,0.9621,0.9761,0.9919,-0.6927,-0.651,-0.651,-0.651,-0.648,-0.6336,-0.6244,-0.6152,-0.582,-0.5648,-0.5585,-0.5435,-0.5214,-0.5023,-0.5023,-0.5011,-0.5068,-0.4858,-0.4724,-0.4616,-0.4264,-0.4308,-0.4478,-0.4205,-0.3916,-0.3746,-0.3531,-0.3336,-0.311,-0.2932,-0.2662,-0.2299,-0.2299,-0.226,-0.2096,-0.2108,-0.2207,-0.2272,-0.2211,-0.2011,-0.1851,-0.1829,-0.1742,-0.1701,-0.173,-0.1843,-0.1862,-0.1601,-0.163,-0.1876,-0.1523,-0.0929,-0.0551,-0.0247,0.0117,0.0493,0.1052,0.1567,0.1941,0.232,0.2783,0.3248,0.3375,0.3553,0.371,0.3786,0.3852,0.37,0.3607,0.333,0.299,0.2543,0.2104,0.1685,0.1135,0.0834,0.0938,0.1033,0.0808,0.071,0.1319,0.2502,0.3254,0.3101,0.2907,0.2879,0.2962,0.3144,0.3361,0.3577,0.3884,0.4354,0.4564,0.4555,0.4607,0.4628,0.5151,0.6003,0.6131,0.5881,0.5693,0.542,0.5775,0.6433,0.7066,0.7517,0.7591,0.7814,0.84,0.9009,0.9421,0.968,0.9717,0.9774,0.993,-0.6427,-0.6374,-0.6374,-0.6366,-0.6275,-0.5944,-0.5727,-0.5672,-0.5365,-0.5214,-0.5214,-0.5214,-0.4985,-0.4602,-0.4602,-0.4371,-0.4053,-0.4156,-0.4026,-0.3821,-0.349,-0.3366,-0.3658,-0.3616,-0.3547,-0.3497,-0.3714,-0.3213,-0.2679,-0.2608,-0.2179,-0.1647,-0.1646,-0.1557,-0.1422,-0.133,-0.1435,-0.1617,-0.1507,-0.1328,-0.124,-0.1218,-0.1132,-0.0999,-0.1046,-0.107,-0.1023,-0.0959,-0.1282,-0.2302,-0.109,-0.0307,0.0066,0.042,0.0638,0.1049,0.1555,0.205,0.2333,0.2815,0.3192,0.3437,0.3884,0.4186,0.4315,0.4477,0.4482,0.4383,0.3916,0.3714,0.3342,0.2684,0.256,0.2669,0.2603,0.2454,0.2314,0.2201,0.2116,0.2052,0.2483,0.3259,0.3817,0.3846,0.335,0.3728,0.3815,0.4103,0.4305,0.4476,0.4724,0.5035,0.5089,0.5001,0.5093,0.5164,0.5911,0.6655,0.6652,0.6528,0.6459,0.6291,0.6253,0.66,0.7223,0.7636,0.784,0.8198,0.8606,0.8998,0.9403,0.962,0.9773,0.985,0.9965,-0.582,-0.5554,-0.5554,-0.5554,-0.5484,-0.5106,-0.4884,-0.4884,-0.4788,-0.4762,-0.4756,-0.4762,-0.466,-0.4538,-0.4248,-0.4058,-0.3923,-0.3858,-0.3826,-0.336,-0.2606,-0.2341,-0.2441,-0.2477,-0.2474,-0.2405,-0.2068,-0.1819,-0.1687,-0.1625,-0.1399,-0.1195,-0.1071,-0.1062,-0.0988,-0.0946,-0.1017,-0.1084,-0.0985,-0.0852,-0.065,-0.0624,-0.0556,-0.0489,-0.069,-0.0847,-0.0825,-0.0646,-0.0535,-0.0535,-0.0422,0.02,0.1025,0.1152,0.1238,0.1595,0.2124,0.2611,0.2924,0.326,0.3709,0.4221,0.4587,0.5047,0.5578,0.5272,0.5297,0.5325,0.513,0.4579,0.4119,0.3819,0.356,0.3547,0.3607,0.3709,0.3843,0.3495,0.3282,0.3532,0.3663,0.3947,0.4583,0.4707,0.451,0.4617,0.4815,0.5159,0.5276,0.5319,0.5474,0.565,0.5694,0.5621,0.5547,0.5823,0.6687,0.7233,0.7216,0.7237,0.7166,0.6967,0.6864,0.7019,0.7393,0.7782,0.8326,0.8195,0.8547,0.8949,0.9439,0.9909,1.0202,1.0151,0.9995,-0.5169,-0.496,-0.4762,-0.4666,-0.4634,-0.4409,-0.4312,-0.4312,-0.4312,-0.4312,-0.4312,-0.4312,-0.4215,-0.3978,-0.3756,-0.3597,-0.3368,-0.3134,-0.2937,-0.257,-0.1976,-0.1673,-0.1609,-0.151,-0.1444,-0.1575,-0.1471,-0.1238,-0.106,-0.0945,-0.0834,-0.0605,-0.0513,-0.0463,-0.0471,-0.0485,-0.047,-0.0478,-0.0482,-0.0379,-0.0237,-0.0091,0.0089,0.0156,0.0044,-0.0044,0.0,0.0111,0.0222,0.0289,0.0356,0.0781,0.1569,0.167,0.1727,0.2019,0.2415,0.3001,0.3446,0.3877,0.4328,0.4998,0.5328,0.5677,0.596,0.5797,0.574,0.5707,0.532,0.4762,0.4377,0.4151,0.4026,0.4021,0.4188,0.4377,0.4486,0.4254,0.4322,0.4746,0.4836,0.516,0.5449,0.5443,0.5418,0.5386,0.5407,0.5695,0.5732,0.5817,0.6022,0.6179,0.6261,0.6246,0.6077,0.6503,0.7415,0.7813,0.791,0.7942,0.7946,0.7669,0.7365,0.7743,0.8169,0.8682,0.9078,0.8842,0.8611,0.9055,0.962,1.0322,1.0832,1.0968,1.0614,-0.457,-0.4505,-0.4156,-0.3993,-0.3988,-0.3928,-0.3891,-0.3891,-0.3891,-0.3891,-0.3886,-0.3886,-0.3691,-0.336,-0.3126,-0.2867,-0.2474,-0.2175,-0.1976,-0.1876,-0.1473,-0.1239,-0.1139,-0.0906,-0.0772,-0.1106,-0.1005,-0.0838,-0.0638,-0.0571,-0.0332,0.0,0.0096,0.0154,0.0182,0.0206,0.0197,0.0164,0.021,0.0152,0.0174,0.033,0.0617,0.0714,0.0802,0.0747,0.0726,0.0803,0.0906,0.0865,0.1242,0.1645,0.1943,0.2027,0.2124,0.2426,0.2865,0.3469,0.41,0.455,0.5004,0.5668,0.6063,0.6261,0.6353,0.6273,0.6112,0.5767,0.5383,0.473,0.4248,0.4574,0.4486,0.449,0.4748,0.4921,0.4884,0.4909,0.5321,0.567,0.568,0.5855,0.6121,0.6203,0.6171,0.6168,0.6214,0.6238,0.6304,0.6392,0.6658,0.6858,0.6982,0.6934,0.6791,0.7202,0.8116,0.8339,0.8469,0.8609,0.8717,0.8643,0.8484,0.8671,0.9088,0.9559,0.9589,0.9171,0.911,0.936,1.0412,1.1724,1.202,1.19,1.1368,-0.4409,-0.4091,-0.4026,-0.3993,-0.3923,-0.3593,-0.3392,-0.3425,-0.336,-0.3392,-0.3392,-0.3392,-0.329,-0.3093,-0.2474,-0.1976,-0.1671,-0.1507,-0.144,-0.134,-0.1007,-0.0773,-0.0706,-0.0403,-0.0235,-0.0201,-0.0235,-0.0201,-0.0134,-0.0101,0.0168,0.0503,0.0597,0.0711,0.0934,0.1059,0.0887,0.0775,0.0861,0.0778,0.0664,0.0792,0.1004,0.1111,0.1225,0.1197,0.1106,0.1207,0.1438,0.1889,0.2127,0.2564,0.293,0.2939,0.3024,0.3245,0.3639,0.4138,0.4788,0.5132,0.5691,0.6312,0.6765,0.707,0.7183,0.7052,0.6686,0.6292,0.5771,0.5202,0.5132,0.5596,0.583,0.5862,0.6074,0.6441,0.6215,0.6199,0.6106,0.6254,0.6289,0.6424,0.6716,0.6978,0.7026,0.7046,0.7118,0.7151,0.7197,0.7303,0.7448,0.7621,0.7729,0.7654,0.7511,0.8078,0.8733,0.8831,0.898,0.9217,0.9377,0.9603,0.9676,0.9506,0.9779,1.0265,1.0088,0.9653,0.9603,0.9845,1.1474,1.3281,1.3112,1.2849,1.2482,-0.3816,-0.3626,-0.3434,-0.3335,-0.3237,-0.2838,-0.2636,-0.257,-0.2398,-0.2263,-0.2263,-0.2266,-0.2263,-0.2167,-0.1871,-0.1473,-0.1305,-0.1072,-0.1007,-0.0906,-0.0571,-0.0336,-0.0337,-0.0067,0.0134,0.0269,0.037,0.037,0.0403,0.0604,0.0771,0.094,0.1007,0.1122,0.126,0.1284,0.1356,0.1315,0.1336,0.1277,0.1119,0.1289,0.1464,0.1858,0.1985,0.2094,0.228,0.2336,0.258,0.282,0.2927,0.3242,0.3585,0.379,0.3779,0.3839,0.4074,0.4663,0.5362,0.5747,0.6197,0.7046,0.7347,0.7491,0.753,0.7314,0.7115,0.6836,0.665,0.6349,0.6607,0.6951,0.7003,0.7006,0.7248,0.7341,0.7264,0.7345,0.7192,0.6903,0.6911,0.7145,0.7502,0.7694,0.781,0.7917,0.7984,0.7966,0.7976,0.7928,0.7899,0.7889,0.7937,0.786,0.7908,0.8512,0.9116,0.9251,0.9331,0.9581,0.9738,0.9816,0.9893,0.9839,1.029,1.0857,1.0899,1.0599,1.0479,1.0543,1.2178,1.3506,1.3792,1.3737,1.3321,-0.3261,-0.3167,-0.2746,-0.255,-0.248,-0.2078,-0.1878,-0.1776,-0.1505,-0.137,-0.1305,-0.1338,-0.1371,-0.1305,-0.1238,-0.1104,-0.1039,-0.0671,-0.0571,-0.0438,-0.0034,0.0171,0.0169,0.0306,0.0545,0.0772,0.1008,0.0906,0.0873,0.1039,0.1271,0.144,0.144,0.1538,0.1632,0.1722,0.1773,0.1814,0.1858,0.1788,0.1937,0.2031,0.2274,0.2959,0.3055,0.317,0.3266,0.3311,0.3432,0.3584,0.3716,0.3856,0.4226,0.4479,0.4514,0.4422,0.4371,0.5081,0.5784,0.6293,0.6714,0.7511,0.7852,0.797,0.8029,0.7998,0.7828,0.7661,0.7446,0.7466,0.7697,0.7991,0.7947,0.793,0.7991,0.8167,0.8174,0.8271,0.8408,0.8172,0.785,0.7861,0.8174,0.8202,0.8277,0.8315,0.8382,0.8223,0.8205,0.8033,0.7976,0.7947,0.7947,0.7928,0.8138,0.8668,0.9251,0.9633,0.9607,0.9686,0.9802,0.9867,0.9906,1.0001,1.0768,1.1271,1.1408,1.1571,1.1512,1.1885,1.3038,1.3742,1.4062,1.4162,1.3894,-0.3101,-0.2746,-0.2281,-0.2081,-0.2014,-0.1575,-0.1371,-0.1373,-0.1271,-0.1305,-0.1204,-0.1271,-0.1239,-0.1143,-0.0842,-0.0505,-0.0237,-0.0034,0.0069,0.0138,0.0566,0.0741,0.072,0.1203,0.1229,0.1348,0.1635,0.1542,0.1456,0.1421,0.1573,0.1845,0.1945,0.2078,0.2408,0.2341,0.2543,0.2639,0.2871,0.3125,0.3349,0.3249,0.3289,0.3442,0.3612,0.3688,0.371,0.3753,0.3873,0.4258,0.4308,0.4604,0.5053,0.5159,0.5397,0.5571,0.5747,0.5907,0.641,0.6771,0.7191,0.7881,0.8429,0.8816,0.8972,0.9223,0.934,0.9542,0.8918,0.8534,0.8651,0.8766,0.8657,0.8757,0.8929,0.9043,0.906,0.9281,0.9421,0.9588,0.934,0.8868,0.88,0.8748,0.8734,0.8773,0.8767,0.8655,0.8432,0.8313,0.8111,0.8091,0.8166,0.8138,0.8033,0.8623,0.9339,0.9853,0.9866,0.9814,0.9841,0.9905,0.9919,1.0183,1.0963,1.1415,1.1392,1.1666,1.222,1.2692,1.3143,1.3748,1.4362,1.4362,1.4252,-0.2239,-0.2247,-0.1809,-0.1607,-0.154,-0.1139,-0.0973,-0.0906,-0.067,-0.0569,-0.057,-0.057,-0.0579,-0.0487,-0.0035,0.0286,0.0547,0.084,0.1025,0.0985,0.1266,0.1381,0.1409,0.1608,0.1708,0.202,0.2161,0.2362,0.2203,0.217,0.2245,0.2323,0.242,0.2577,0.2937,0.2815,0.3043,0.3306,0.3556,0.3692,0.3807,0.3793,0.3819,0.4092,0.421,0.4303,0.446,0.4538,0.4638,0.4981,0.5136,0.5408,0.5665,0.582,0.606,0.6221,0.6734,0.6904,0.6932,0.7292,0.7814,0.844,0.9098,0.9531,0.9817,1.0109,1.0419,1.0565,1.0218,0.996,0.9884,1.0056,0.9834,0.9797,0.9768,0.9933,1.0025,1.0273,1.0467,1.0672,1.0809,1.0332,0.9977,1.0029,1.0079,1.0089,0.998,0.9802,0.9286,0.8736,0.8488,0.8244,0.8365,0.8467,0.828,0.841,0.9314,0.9835,0.9993,0.9916,0.9892,0.9905,0.9969,1.0199,1.078,1.1113,1.1313,1.1623,1.2071,1.2517,1.298,1.3523,1.4046,1.4301,1.4257,-0.1373,-0.1646,-0.1306,-0.1138,-0.1106,-0.0705,-0.0538,-0.0471,-0.0202,0.0,0.0,0.0101,0.0173,0.0324,0.0727,0.1036,0.1125,0.1598,0.1754,0.1835,0.1969,0.2004,0.2027,0.2114,0.2363,0.2623,0.2621,0.2739,0.2879,0.2894,0.2749,0.2791,0.2765,0.2916,0.3094,0.3136,0.3344,0.4038,0.404,0.4139,0.4325,0.4292,0.4469,0.4652,0.4826,0.4985,0.5365,0.5282,0.5275,0.5858,0.6277,0.6506,0.6545,0.6723,0.6908,0.7134,0.7584,0.7788,0.783,0.8118,0.8594,0.9213,1.0003,1.0651,1.1184,1.1181,1.123,1.1686,1.1446,1.1393,1.13,1.1153,1.0689,1.0452,1.0426,1.0705,1.096,1.1099,1.1314,1.1582,1.1742,1.1883,1.1592,1.154,1.1528,1.1479,1.129,1.0931,1.0224,0.9414,0.9066,0.8835,0.8929,0.9095,0.9073,0.9085,0.9704,1.0,1.0164,1.0307,1.0433,1.0232,1.0159,1.0443,1.0828,1.1362,1.188,1.1873,1.1903,1.263,1.3192,1.3295,1.3622,1.3966,1.4257,-0.0739,-0.0773,-0.0739,-0.0739,-0.0706,-0.0235,0.0,0.0,0.0,0.0,0.0,0.044,0.0732,0.0941,0.1332,0.1662,0.1718,0.1792,0.1973,0.2123,0.2314,0.2528,0.2642,0.2815,0.3067,0.306,0.3073,0.3063,0.3137,0.3268,0.3128,0.3086,0.3219,0.3142,0.3331,0.3677,0.3942,0.447,0.4523,0.4727,0.4979,0.5067,0.5118,0.5156,0.5277,0.5428,0.5797,0.5686,0.5865,0.6722,0.7353,0.7573,0.7535,0.7612,0.7806,0.8045,0.8273,0.8505,0.8699,0.9081,0.9505,1.0026,1.0853,1.1898,1.2421,1.2824,1.2995,1.2874,1.256,1.2377,1.2092,1.1689,1.1271,1.1019,1.0954,1.1094,1.1383,1.1791,1.2022,1.2401,1.2563,1.2599,1.2629,1.2411,1.2201,1.2114,1.1819,1.1467,1.0865,1.0155,0.9819,0.9611,0.9678,0.9846,1.0118,1.0538,1.1275,1.1151,1.1007,1.1148,1.1274,1.0988,1.0588,1.0919,1.1415,1.1935,1.2375,1.2423,1.2604,1.3069,1.3464,1.3711,1.3769,1.4016,1.4266,-0.0269,-0.0269,-0.0269,-0.0269,-0.0269,-0.0067,0.0,0.0,0.0,0.024,0.0562,0.1025,0.1269,0.1477,0.1971,0.2245,0.2292,0.278,0.2831,0.2944,0.315,0.3193,0.3265,0.3302,0.3417,0.344,0.3437,0.3647,0.3902,0.3855,0.4177,0.4222,0.3937,0.3893,0.4081,0.4469,0.4825,0.4857,0.4995,0.5164,0.5214,0.5309,0.5309,0.5309,0.5617,0.5851,0.6241,0.6682,0.686,0.7273,0.816,0.8417,0.8448,0.8483,0.8623,0.88,0.8986,0.9197,0.942,0.9932,1.0457,1.1469,1.2219,1.2858,1.3254,1.3446,1.3581,1.3555,1.3433,1.317,1.2787,1.2318,1.1872,1.159,1.1479,1.1542,1.1788,1.2164,1.2496,1.2719,1.2931,1.3042,1.3088,1.3101,1.2876,1.2697,1.2341,1.1962,1.1392,1.0953,1.064,1.0493,1.0558,1.0866,1.1148,1.1983,1.2835,1.2379,1.1844,1.1839,1.1864,1.158,1.1316,1.1625,1.1976,1.2516,1.2848,1.2977,1.3091,1.3088,1.3658,1.4353,1.4335,1.4225,1.4397,0.0101,0.0202,0.0202,0.0134,0.0034,0.0134,0.0202,0.0235,0.0,0.0656,0.1123,0.1562,0.1848,0.2069,0.255,0.2878,0.2955,0.329,0.351,0.3565,0.3514,0.3578,0.3578,0.3612,0.3679,0.3751,0.3884,0.4117,0.4612,0.4687,0.4833,0.4956,0.4938,0.4853,0.4837,0.5347,0.5585,0.5516,0.5508,0.5578,0.5598,0.5598,0.5611,0.5685,0.605,0.6456,0.6955,0.745,0.7894,0.8254,0.8852,0.9349,0.9343,0.9262,0.9349,0.9482,0.9609,0.9842,1.01,1.0568,1.1369,1.24,1.281,1.3182,1.3446,1.3735,1.3835,1.4065,1.3954,1.3729,1.3289,1.2777,1.2354,1.1993,1.1909,1.1945,1.2198,1.2508,1.2766,1.3035,1.3163,1.321,1.321,1.321,1.3123,1.2892,1.2558,1.2289,1.2056,1.1698,1.1536,1.1476,1.1518,1.1863,1.2299,1.2714,1.301,1.2897,1.2467,1.2354,1.2266,1.2027,1.2015,1.2271,1.2665,1.3122,1.3391,1.3614,1.3223,1.2756,1.376,1.4987,1.4833,1.4737,1.4744,0.0269,0.0673,0.0706,0.0437,0.0203,0.0505,0.071,0.0787,0.1124,0.1401,0.1656,0.2061,0.2389,0.2675,0.307,0.3256,0.3364,0.3507,0.3667,0.3707,0.3751,0.3667,0.3755,0.3888,0.41,0.4347,0.4434,0.47,0.5308,0.5265,0.5351,0.5604,0.5767,0.5781,0.5407,0.5547,0.5872,0.6105,0.6156,0.6088,0.6062,0.6041,0.6035,0.6271,0.6639,0.7064,0.7694,0.8236,0.8718,0.9288,0.9678,1.0039,1.0029,1.0059,1.0116,1.0165,1.0243,1.0522,1.0939,1.1472,1.2175,1.2896,1.3163,1.3357,1.3715,1.398,1.4163,1.442,1.4259,1.4019,1.3609,1.3135,1.2801,1.2508,1.2425,1.2425,1.2638,1.2779,1.3,1.3116,1.3163,1.321,1.321,1.321,1.321,1.3022,1.2708,1.2555,1.2483,1.2388,1.2222,1.2231,1.2258,1.2467,1.2789,1.2976,1.316,1.3123,1.3023,1.281,1.2797,1.2747,1.2822,1.296,1.3074,1.3313,1.3828,1.4314,1.4027,1.3938,1.4707,1.5534,1.5365,1.5412,1.5641,0.0705,0.1106,0.1106,0.1095,0.1094,0.1238,0.1332,0.1481,0.1865,0.2178,0.2386,0.2759,0.2989,0.3233,0.3318,0.348,0.3449,0.3602,0.3711,0.4092,0.4136,0.4456,0.4548,0.4626,0.4757,0.4932,0.5058,0.5308,0.5873,0.5873,0.6167,0.6422,0.6465,0.6592,0.6456,0.6391,0.6362,0.6406,0.6317,0.6189,0.6203,0.6253,0.6401,0.6768,0.7248,0.7779,0.8412,0.8957,0.9493,0.9951,1.0258,1.0309,1.0312,1.0322,1.0322,1.0428,1.0544,1.1169,1.1726,1.2234,1.2544,1.299,1.3245,1.3425,1.3835,1.4163,1.4483,1.4797,1.4766,1.4564,1.4232,1.3776,1.3421,1.3047,1.2943,1.2943,1.3047,1.3094,1.3198,1.3198,1.321,1.321,1.321,1.321,1.321,1.321,1.2943,1.2943,1.2894,1.2928,1.2867,1.2867,1.2945,1.3054,1.321,1.321,1.321,1.3173,1.316,1.3098,1.316,1.321,1.3185,1.3085,1.3238,1.3459,1.413,1.4738,1.5139,1.5457,1.5695,1.5911,1.5873,1.6331,1.7045,0.1139,0.154,0.154,0.1783,0.2029,0.1901,0.1978,0.2286,0.2578,0.2768,0.295,0.322,0.3385,0.3446,0.3557,0.3591,0.3442,0.3778,0.3968,0.443,0.4648,0.4879,0.5145,0.5361,0.5346,0.5534,0.5663,0.5922,0.6428,0.6477,0.6647,0.6852,0.6972,0.6888,0.6857,0.676,0.6707,0.6693,0.6593,0.6676,0.6786,0.6926,0.7104,0.7592,0.8106,0.8595,0.9094,0.9592,0.998,1.0244,1.0322,1.0322,1.0322,1.0322,1.04,1.0611,1.1196,1.1799,1.2282,1.2685,1.2908,1.3163,1.321,1.3425,1.3835,1.4117,1.4564,1.4907,1.5209,1.5043,1.4721,1.431,1.3802,1.3412,1.3232,1.3232,1.3163,1.321,1.3232,1.3232,1.3267,1.3232,1.321,1.321,1.321,1.321,1.321,1.321,1.321,1.321,1.321,1.321,1.3198,1.321,1.321,1.321,1.321,1.321,1.321,1.321,1.321,1.321,1.321,1.321,1.3301,1.3615,1.4483,1.5091,1.5433,1.565,1.574,1.5983,1.6231,1.6696,1.7272,0.1573,0.1978,0.2014,0.2422,0.2914,0.248,0.2581,0.3066,0.3108,0.3196,0.3364,0.3458,0.3606,0.3635,0.3667,0.37,0.373,0.4172,0.4478,0.4696,0.513,0.5351,0.548,0.5567,0.5856,0.6095,0.6277,0.6428,0.6937,0.6852,0.6894,0.6979,0.6972,0.7063,0.7078,0.7141,0.7107,0.7114,0.7093,0.733,0.7606,0.7817,0.8046,0.8508,0.8976,0.9259,0.9653,0.9963,1.0186,1.0322,1.0322,1.0322,1.0322,1.0322,1.0572,1.1132,1.1909,1.2318,1.2615,1.2943,1.3094,1.321,1.321,1.3493,1.3802,1.4084,1.4501,1.4998,1.5389,1.5299,1.5118,1.4533,1.3954,1.3635,1.3391,1.3301,1.3245,1.3245,1.3267,1.3288,1.3323,1.3335,1.3245,1.321,1.321,1.321,1.321,1.321,1.321,1.321,1.321,1.321,1.321,1.321,1.321,1.321,1.321,1.321,1.321,1.321,1.321,1.321,1.321,1.3245,1.3301,1.3735,1.4596,1.5239,1.5668,1.5814,1.5814,1.5885,1.608,1.6024,1.6485,0.2078,0.248,0.248,0.2743,0.3085,0.3181,0.3285,0.3442,0.3449,0.3691,0.4101,0.4097,0.4125,0.4176,0.4176,0.418,0.422,0.4439,0.5048,0.5437,0.5782,0.6167,0.6337,0.6416,0.6622,0.6664,0.6755,0.6774,0.6937,0.6972,0.6972,0.6979,0.6972,0.7189,0.7447,0.7621,0.7621,0.7621,0.7614,0.7938,0.8267,0.8447,0.8756,0.9199,0.9448,0.9677,1.004,1.0166,1.0322,1.0322,1.0322,1.0322,1.0322,1.0361,1.0572,1.1505,1.2174,1.2603,1.2931,1.3129,1.321,1.321,1.321,1.3459,1.3769,1.4019,1.4342,1.4876,1.5448,1.5477,1.5195,1.469,1.4214,1.3901,1.3581,1.3267,1.321,1.321,1.3267,1.3425,1.3446,1.3357,1.3267,1.321,1.321,1.321,1.321,1.321,1.321,1.321,1.321,1.321,1.321,1.321,1.321,1.321,1.321,1.321,1.321,1.321,1.321,1.321,1.321,1.3301,1.3446,1.3986,1.469,1.5269,1.5785,1.5814,1.5814,1.5856,1.5913,1.5856,1.5926,0.2447,0.2679,0.2679,0.2852,0.3183,0.3694,0.3924,0.3924,0.3924,0.4224,0.4739,0.4774,0.4739,0.4783,0.4739,0.4783,0.4783,0.5135,0.5572,0.5916,0.6392,0.6641,0.6894,0.6972,0.693,0.6972,0.6972,0.6937,0.6972,0.6972,0.6972,0.6972,0.6972,0.7231,0.744,0.7697,0.7995,0.8036,0.8152,0.8439,0.8683,0.8886,0.9159,0.9637,0.9804,1.001,1.0244,1.0322,1.0322,1.0322,1.0322,1.0322,1.0428,1.0659,1.1169,1.2066,1.2544,1.2873,1.3129,1.3176,1.321,1.321,1.321,1.3323,1.348,1.3635,1.4149,1.469,1.5285,1.5668,1.5285,1.4876,1.4533,1.4181,1.3715,1.3245,1.321,1.321,1.3335,1.3514,1.3514,1.3391,1.3323,1.3267,1.321,1.321,1.321,1.321,1.321,1.321,1.321,1.321,1.321,1.321,1.321,1.321,1.321,1.321,1.321,1.321,1.321,1.321,1.3232,1.3459,1.3735,1.4278,1.4783,1.5359,1.5814,1.5814,1.5814,1.5842,1.5856,1.5827,1.5983,0.2679,0.2686,0.2706,0.2883,0.3222,0.3979,0.4391,0.4474,0.457,0.4826,0.5303,0.5346,0.5351,0.5346,0.5351,0.5351,0.548,0.5744,0.6002,0.6264,0.6689,0.6943,0.6937,0.6972,0.6972,0.6972,0.6972,0.6972,0.6972,0.7014,0.7014,0.7056,0.7147,0.7398,0.7765,0.8103,0.8521,0.8878,0.8675,0.8675,0.9191,0.9279,0.9288,1.0079,1.0244,1.0322,1.0322,1.0322,1.0322,1.0322,1.0302,1.0331,1.0743,1.1282,1.1982,1.2389,1.2838,1.306,1.3176,1.321,1.321,1.321,1.321,1.3232,1.3323,1.3357,1.3802,1.4596,1.5225,1.5683,1.5492,1.4907,1.447,1.4149,1.3735,1.3369,1.321,1.3279,1.3438,1.3547,1.3547,1.3446,1.3301,1.321,1.321,1.321,1.321,1.321,1.321,1.321,1.3235,1.3235,1.321,1.321,1.321,1.321,1.321,1.321,1.321,1.321,1.321,1.3232,1.3232,1.3635,1.4052,1.4374,1.4828,1.5403,1.577,1.5814,1.5814,1.5814,1.5814,1.5814,1.5885,0.2679,0.2703,0.2924,0.3025,0.3193,0.4025,0.4691,0.513,0.5567,0.583,0.5964,0.5964,0.5959,0.5959,0.5959,0.6002,0.605,0.6173,0.6428,0.6641,0.6979,0.6979,0.6972,0.6972,0.6972,0.6972,0.6972,0.7063,0.7105,0.7105,0.7273,0.7614,0.7697,0.7897,0.8537,0.8918,0.9191,0.9518,0.9359,0.9319,0.9834,0.9991,1.0118,1.0322,1.0322,1.0322,1.0322,1.0322,1.0322,1.0312,1.0319,1.0555,1.1063,1.1875,1.2318,1.2579,1.2943,1.3129,1.321,1.321,1.321,1.321,1.321,1.321,1.321,1.321,1.3628,1.4438,1.5134,1.5551,1.558,1.4982,1.4438,1.4084,1.3735,1.3493,1.321,1.3335,1.3493,1.3527,1.3547,1.3459,1.3267,1.321,1.321,1.321,1.321,1.321,1.321,1.3223,1.3298,1.3286,1.3223,1.321,1.321,1.321,1.321,1.321,1.321,1.321,1.321,1.3232,1.3288,1.3921,1.4438,1.4533,1.4797,1.5389,1.5668,1.5741,1.5814,1.5814,1.5814,1.5814,1.5814,0.272,0.285,0.3364,0.3576,0.3782,0.474,0.5394,0.5744,0.6301,0.6556,0.6562,0.6562,0.6562,0.6562,0.6556,0.6513,0.652,0.6556,0.6725,0.6937,0.6972,0.6972,0.6972,0.6972,0.6972,0.7014,0.7314,0.744,0.7363,0.7731,0.8062,0.8193,0.8275,0.8561,0.9239,0.9399,0.9677,0.9883,0.9843,1.004,1.0235,1.0118,1.0157,1.0157,1.0322,1.0322,1.0322,1.0322,1.0467,1.0687,1.0881,1.1509,1.1957,1.2377,1.2579,1.2791,1.3047,1.321,1.321,1.321,1.321,1.321,1.3223,1.3223,1.3594,1.3661,1.3848,1.4627,1.5315,1.577,1.5359,1.4814,1.4406,1.4019,1.3648,1.3301,1.321,1.3267,1.3335,1.3335,1.3357,1.3323,1.3198,1.321,1.321,1.321,1.321,1.3333,1.332,1.3471,1.3496,1.3509,1.3544,1.3333,1.321,1.321,1.321,1.321,1.321,1.321,1.321,1.3198,1.3391,1.3835,1.4181,1.4342,1.469,1.5225,1.558,1.5712,1.577,1.5814,1.5814,1.5814,1.5814,0.2836,0.3119,0.3854,0.425,0.4482,0.5646,0.6179,0.6264,0.6768,0.6972,0.6937,0.6937,0.6972,0.6972,0.6972,0.6972,0.693,0.6852,0.6979,0.6979,0.6972,0.6972,0.6972,0.6972,0.7063,0.7356,0.7731,0.778,0.7787,0.8185,0.8513,0.8675,0.8756,0.8878,0.9039,0.9319,0.9765,0.9883,1.0,1.0244,1.0127,0.9883,1.0,1.0205,1.0322,1.0322,1.0322,1.039,1.0572,1.0905,1.1356,1.21,1.2568,1.2804,1.2885,1.3047,1.3129,1.321,1.321,1.321,1.321,1.321,1.3235,1.348,1.384,1.4279,1.4509,1.4886,1.5579,1.5595,1.5178,1.4921,1.4506,1.4047,1.3638,1.3458,1.3471,1.3446,1.3446,1.3411,1.3373,1.3408,1.3521,1.3461,1.3411,1.3373,1.3408,1.3468,1.3617,1.3907,1.4083,1.4107,1.4107,1.3831,1.337,1.3261,1.3273,1.321,1.321,1.321,1.3261,1.3448,1.3541,1.348,1.3802,1.4059,1.4452,1.4968,1.5285,1.5668,1.5741,1.5814,1.5814,1.5814,1.5814,0.3071,0.3676,0.4051,0.4496,0.501,0.5857,0.6179,0.6313,0.6768,0.6972,0.6972,0.6972,0.6972,0.6972,0.6972,0.6972,0.6972,0.6972,0.6972,0.6972,0.6972,0.6972,0.7056,0.7133,0.7314,0.7731,0.8152,0.8226,0.8316,0.8553,0.8756,0.8797,0.9239,0.9518,0.9961,1.0127,1.0088,1.0118,1.0118,1.0322,1.0322,1.0205,1.0205,1.0283,1.0322,1.0322,1.0322,1.0322,1.0351,1.0697,1.1367,1.2317,1.2804,1.3097,1.3107,1.3129,1.321,1.321,1.321,1.321,1.321,1.3398,1.3556,1.3813,1.4398,1.5263,1.5448,1.5651,1.6007,1.571,1.536,1.5333,1.5019,1.439,1.389,1.4158,1.4287,1.4224,1.4186,1.4111,1.4023,1.4249,1.4576,1.45,1.435,1.4325,1.4299,1.4386,1.4699,1.4758,1.4701,1.4775,1.4787,1.4008,1.3411,1.3386,1.3373,1.3286,1.3298,1.3461,1.3661,1.3874,1.3943,1.3779,1.3684,1.3846,1.4276,1.4627,1.5299,1.5712,1.577,1.5814,1.5814,1.5814,1.5814]},{"header":{"parameterUnit":"m.s-1","parameterCategory":1,"la1":31.0,"la2":29.5877,"lo1":-88.7671,"lo2":-86.6584,"dy":0.0162,"dx":0.0185,"nx":115,"ny":88,"refTime":"2026-03-13T12:00:00:Z","depth":0,"parameterNumber":3,"parameterNumberName":"V-component_of_WINDS"},"data":[0.0,0.0,0.0,0.0,0.0,0.0,0.0,0.0,0.0,0.0,0.0,0.0,0.0,0.0,0.0,0.0,0.0,0.0,0.0,0.0,0.0,0.0,0.0,0.0,0.0,0.0,0.0,0.0,0.0,0.0,0.0,0.0,0.0,0.0,0.0,0.0,0.0,0.0,0.0,0.0,0.0,0.0,0.0,0.0,0.0,0.0,0.0,0.0,0.0,0.0,0.0,0.0,0.0,0.0,0.0,0.0,0.0,0.0,0.0,0.0,0.0,0.0,0.0,0.0,0.0,0.0,0.0,0.0,0.0,0.0,0.0,0.0,0.0,0.0,0.0,0.0,0.0,0.0,0.0,0.0,0.0,0.0,0.0,0.0,0.0,0.0,0.0,0.0,0.0,0.0,0.0,0.0,0.0,0.0,0.0,0.0,0.0,0.0,0.0,0.0,0.0,0.0,0.0,0.0,0.0,0.0,0.0,0.0,0.0,0.0,0.0,0.0,0.0,0.0,0.0,0.0,0.0,0.0,0.0,0.0,0.0,0.0,0.0,0.0,0.0,0.0,0.0,0.0,0.0,0.0,0.0,0.0,0.0,0.0,0.0,0.0,0.0,0.0,0.0,0.0,0.0,0.0,0.0,0.0,0.0,0.0,0.0,0.0,0.0,0.0,0.0,0.0,0.0,0.0,0.0,0.0,0.0,0.0,0.0,0.0,0.0,0.0,0.0,0.0,0.0,0.0,0.0,0.0,0.0,0.0,0.0,0.0,0.0,0.0,0.0,0.0,0.0,0.0,0.0,0.0,0.0,0.0,0.0,0.0,0.0,0.0,0.0,0.0,0.0,0.0,0.0,0.0,0.0,0.0,0.0,0.0,0.0,0.0,0.0,0.0,0.0,0.0,0.0,0.0,0.0,0.0,0.0,0.0,0.0,0.0,0.0,0.0,0.0,0.0,0.0,0.0,0.0,0.0,0.0,0.0,0.0,0.0,0.0,0.0,0.0,0.0,0.0,0.0,0.0,0.0,0.0,0.0,0.0,0.0,0.0,0.0,0.0,0.0,0.0,0.0,0.0,0.0,0.0,0.0,0.0,0.0,0.0,0.0,0.0,0.0,0.0,0.0,0.0,0.0,0.0,0.0,0.0,0.0,0.0,0.0,0.0,0.0,0.0,0.0,0.0,0.0,0.0,0.0,0.0,0.0,0.0,0.0,0.0,0.0,0.0,0.0,0.0,0.0,0.0,0.0,0.0,0.0,0.0,0.0,0.0,0.0,0.0,0.0,0.0,0.0,0.0,0.0,0.0,0.0,0.0,0.0,0.0,0.0,0.0,0.0,0.0,0.0,0.0,0.0,0.0,0.0,0.0,0.0,0.0,0.0,0.0,0.0,0.0,0.0,0.0,0.0,0.0,0.0,0.0,0.0,0.0,0.0,0.0,0.0,0.0,0.0,0.0,0.0,0.0,0.0,0.0,0.0,0.0,0.0,0.0,0.0,0.0,0.0,0.0,0.0,0.0,0.0,0.0,0.0,0.0,0.0,0.0,0.0,0.0,0.0,0.0,0.0,0.0,0.0,0.0,0.0,0.0,0.0,0.0,0.0,0.0,0.0,0.0,0.0,0.0,0.0,0.0,0.0,0.0,0.0,0.0,0.0,0.0,0.0,0.0,0.0,0.0,0.0,0.0,0.0,0.0,0.0,0.0,0.0,0.0,0.0,0.0,0.0,0.0,0.0,0.0,0.0,0.0,0.0,0.0,0.0,0.0,0.0,0.0,0.0,0.0,0.0,0.0,0.0,0.0,0.0,0.0,0.0,0.0,0.0,0.0,0.0,0.0,0.0,0.0,0.0,0.0,0.0,0.0,0.0,0.0,0.0,0.0,0.0,0.0,0.0,0.0,0.0,0.0,0.0,0.0,0.0,0.0,0.0,0.0,0.0,0.0,0.0,0.0,0.0,0.0,0.0,0.0,0.0,0.0,0.0,0.0,0.0,0.0,0.0,0.0,0.0,0.0,0.0,0.0,0.0,0.0,0.0,0.0,0.0,0.0,0.0,0.0,0.0,0.0,0.0,0.0,0.0,0.0,0.0,0.0,0.0,0.0,0.0,0.0,0.0,0.0,0.0,0.0,0.0,0.0,0.0,0.0,0.0,0.0,0.0,0.0,0.0,0.0,0.0,0.0,0.0,0.0,0.0,0.0,0.0,0.0,0.0,0.0,0.0,0.0,0.0,0.0,0.0,0.0,0.0,0.0,0.0,0.0,0.0,0.0,0.0,0.0,0.0,0.0,0.0,0.0,0.0,0.0,0.0,0.0,0.0,0.0,0.0,0.0,0.0,0.0,0.0,0.0,0.0,0.0,0.0,0.0,0.0,0.0,0.0,0.0,0.0,0.0,0.0,0.0,0.0,0.0,0.0,0.0,0.0,0.0,0.0,0.0,0.0,0.0,0.0,0.0,0.0,0.0,0.0,0.0,0.0,0.0,0.0,0.0,0.0,0.0,0.0,0.0,0.0,0.0,0.0,0.0,0.0,0.0,0.0,0.0,0.0,0.0,0.0,0.0,0.0,0.0,0.0,0.0,0.0,0.0,0.0,0.0,0.0,0.0,0.0,0.0,0.0,0.0,0.0,0.0,0.0,0.0,0.0,0.0,0.0,0.0,0.0,0.0,0.0,0.0,0.0,0.0,0.0,0.0,0.0,0.0,0.0,0.0,0.0,0.0,0.0,0.0,0.0,0.0,0.0,0.0,0.0,0.0,0.0,0.0,0.0,0.0,0.0,0.0,0.0,0.0,0.0,0.0,0.0,0.0,0.0,0.0,0.0,0.0,0.0,0.0,0.0,0.0,0.0,0.0,0.0,0.0,0.0,0.0,0.0,0.0,0.0,0.0,0.0,0.0,0.0,0.0,0.0,0.0,0.0,0.0,0.0,0.0,0.0,0.0,0.0,0.0,0.0,0.0,0.0,0.0,0.0,0.0,0.0,0.0,0.0,0.0,0.0,0.0,0.0,0.0,0.0,0.0,0.0,0.0,0.0,0.0,0.0,0.0,0.0,0.0,0.0,0.0,0.0,0.0,0.0,0.0,0.0,0.0,0.0,0.0,0.0,0.0,0.0,0.0,0.0,0.0,0.0,0.0,0.0,0.0,0.0,0.0,0.0,0.0,0.0,0.0,0.0,0.0,0.0,0.0,0.0,0.0,0.0,0.0,0.0,0.0,0.0,0.0,0.0,0.0,0.0,0.0,0.0,0.0,0.0,0.0,0.0,0.0,0.0,0.0,0.0,0.0,0.0,0.0,0.0,0.0,0.0,0.0,0.0,0.0,0.0,0.0,0.0,0.0,0.0,0.0,0.0,0.0,0.0,0.0,0.0,0.0,0.0,0.0,0.0,0.0,0.0,0.0,0.0,0.0,0.0,0.0,0.0,0.0,0.0,0.0,0.0,0.0,0.0,0.0,0.0,0.0,0.0,0.0,0.0,0.0,0.0,0.0,0.0,0.0,0.0,0.0,0.0,0.0,0.0,0.0,0.0,0.0,0.0,0.0,0.0,0.0,0.0,0.0,0.0,0.0,0.0,0.0,0.0,0.0,0.0,0.0,0.0,0.0,0.0,0.0,0.0,0.0,0.0,0.0,0.0,0.0,0.0,0.0,0.0,0.0,0.0,0.0,0.0,0.0,0.0,0.0,0.0,0.0,0.0,0.0,0.0,0.0,0.0,0.0,0.0,0.0,0.0,0.0,0.0,0.0,0.0,0.0,0.0,0.0,0.0,0.0,0.0,0.0,0.0,0.0,0.0,0.0,0.0,0.0,0.0,0.0,0.0,0.0,0.0,0.0,0.0,0.0,0.0,0.0,0.0,0.0,0.0,0.0,0.0,0.0,0.0,0.0,0.0,0.0,0.0,0.0,0.0,0.0,0.0,0.0,0.0,0.0,0.0,0.0,0.0,0.0,0.0,0.0,0.0,0.0,0.0,0.0,0.0,0.0,0.0,0.0,0.0,0.0,0.0,0.0,0.0,0.0,0.0,0.0,0.0,0.0,0.0,0.0,0.0,0.0,0.0,0.0,0.0,0.0,0.0,0.0,0.0,0.0,0.0,0.0,0.0,0.0,0.0,0.0,0.0,0.0,0.0,0.0,0.0,0.0,0.0,0.0,0.0,0.0,0.0,0.0,0.0,0.0,0.0,0.0,0.0,0.0,0.0,0.0,0.0,0.0,0.0,0.0,0.0,0.0,0.0,0.0,0.0,0.0,0.0,0.0,0.0,0.0,0.0,0.0,0.0,0.0,0.0,0.0,0.0,0.0,0.0,0.0,0.0,0.0,0.0,0.0,0.0,0.0,0.0,0.0,0.0,0.0,0.0,0.0,0.0,0.0,0.0,0.0,0.0,0.0,0.0,0.0,0.0,0.0,0.0,0.0,0.0,0.0,0.0,0.0,0.0,0.0,0.0,0.0,0.0,0.0,0.0,0.0,0.0,0.0,0.0,0.0,0.0,0.0,0.0,0.0,0.0,0.0,0.0,0.0,0.0,0.0,0.0,0.0,0.0,0.0,0.0,0.0,0.0,0.0,0.0,0.0,0.0,0.0,0.0,0.0,0.0,0.0,0.0,0.0,0.0,0.0,0.0,0.0,0.0,0.0,0.0,0.0,0.0,0.0,0.0,0.0,0.0,0.0,0.0,0.0,0.0,0.0,0.0,0.0,0.0,0.0,0.0,0.0,0.0,0.0,0.0,0.0,0.0,0.0,0.0,0.0,0.0,0.0,0.0,0.0,0.0,0.0,0.0,-0.0067,-0.0224,0.0,0.0,0.0,0.0,0.0,0.0,0.0,0.0,0.0,0.0,0.0,0.0,0.0,0.0,0.0,0.0,0.0,0.0,0.0,0.0,0.0,0.0,0.0,0.0,0.0,0.0,0.0,0.0,0.0,0.0,0.0,0.0,0.0,0.0,0.0,0.0,0.0,0.0,0.0,0.0,0.0,0.0,0.0,0.0,0.0,0.0,0.0,0.0,0.0,0.0,0.0,0.0,0.0,0.0,0.0,0.0,0.0,0.0,0.0,0.0,0.0,0.0,0.0,0.0,0.0,0.0,0.0,0.0,0.0,0.0,0.0,0.0,0.0,0.0,0.0,0.0,0.0,0.0,0.0,0.0,0.0,0.0,0.0,0.0,0.0,0.0,0.0,0.0,0.0,0.0,0.0,0.0,0.0,0.0,0.0,0.0,0.0,0.0,0.0,0.0,0.0,0.0,0.0,0.0,0.0,0.0,0.0,0.0,0.0,0.0,0.0,0.0,-0.0045,-0.0246,-0.0601,0.0,0.0,0.0,0.0,0.0,0.0,0.0,0.0,0.0,0.0,0.0,0.0,0.0,0.0,0.0,0.0,0.0,0.0,0.0,0.0,0.0,0.0,0.0,0.0,0.0,0.0,0.0,0.0,0.0,0.0,0.0,0.0,0.0,0.0,0.0,0.0,0.0,0.0,0.0,0.0,0.0,0.0,0.0,0.0,0.0,0.0,0.0,0.0,0.0,0.0,0.0,0.0,0.0,0.0,0.0,0.0,0.0,0.0,0.0,0.0,0.0,0.0,0.0,0.0,0.0,0.0,0.0,0.0,0.0,0.0,0.0,0.0,0.0,0.0,0.0,0.0,0.0,0.0,0.0,0.0,0.0,0.0,0.0,0.0,0.0,0.0,0.0,0.0,0.0,0.0,0.0,0.0,0.0,0.0,0.0,0.0,0.0,0.0,0.0,0.0,0.0,0.0,0.0,0.0,0.0,0.0,0.0,0.0,0.0,0.0,0.0,0.0,-0.0233,0.0,-0.1205,0.0,0.0,0.0,0.0,0.0,0.0,0.0,0.0,0.0,0.0,0.0,0.0,0.0,0.0,0.0,0.0,0.0,0.0,0.0,0.0,0.0,0.0,0.0,0.0,0.0,0.0,0.0,0.0,0.0,0.0,0.0,0.0,0.0,0.0,0.0,0.0,0.0,0.0,0.0,0.0,0.0,0.0,0.0,0.0,0.0,0.0,0.0,0.0,0.0,0.0,0.0,0.0,0.0,0.0,0.0,0.0,0.0,0.0,0.0,0.0,0.0,0.0,0.0,0.0,0.0,0.0,0.0,0.0,0.0,0.0,0.0,0.0,0.0,0.0,0.0,0.0,0.0,0.0,0.0,0.0,0.0,0.0,0.0,0.0,0.0,0.0,0.0,0.0,0.0,0.0,0.0,0.0,0.0,0.0,0.0,0.0,0.0,0.0,0.0,0.0,0.0,0.0,0.0,0.0,0.0,0.0,0.0,0.0,0.0,0.0,-0.0287,0.0,-0.0455,-0.0892,0.0,0.0,0.0,0.0,0.0,0.0,0.0,0.0,0.0,0.0,0.0,0.0,0.0,0.0,0.0,0.0,0.0,0.0,0.0,0.0,0.0,0.0,0.0,0.0,0.0,0.0,0.0,0.0,0.0,0.0,0.0,0.0,0.0,0.0,0.0,0.0,0.0,0.0,0.0,0.0,0.0,0.0,0.0,0.0,0.0,0.0,0.0,0.0,0.0,0.0,0.0,0.0,0.0,0.0,0.0,0.0,0.0,0.0,0.0,0.0,0.0,0.0,0.0,0.0,0.0,0.0,0.0,0.0,0.0,0.0,0.0,0.0,0.0,0.0,0.0,0.0,0.0,0.0,0.0,0.0,0.0,0.0,0.0,0.0,0.0,0.0,0.0,0.0,0.0,0.0,0.0,0.0,0.0,0.0,0.0,0.0,0.0,0.0,0.0,0.0,0.0,0.0,0.0,0.0,0.0,0.0,0.0,0.0,0.0,0.0,-0.0484,-0.0498,-0.0292,-0.0671,-0.1062,-0.1362,0.0,0.0,0.0,0.0,0.0,0.0,0.0,0.0,0.0,0.0,0.0,0.0,0.0,0.0,0.0,0.0,0.0,0.0,0.0,0.0,0.0,0.0,0.0,0.0,0.0,0.0,0.0,0.0,0.0,0.0,0.0,0.0,0.0,0.0,0.0,0.0,0.0,0.0,0.0,0.0,0.0,0.0,0.0,0.0,0.0,0.0,0.0,0.0,0.0,0.0,0.0,0.0,0.0,0.0,0.0,0.0,0.0,0.0,0.0,0.0,0.0,0.0,0.0,0.0,0.0,0.0,0.0,0.0,0.0,0.0,0.0,0.0,0.0,0.0,0.0,0.0,0.0,0.0,0.0,0.0,0.0,0.0,0.0,0.0,0.0,0.0,0.0,0.0,0.0,0.0,0.0,0.0,0.0,0.0,0.0,0.0,0.0,0.0,0.0,0.0,0.0,0.0,0.0,0.0,0.0,0.0,0.0,0.0,-0.0656,-0.0509,-0.0559,-0.0849,-0.0892,-0.1119,0.0,0.0,0.0,0.0,0.0,0.0,0.0,0.0,0.0,0.0,0.0,0.0,0.0,0.0,0.0,0.0,0.0,0.0,0.0,0.0,0.0,0.0,0.0,0.0,0.0,0.0,0.0,0.0,0.0,0.0,0.0,0.0,0.0,0.0,0.0,0.0,0.0,0.0,0.0,0.0,0.0,0.0,0.0,0.0,0.0,0.0,0.0,0.0,0.0,0.0,0.0,0.0,0.0,0.0,0.0,0.0,0.0,0.0,0.0,0.0,0.0,0.0,0.0,0.0,0.0,0.0,0.0,0.0,0.0,0.0,0.0,0.0,0.0,0.0,0.0,0.0,0.0,0.0,0.0,0.0,0.0,0.0,0.0,0.0,0.0,0.0,0.0,0.0,0.0,0.0,0.0,0.0,0.0,0.0,0.0,0.0,0.0,0.0,0.0,0.0,0.0,0.0,0.0,0.0,0.0,0.0,0.0,0.0,0.0,-0.0824,-0.0528,-0.0776,-0.1536,-0.1148,-0.1114,0.0,0.0,0.0,0.0,0.0,0.0,0.0,0.0,0.0,0.0,0.0,0.0,0.0,0.0,0.0,0.0,0.0,0.0,0.0,0.0,0.0,0.0,0.0,0.0,0.0,0.0,0.0,0.0,0.0,0.0,0.0,0.0,0.0,0.0,0.0,0.0,0.0,0.0,0.0,0.0,0.0,0.0,0.0,0.0,0.0,0.0,0.0,0.0,0.0,0.0,0.0,0.0,0.0,0.0,0.0,0.0,0.0,0.0,0.0,0.0,0.0,0.0,0.0,0.0,0.0,0.0,0.0,0.0,0.0,0.0,0.0,0.0,0.0,0.0,0.0,0.0,0.0,0.0,0.0,0.0,0.0,0.0,0.0,0.0,0.0,0.0,0.0,0.0,0.0,0.0,0.0,0.0,0.0,0.0,0.0,0.0,0.0,0.0,0.0,0.0,0.0,0.0,0.0,0.0,0.0,0.0,0.0,0.0,0.0,-0.1007,0.0,-0.1104,-0.1712,-0.1288,-0.1164,0.0,0.0,0.0,0.0,0.0,0.0,0.0,0.0,0.0,0.0,0.0,0.0,0.0,0.0,0.0,0.0,0.0,0.0,0.0,0.0,0.0,0.0,0.0,0.0,0.0,0.0,0.0,0.0,0.0,0.0,0.0,0.0,0.0,0.0,0.0,0.0,0.0,0.0,0.0,0.0,0.0,0.0,0.0,0.0,0.0,0.0,0.0,0.0,0.0,0.0,0.0,0.0,0.0,0.0,0.0,0.0,0.0,0.0,0.0,0.0,0.0,0.0,0.0,0.0,0.0,0.0,0.0,0.0,0.0,0.0,0.0,0.0,0.0,0.0,0.0,0.0,0.0,0.0,0.0,0.0,0.0,0.0,0.0,0.0,0.0,0.0,0.0,0.0,0.0,0.0,0.0,0.0,0.0,0.0,0.0,0.0,0.0,0.0,0.0,0.0,0.0,0.0,0.0,0.0,0.0,0.0,0.0,0.0,-0.1296,-0.1301,-0.1469,-0.1499,-0.1329,-0.1301,-0.1301,0.0,0.0,0.0,0.0,0.0,0.0,0.0,0.0,0.0,0.0,0.0,0.0,0.0,0.0,0.0,0.0,0.0,0.0,0.0,0.0,0.0,0.0,0.0,0.0,0.0,0.0,0.0,0.0,0.0,0.0,0.0,0.0,0.0,0.0,0.0,0.0,0.0,0.0,0.0,0.0,0.0,0.0,0.0,0.0,0.0,0.0,0.0,0.0,0.0,0.0,0.0,0.0,0.0,0.0,0.0,0.0,0.0,0.0,0.0,0.0,0.0,0.0,0.0,0.0,0.0,0.0,0.0,0.0,0.0,0.0,0.0,0.0,0.0,0.0,0.0,0.0,0.0,0.0,0.0,0.0,0.0,0.0,0.0,0.0,0.0,0.0,0.0,0.0,0.0,0.0,0.0,0.0,0.0,0.0,0.0,0.0,0.0,0.0,0.0,0.0,0.0,0.0,0.0,0.0,0.0,0.0,0.0,0.0,0.0,-0.1651,-0.1613,-0.1661,-0.1769,-0.145,-0.1416,0.0,0.0,0.0,0.0,0.0,0.0,0.0,0.0,0.0,0.0,0.0,0.0,0.0,0.0,0.0,0.0,0.0,0.0,0.0,0.0,0.0,0.0,0.0,0.0,0.0,0.0,0.0,0.0,0.0,0.0,0.0,0.0,0.0,0.0,0.0,0.0,0.0,0.0,0.0,0.0,0.0,0.0,0.0,0.0,0.0,0.0,0.0,0.0,0.0,0.0,0.0,0.0,0.0,0.0,0.0,0.0,0.0,0.0,0.0,0.0,0.0,0.0,0.0,0.0,0.0,0.0,0.0,0.0,0.0,0.0,0.0,0.0,0.0,0.0,0.0,0.0,0.0,0.0,0.0,0.0,0.0,0.0,0.0,0.0,0.0,0.0,0.0,0.0,0.0,0.0,0.0,0.0,0.0,0.0,0.0,0.0,0.0,0.0,0.0,0.0,0.0,0.0,0.0,0.0,0.0,0.0,0.0,0.0,0.0,-0.1895,-0.1735,-0.1778,-0.2011,-0.1539,-0.143,-0.1706,0.0,0.0,0.0,0.0,0.0,0.0,0.0,0.0,0.0,0.0,0.0,0.0,0.0,0.0,0.0,0.0,0.0,0.0,0.0,0.0,0.0,0.0,0.0,0.0,0.0,0.0,0.0,0.0,0.0,0.0,0.0,0.0,0.0,0.0,0.0,0.0,0.0,0.0,0.0,0.0,0.0,0.0,0.0,0.0,0.0,0.0,0.0,0.0,0.0,0.0,0.0,0.0,0.0,0.0,0.0,0.0,0.0,0.0,0.0,0.0,0.0,0.0,0.0,0.0,0.0,0.0,0.0,0.0,0.0,0.0,0.0,0.0,0.0,0.0,0.0,0.0,0.0,0.0,0.0,0.0,0.0,0.0,0.0,0.0,0.0,0.0,0.0,0.0,0.0,0.0,0.0,0.0,0.0,0.0,0.0,0.0,0.0,0.0,0.0,0.0,0.0,0.0,0.0,0.0,0.0,0.0,0.0,0.0,-0.2028,-0.1882,-0.1879,-0.2021,-0.1553,-0.1411,0.0,0.0,0.0,0.0,0.0,0.0,0.0,0.0,0.0,0.0,0.0,0.0,0.0,0.0,0.0,0.0,0.0,0.0,0.0,0.0,0.0,0.0,0.0,0.0,0.0,0.0,0.0,0.0,0.0,0.0,0.0,0.0,0.0,0.0,0.0,0.0,0.0,0.0,0.0,0.0,0.0,0.0,0.0,0.0,0.0,0.0,0.0,0.0,0.0,0.0,0.0,0.0,0.0,0.0,0.0,0.0,0.0,0.0,0.0,0.0,0.0,0.0,0.0,0.0,0.0,0.0,0.0,0.0,0.0,0.0,0.0,0.0,0.0,0.0,0.0,0.0,0.0,0.0,0.0,0.0,0.0,0.0,0.0,0.0,0.0,0.0,0.0,0.0,0.0,0.0,0.0,0.0,0.0,0.0,0.0,0.0,0.0,0.0,0.0,0.0,0.0,0.0,0.0,0.0,0.0,0.0,0.0,0.0,0.0,-0.2147,-0.2114,-0.2114,-0.212,-0.1749,-0.1643,0.0,0.0,0.0,0.0,0.0,0.0,0.0,0.0,0.0,0.0,0.0,0.0,0.0,0.0,0.0,0.0,0.0,0.0,0.0,0.0,0.0,0.0,0.0,0.0,0.0,0.0,0.0,0.0,0.0,0.0,0.0,0.0,0.0,0.0,0.0,0.0,0.0,0.0,0.0,0.0,0.0,0.0,0.0,0.0,0.0,0.0,0.0,0.0,0.0,0.0,0.0,0.0,0.0,0.0,0.0,0.0,0.0,0.0,0.0,0.0,0.0,0.0,0.0,0.0,0.0,0.0,0.0,0.0,0.0,0.0,0.0,0.0,0.0,0.0,0.0,0.0,0.0,0.0,0.0,0.0,0.0,0.0,0.0,0.0,0.0,0.0,0.0,0.0,0.0,0.0,0.0,0.0,0.0,0.0,0.0,0.0,0.0,0.0,0.0,0.0,0.0,0.0,0.0,0.0,0.0,0.0,0.0,0.0,-0.2276,-0.2211,-0.2331,-0.2338,-0.2214,-0.1669,-0.1557,0.0,0.0,0.0,0.0,0.0,0.0,0.0,0.0,0.0,0.0,0.0,0.0,0.0,0.0,0.0,0.0,0.0,0.0,0.0,0.0,0.0,0.0,0.0,0.0,0.0,0.0,0.0,0.0,0.0,0.0,0.0,0.0,0.0,0.0,0.0,0.0,0.0,0.0,0.0,0.0,0.0,0.0,0.0,0.0,0.0,0.0,0.0,0.0,0.0,0.0,0.0,0.0,0.0,0.0,0.0,0.0,0.0,0.0,0.0,0.0,0.0,0.0,0.0,0.0,0.0,0.0,0.0,0.0,0.0,0.0,0.0,0.0,0.0,0.0,0.0,0.0,0.0,0.0,0.0,0.0,0.0,0.0,0.0,0.0,0.0,0.0,0.0,0.0,0.0,0.0,0.0,0.0,0.0,0.0,0.0,0.0,0.0,0.0,0.0,0.0,0.0,0.0,0.0,0.0,0.0,0.0,0.0,0.0,-0.25,-0.2214,-0.2513,-0.2523,-0.2193,-0.1528,-0.1369,0.0,0.0,0.0,0.0,0.0,0.0,0.0,0.0,0.0,0.0,0.0,0.0,0.0,0.0,0.0,0.0,0.0,0.0,0.0,0.0,0.0,0.0,0.0,0.0,0.0,0.0,0.0,0.0,0.0,0.0,0.0,0.0,0.0,0.0,0.0,0.0,0.0,0.0,0.0,0.0,0.0,0.0,0.0,0.0,0.0,0.0,0.0,0.0,0.0,0.0,0.0,0.0,0.0,0.0,0.0,0.0,0.0,0.0,0.0,0.0,0.0,0.0,0.0,0.0,0.0,0.0,0.0,0.0,0.0,0.0,0.0,0.0,0.0,0.0,0.0,0.0,0.0,0.0,0.0,0.0,0.0,0.0,0.0,0.0,0.0,0.0,0.0,0.0,0.0,0.0,0.0,0.0,0.0,0.0,0.0,0.0,0.0,0.0,0.0,0.0,0.0,0.0,0.0,0.0,0.0,0.0,0.0,0.0,-0.2263,-0.2186,-0.2411,-0.2448,-0.2214,-0.1846,-0.1698,0.0,0.0,0.0,0.0,0.0,0.0,0.0,0.0,0.0,0.0,0.0,0.0,0.0,0.0,0.0,0.0,0.0,0.0,0.0,0.0,0.0,0.0,0.0,0.0,0.0,0.0,0.0,0.0,0.0,0.0,0.0,0.0,0.0,0.0,0.0,0.0,0.0,0.0,0.0,0.0,0.0,0.0,0.0,0.0,0.0,0.0,0.0,0.0,-0.1199,0.0,0.0,0.0,0.0,0.0,0.0,0.0,0.0,0.0,0.0,0.0,0.0,0.0,0.0,0.0,0.0,0.0,0.0,0.0,0.0,0.0,0.0,0.0,0.0,0.0,0.0,0.0,0.0,0.0,0.0,0.0,0.0,0.0,0.0,0.0,0.0,0.0,0.0,0.0,0.0,0.0,0.0,0.0,0.0,0.0,0.0,0.0,0.0,0.0,0.0,0.0,0.0,0.0,0.0,0.0,0.0,0.0,0.0,0.0,-0.2337,-0.211,-0.2369,-0.2379,-0.2117,-0.1834,-0.1662,0.0,0.0,0.0,0.0,0.0,0.0,0.0,0.0,0.0,0.0,0.0,0.0,0.0,0.0,0.0,0.0,0.0,0.0,0.0,0.0,0.0,0.0,0.0,0.0,0.0,0.0,0.0,0.0,0.0,0.0,0.0,0.0,0.0,0.0,0.0,0.0,0.0,0.0,0.0,0.0,0.0,0.0,0.0,0.0,0.0,0.0,0.0,0.0,0.0,0.0,0.0,0.0,0.0,0.0,0.0,0.0,0.0,0.0,0.0,0.0,0.0,0.0,0.0,0.0,0.0,0.0,0.0,0.0,0.0,0.0,0.0,0.0,0.0,0.0,0.0,0.0,0.0,0.0,0.0,0.0,0.0,0.0,0.0,0.0,0.0,0.0,0.0,0.0,0.0,0.0,0.0,0.0,0.0,0.0,0.0,0.0,0.0,0.0,0.0,0.0,0.0,0.0,0.0,0.0,0.0,0.0,0.0,-0.2478,-0.2397,-0.2028,-0.2283,-0.2262,-0.1943,-0.1637,-0.1385,-0.1165,0.0,0.0,0.0,0.0,0.0,0.0,0.0,0.0,0.0,0.0,0.0,0.0,0.0,0.0,0.0,0.0,0.0,0.0,0.0,0.0,0.0,0.0,0.0,0.0,0.0,0.0,0.0,0.0,0.0,0.0,0.0,0.0,0.0,0.0,0.0,0.0,0.0,0.0,-0.0737,-0.0522,0.0,0.0,0.0,0.0,0.0,0.0,0.0,0.0,-0.0988,0.0,0.0,0.0,0.0,0.0,0.0,0.0,0.0,0.0,0.0,0.0,0.0,0.0,0.0,0.0,0.0,0.0,0.0,0.0,0.0,0.0,0.0,0.0,0.0,0.0,0.0,0.0,0.0,0.0,0.0,0.0,0.0,0.0,0.0,0.0,0.0,0.0,0.0,0.0,0.0,0.0,0.0,0.0,0.0,0.0,0.0,0.0,0.0,0.0,0.0,0.0,0.0,0.0,0.0,0.0,0.0,-0.2589,-0.2291,-0.2085,-0.2011,-0.2055,-0.1953,-0.1678,-0.1248,-0.0859,-0.06,0.0,0.0,0.0,0.0,0.0,0.0,0.0,0.0,0.0,0.0,0.0,0.0,0.0,0.0,0.0,0.0,0.0,0.0,0.0,0.0,0.0,0.0,0.0,0.0,0.0,0.0,0.0,0.0,0.0,0.0,0.0,0.0,0.0,0.0,0.0,0.0,0.0,0.0,0.0,-0.0539,-0.0403,0.0,0.0,0.0,0.0,0.0,0.0,0.0,0.0,-0.0926,0.0,0.0,0.0,0.0,0.0,0.0,0.0,0.0,0.0,0.0,0.0,0.0,0.0,0.0,0.0,0.0,0.0,0.0,0.0,0.0,0.0,0.0,0.0,0.0,0.0,0.0,0.0,0.0,0.0,0.0,0.0,0.0,0.0,0.0,0.0,0.0,0.0,0.0,0.0,0.0,0.0,0.0,0.0,0.0,0.0,0.0,0.0,0.0,0.0,0.0,0.0,0.0,0.0,0.0,0.0,-0.2632,-0.2239,-0.197,-0.1899,-0.1967,-0.1824,-0.1444,-0.1094,-0.0757,0.0,0.0,0.0,0.0,0.0,0.0,0.0,0.0,0.0,0.0,0.0,0.0,0.0,0.0,0.0,0.0,0.0,0.0,0.0,0.0,0.0,0.0,0.0,0.0,0.0,0.0,0.0,0.0,0.0,0.0,0.0,0.0,0.0,0.0,0.0,0.0,0.0,0.0,0.0,0.0,-0.0821,-0.0675,-0.0446,0.0,0.0,0.0,0.0,0.0,0.0,-0.0796,-0.0729,0.0,0.0,0.0,0.0,0.0,0.0,0.0,0.0,0.0,0.0,0.0,0.0,0.0,0.0,0.0,0.0,0.0,0.0,0.0,0.0,0.0,0.0,0.0,0.0,0.0,0.0,0.0,0.0,0.0,0.0,0.0,0.0,0.0,0.0,0.0,0.0,0.0,0.0,0.0,0.0,0.0,0.0,0.0,0.0,0.0,0.0,0.0,0.0,0.0,0.0,0.0,0.0,0.0,0.0,0.0,-0.2562,-0.2181,-0.1879,-0.1728,-0.1805,-0.1634,-0.1139,-0.0907,-0.0642,0.0,0.0,0.0,0.0,0.0,0.0,0.0,0.0,0.0,0.0,0.0,0.0,0.0,0.0,0.0,0.0,0.0,0.0,0.0,0.0,0.0,0.0,0.0,0.0,0.0,0.0,0.0,0.0,0.0,0.0,0.0,0.0,0.0,0.0,0.0,0.0,0.0,0.0,0.0,0.0,0.0,-0.0884,-0.0511,-0.0403,0.0,0.0,0.0,0.0,-0.0855,-0.0727,0.0,0.0,0.0,0.0,0.0,0.0,0.0,0.0,0.0,0.0,0.0,0.0,0.0,0.0,0.0,0.0,0.0,0.0,0.0,0.0,0.0,0.0,0.0,0.0,0.0,0.0,0.0,0.0,0.0,0.0,0.0,0.0,0.0,0.0,0.0,0.0,0.0,0.0,0.0,0.0,0.0,0.0,0.0,0.0,0.0,0.0,0.0,0.0,0.0,0.0,0.0,0.0,0.0,0.0,0.0,0.0,-0.2233,-0.1975,-0.1686,-0.1366,-0.1356,-0.1113,-0.054,-0.0472,-0.0323,0.0,0.0,0.0,0.0,0.0,0.0,0.0,0.0,0.0,0.0,0.0,0.0,0.0,0.0,0.0,0.0,0.0,0.0,0.0,0.0,0.0,0.0,0.0,0.0,0.0,0.0,0.0,0.0,0.0,0.0,0.0,0.0,0.0,0.0,0.0,0.0,0.0,0.0,0.0,0.0,0.0,-0.0718,-0.0657,-0.0403,-0.0261,0.0,0.0,-0.0508,-0.0852,-0.0727,0.0,0.0,0.0,0.0,0.0,0.0,0.0,0.0,0.0,0.0,0.0,0.0,0.0,0.0,0.0,0.0,0.0,0.0,0.0,0.0,0.0,0.0,0.0,0.0,0.0,0.0,0.0,0.0,0.0,0.0,0.0,0.0,0.0,0.0,0.0,0.0,0.0,0.0,0.0,0.0,0.0,0.0,0.0,0.0,0.0,0.0,0.0,0.0,0.0,0.0,0.0,0.0,0.0,0.0,0.0,-0.161,-0.2155,-0.1696,-0.1383,-0.1294,-0.1139,-0.0858,-0.0414,-0.0405,-0.0272,0.0,0.0,0.0,0.0,0.0,0.0,0.0,0.0,0.0,0.0,0.0,0.0,0.0,0.0,0.0,0.0,0.0,0.0,0.0,0.0,0.0,0.0,0.0,0.0,0.0,0.0,0.0,0.0,0.0,0.0,0.0,0.0,0.0,0.0,0.0,0.0,0.0,0.0,0.0,0.0,0.0,0.0,-0.0819,-0.047,0.0,0.0,0.0,-0.0337,-0.0827,0.0,0.0,0.0,0.0,0.0,0.0,0.0,0.0,0.0,0.0,0.0,0.0,0.0,0.0,0.0,0.0,0.0,0.0,0.0,0.0,0.0,0.0,0.0,0.0,0.0,0.0,0.0,0.0,0.0,0.0,0.0,0.0,0.0,0.0,0.0,0.0,0.0,0.0,0.0,0.0,0.0,0.0,0.0,0.0,0.0,0.0,0.0,0.0,0.0,0.0,0.0,0.0,0.0,0.0,0.0,0.0,0.0,-0.1942,-0.1389,-0.1102,-0.107,-0.087,-0.0615,-0.0324,-0.029,0.0,0.0,0.0,0.0,0.0,0.0,0.0,0.0,0.0,0.0,0.0,0.0,0.0,0.0,0.0,0.0,0.0,0.0,0.0,0.0,0.0,0.0,0.0,0.0,0.0,0.0,0.0,0.0,0.0,0.0,0.0,0.0,0.0,0.0,0.0,0.0,0.0,0.0,0.0,0.0,0.0,0.0,-0.0971,-0.0914,-0.0469,-0.0183,0.0,0.0,-0.0162,-0.0618,-0.0286,0.0,0.0,0.0,0.0,0.0,0.0,0.0,0.0,0.0,0.0,0.0,0.0,0.0,0.0,0.0,0.0,0.0,0.0,0.0,0.0,0.0,0.0,0.0,0.0,0.0,0.0,0.0,0.0,0.0,0.0,0.0,0.0,0.0,0.0,0.0,0.0,0.0,0.0,0.0,0.0,0.0,0.0,0.0,0.0,0.0,0.0,0.0,0.0,0.0,0.0,0.0,0.0,0.0,0.0,0.0,-0.1165,-0.1345,-0.1188,-0.0895,-0.0487,-0.0445,-0.0309,-0.0034,0.0,-0.0018,0.0,0.0,0.0,0.0,0.0,0.0,0.0,0.0,0.0,0.0,0.0,0.0,0.0,0.0,0.0,0.0,0.0,0.0,0.0,0.0,0.0,0.0,0.0,0.0,0.0,0.0,0.0,0.0,0.0,0.0,0.0,0.0,0.0,0.0,0.0,0.0,0.0,0.0,0.0,0.0,0.0,-0.0769,-0.0886,-0.0402,0.0,0.0,0.0,-0.002,0.0,0.0,0.0,0.0,0.0,0.0,0.0,0.0,0.0,0.0,0.0,0.0,0.0,0.0,0.0,0.0,0.0,0.0,0.0,0.0,0.0,0.0,0.0,0.0,0.0,0.0,0.0,0.0,0.0,0.0,0.0,0.0,0.0,0.0,0.0,0.0,0.0,0.0,0.0,0.0,0.0,0.0,0.0,0.0,0.0,0.0,0.0,0.0,0.0,0.0,0.0,0.0,0.0,0.0,0.0,0.0,0.0,-0.0838,-0.1165,-0.0757,-0.0492,-0.0409,-0.0234,-0.0106,0.0,0.0,0.0032,0.0,0.0,0.0,0.0,0.0,0.0,0.0,0.0,0.0,0.0,0.0,0.0,0.0,0.0,0.0,0.0,0.0,0.0,0.0,0.0,0.0,0.0,0.0,0.0,0.0,0.0,0.0,0.0,-0.0082,0.0,0.0,0.0,0.0,0.0,0.0,0.0,0.0,0.0,0.0,0.0,0.0,-0.053,-0.0589,-0.0255,0.0,0.0,0.0,0.0,0.0,0.0,0.0,0.0,0.0,0.0,0.0,0.0,0.0,0.0,0.0,0.0,0.0,0.0,0.0,0.0,0.0,0.0,0.0,0.0,0.0,0.0,0.0,0.0,0.0,0.0,0.0,0.0,0.0,0.0,0.0,0.0,0.0,0.0,0.0,0.0,0.0,0.0,0.0,0.0,0.0,0.0,0.0,0.0,0.0,0.0,0.0,0.0,0.0,0.0,0.0,0.0,0.0,0.0,0.0,0.0,0.0,-0.0558,-0.0894,-0.0404,-0.0171,-0.0225,0.0,0.0095,0.0056,0.0046,0.0086,0.0,0.0,0.0,0.0,0.0,0.0,0.0,0.0,0.0,0.0,0.0,0.0,0.0,0.0,0.0,0.0,0.0,0.0,0.0,0.0,0.0,0.0,0.0,0.0,0.0,0.0,0.0,0.0,-0.0122,0.0,0.0,0.0,0.0,0.0,0.0,0.0,0.0,0.0,0.0,0.0,0.0,-0.0392,-0.0402,-0.0163,0.0,0.0,0.0,0.0,0.0,0.0,0.0,0.0,0.0,0.0,0.0,0.0,0.0,0.0,0.0,0.0,0.0,0.0,0.0,0.0,0.0,0.0,0.0,0.0,0.0,0.0,0.0,0.0,0.0,0.0,0.0,0.0,0.0,0.0,0.0,-0.0376,0.0,0.0,0.0011,0.0,0.0,0.0,0.0,0.0,0.0,0.0,0.0,0.0,0.0,0.0,0.0,0.0,0.0,0.0,0.0,0.0,0.0,0.0,0.0,0.0,0.0,-0.0404,-0.042,-0.0149,0.0059,0.0185,0.0302,0.0332,0.0196,0.021,0.0144,0.0011,0.0,0.0,0.0,0.0,0.0,0.0,0.0,0.0,0.0,0.0,0.0,0.0,0.0,0.0,0.0,0.0,0.0,0.0,0.0,0.0,0.0,0.0,0.0,0.0,0.0,0.0,-0.039,-0.0167,0.0,0.0,0.0,0.0,0.0,0.0,0.0,0.0,0.0,0.0,0.0,-0.0517,-0.0383,-0.0379,-0.0167,0.0,0.0,0.0,0.0,0.0,0.0,0.0,0.0,0.0,0.0,0.0,0.0,0.0,0.0,0.0,0.0,0.0,0.0,0.0,0.0,0.0,0.0,0.0,0.0,0.0,0.0,0.0,0.0,0.0,0.0,0.0,0.0,0.0,0.0,0.0438,0.0578,0.0,0.0,0.0,0.0,0.0,0.0,0.0,0.0,0.0,0.0,0.0,0.0539,0.0916,0.0,0.0,0.0,0.0,0.0,0.0,0.0,0.0,0.0,0.0,0.0,0.0,-0.0143,-0.0115,0.0041,0.0195,0.0326,0.0369,0.037,0.0339,0.0242,0.0188,0.0145,0.0,0.0,0.0,0.0,0.0,0.0,0.0,0.0,0.0,0.0,0.0,0.0,0.0,0.0,0.0,0.0,0.0,0.0,0.0,0.0,0.0,0.0,0.0,0.0,0.0,-0.0322,0.0,0.0,0.0,0.0,0.0,0.0,0.0,0.0,0.0,0.0,0.0,0.0047,-0.021,0.0181,0.0383,0.0152,0.0402,0.052,0.0,0.0,0.0,0.0,0.0,0.0,0.0,0.0,0.0,0.0,0.0,0.0,0.0,0.0,-0.3247,-0.3406,-0.3224,-0.2978,-0.2654,0.0,0.0,0.0,0.0,0.0,0.0,0.0,0.0,0.0,0.0,0.0,0.0,0.0,0.0,0.0964,0.0,0.1174,0.0,0.0,0.0,0.0,0.0,0.0,0.0,0.0,0.0271,0.0582,0.0974,0.1259,0.1515,0.0,0.1778,0.1699,0.0,0.0,0.0,0.0,0.0,0.0,0.0,0.0,0.0121,0.0238,0.0322,0.0399,0.0503,0.0554,0.0535,0.0502,0.0357,0.03,0.0379,0.0546,0.0682,0.0,0.0,0.0,0.0,0.0,0.0,0.0,0.0,0.0,0.0,0.0,0.0,0.0,0.0,0.0,0.0,0.0,0.0,0.0,0.0,0.0,0.0,0.0,-0.0245,0.0,0.0,0.0,0.0,0.0,0.0,0.0,0.0,0.0,0.0124,0.0332,0.0391,0.0105,0.046,0.0652,0.0426,0.0,0.0,0.0,0.0,0.0,0.0,0.0,0.0322,0.0295,0.0145,-0.0016,-0.0067,-0.0026,-0.0317,-0.1258,0.0,0.0,-0.2915,-0.3237,-0.3476,-0.3478,-0.331,-0.3423,-0.4231,-0.4963,-0.5534,0.0,0.0,0.0,0.0,0.0,0.0,0.0,0.0,0.1274,0.1336,0.0,0.1665,0.0,0.0,0.0,0.0,0.0,0.0262,0.0,0.0,0.0982,0.1117,0.1161,0.1483,0.162,0.1662,0.203,0.2072,0.181,0.1488,0.0,0.0,0.0,0.0,0.0,0.0,0.0371,0.0679,0.0697,0.0704,0.0695,0.0832,0.0829,0.0704,0.0524,0.049,0.0682,0.0682,0.0751,0.0888,0.0888,0.0,0.0,0.0,0.0,0.0,0.0,0.0,0.0,0.0,0.0,0.0,0.0,0.0,0.0,0.0,0.0,0.0,0.0,0.0,0.0,-0.039,0.0,0.0,0.0,0.0,0.0,0.0,0.0,0.0,0.0,0.0,0.0385,0.0566,0.0609,0.0267,0.0,0.0,0.0,0.0,0.0562,0.0858,0.0905,0.099,0.1123,0.1019,0.0927,0.0907,0.0,0.0,-0.0166,-0.01,-0.0299,-0.113,-0.1561,-0.214,-0.3209,-0.3345,-0.3695,-0.4583,-0.3755,-0.3049,-0.3296,-0.4038,-0.4805,0.4051,0.0,0.0,0.0,0.0,0.2501,0.2476,0.2497,0.2753,0.285,0.2806,0.2742,0.0,0.0,0.0,0.0,0.0,0.0,0.0622,0.1119,0.1209,0.1482,0.1886,0.1991,0.2164,0.2396,0.2495,0.2434,0.224,0.2033,0.1779,0.1445,0.0,0.0,0.0,0.0,0.0606,0.0706,0.0698,0.0751,0.0854,0.0888,0.0843,0.0704,0.0637,0.057,0.0502,0.049,0.057,0.074,0.074,0.0,0.0,0.0,0.0,0.0,0.0,0.0,0.0,0.0,0.0,0.0,0.0,0.0,0.0,0.0,0.0,0.0,0.0,0.0,-0.0343,-0.0078,0.014,0.0,0.0,0.0,0.0,0.0,0.0,0.0,0.0,0.0,0.1014,0.1079,0.1016,0.0,0.0,0.1299,0.1072,0.1181,0.1215,0.1065,0.1135,0.0,0.0989,0.1316,0.1399,0.0979,0.0492,0.0086,-0.004,-0.0168,-0.044,-0.0926,-0.1089,-0.1408,-0.2095,-0.2293,-0.2409,-0.2674,-0.2796,-0.2981,-0.3255,-0.3642,-0.3974,0.5043,0.4681,0.3826,0.3473,0.3446,0.3311,0.3252,0.3284,0.3585,0.3659,0.3614,0.362,0.3462,0.3148,0.2488,0.0,0.0,0.0,0.1372,0.1843,0.1847,0.2044,0.2389,0.2411,0.2502,0.2676,0.2697,0.2646,0.2506,0.2437,0.2289,0.2029,0.0,0.0,0.1257,0.0933,0.0875,0.1041,0.0871,0.087,0.1053,0.1013,0.0918,0.0784,0.0784,0.0729,0.0615,0.0604,0.0659,0.0773,0.0784,0.0818,0.0,0.0,0.0,0.0,0.0,0.0,0.0,0.0,0.0,0.0,0.0,-0.0605,-0.0384,0.0,0.0,0.0,-0.0272,0.0024,0.016,0.0336,0.0,0.0,0.0,0.0,0.0,0.0,0.0,0.151,0.153,0.1569,0.1713,0.1598,0.1359,0.0954,0.1257,0.1444,0.1238,0.0,0.1438,0.1316,0.1419,0.1437,0.1284,0.1424,0.138,0.0874,0.0508,0.0218,0.0026,-0.0225,-0.0502,-0.0767,-0.105,-0.1301,-0.1416,-0.1613,-0.1875,-0.2069,-0.2452,-0.2871,-0.3217,-0.3427,-0.3541,0.5982,0.5829,0.4661,0.4113,0.4086,0.3776,0.3634,0.3667,0.3978,0.4013,0.39,0.4275,0.4043,0.335,0.2665,0.0,0.2798,0.2394,0.2411,0.2723,0.2707,0.2697,0.274,0.274,0.274,0.2767,0.2762,0.2762,0.2762,0.274,0.274,0.2713,0.1857,0.1551,0.1808,0.1298,0.1212,0.161,0.1181,0.1069,0.1282,0.1168,0.1046,0.091,0.091,0.0888,0.0888,0.0888,0.0888,0.0888,0.0888,0.0888,0.0888,0.0,0.0,0.0,0.0,0.0,0.0,0.0,0.0,0.0,0.0,0.0,0.0,0.0,0.0,0.0,0.0152,0.0,0.0675,0.0839,0.0,0.0,0.0,0.1074,0.099,0.1272,0.1418,0.1301,0.0,0.0,0.234,0.2064,0.1619,0.1048,0.1082,0.1166,0.115,0.1274,0.1381,0.1559,0.1671,0.1739,0.1645,0.1425,0.1098,0.0771,0.0524,0.0337,0.009,-0.0168,-0.0424,-0.0637,-0.1262,-0.158,-0.1025,-0.141,-0.1945,-0.246,-0.2588,-0.2732,-0.3142,-0.3328,-0.3444,0.6633,0.6317,0.5692,0.5268,0.4972,0.4911,0.4875,0.4881,0.4948,0.4834,0.4568,0.4677,0.4499,0.4139,0.379,0.3656,0.3659,0.292,0.2718,0.2986,0.2796,0.281,0.3004,0.3004,0.3111,0.3309,0.3309,0.3287,0.3309,0.3089,0.3004,0.2982,0.2577,0.2328,0.2254,0.2112,0.193,0.1754,0.1641,0.1482,0.1291,0.1166,0.1097,0.1057,0.0951,0.0888,0.0888,0.0888,0.0888,0.0888,0.0888,0.0888,0.0888,0.0751,0.0,0.0,0.0,0.0,0.0,0.0,0.0,0.0,0.0,-0.0366,-0.0511,0.0,-0.0126,0.0,0.0344,0.0655,0.0704,0.0994,0.0,0.0,0.1235,0.1352,0.1564,0.144,0.1509,0.1916,0.1953,0.2032,0.2216,0.2164,0.1994,0.1702,0.1652,0.1651,0.1624,0.1515,0.1464,0.1509,0.1489,0.142,0.1412,0.1177,0.1016,0.1054,0.0812,0.057,0.0346,0.0089,-0.0178,-0.0424,-0.0818,-0.1065,-0.1112,-0.1299,-0.1696,-0.2402,-0.2588,-0.2685,-0.2933,-0.3208,-0.3436,0.744,0.7057,0.6826,0.6403,0.582,0.5467,0.5404,0.5554,0.5585,0.5578,0.5547,0.5427,0.5299,0.5132,0.4894,0.4634,0.4401,0.3807,0.3537,0.3477,0.3185,0.3159,0.3287,0.3266,0.3351,0.3506,0.3506,0.3506,0.3506,0.3351,0.3294,0.3287,0.3111,0.2998,0.2892,0.2577,0.2319,0.2174,0.203,0.1759,0.1328,0.1286,0.1263,0.1194,0.1116,0.1155,0.1281,0.1107,0.1059,0.1153,0.1002,0.0888,0.0888,0.0796,0.0773,0.0,0.0,0.0,0.0,0.0,0.0,0.0,0.0,0.0,0.0,0.0,0.0067,0.0289,0.072,0.0971,0.0971,0.1366,0.158,0.1527,0.1572,0.1667,0.1793,0.1632,0.1662,0.2072,0.2041,0.2062,0.2216,0.222,0.2153,0.2046,0.1993,0.1934,0.1855,0.1814,0.1793,0.169,0.1644,0.1581,0.1545,0.1394,0.1254,0.1166,0.1002,0.0812,0.0557,0.0335,0.0078,-0.0167,-0.0468,-0.0726,-0.0903,-0.1136,-0.1511,-0.2033,-0.2341,-0.2588,-0.2987,-0.3243,-0.3444,0.8243,0.7857,0.7748,0.7235,0.6449,0.5734,0.5641,0.5975,0.5975,0.6183,0.6502,0.6301,0.6194,0.6104,0.5795,0.5455,0.5044,0.4686,0.4339,0.3978,0.3661,0.3506,0.3506,0.3506,0.3506,0.3506,0.3541,0.3541,0.3541,0.359,0.359,0.3605,0.3605,0.3584,0.3549,0.2953,0.2632,0.2594,0.2369,0.1978,0.1425,0.1559,0.155,0.1444,0.1429,0.1522,0.1767,0.1437,0.134,0.1518,0.1235,0.1048,0.1017,0.0983,0.0972,0.0,0.1108,0.0,0.0,0.0,0.0,0.0,0.0,0.0,0.0,0.03,0.0411,0.0748,0.1135,0.1357,0.1379,0.177,0.1973,0.1862,0.1931,0.1964,0.1865,0.1834,0.1886,0.201,0.2022,0.2102,0.2311,0.2303,0.2253,0.2294,0.2321,0.2243,0.2092,0.212,0.2097,0.1963,0.1955,0.1875,0.1823,0.1792,0.1634,0.1281,0.114,0.1046,0.0837,0.0615,0.0379,0.0133,-0.01,-0.0335,-0.0502,-0.0903,-0.1264,-0.1613,-0.1984,-0.2472,-0.3123,-0.3369,-0.3431,0.8639,0.8237,0.7508,0.6941,0.6488,0.6328,0.6305,0.6397,0.6397,0.6419,0.651,0.6792,0.6707,0.6415,0.6121,0.5762,0.5297,0.447,0.4087,0.4009,0.3667,0.3506,0.3506,0.3506,0.3506,0.3527,0.3723,0.3828,0.3835,0.4048,0.415,0.415,0.415,0.4101,0.3996,0.0,0.0,0.0,0.2533,0.2368,0.206,0.2155,0.2221,0.2191,0.2088,0.0,0.1815,0.1913,0.1911,0.1768,0.1891,0.0,0.0,0.0,0.0,0.0,0.0,0.0,0.0,0.0,0.0,0.0,0.1134,0.09,0.0435,0.0621,0.0882,0.1168,0.1454,0.167,0.1784,0.2015,0.2171,0.212,0.2048,0.2039,0.2102,0.2022,0.2022,0.2154,0.2174,0.2255,0.2491,0.253,0.2578,0.27,0.2756,0.2748,0.2691,0.2423,0.2195,0.2134,0.202,0.1886,0.1938,0.1886,0.1792,0.1596,0.14,0.1264,0.1182,0.0973,0.0756,0.0595,0.0376,0.0145,-0.0189,-0.0444,-0.069,-0.1024,-0.1768,-0.2607,-0.3372,-0.3458,-0.3429,0.905,0.0,0.8007,0.75,0.0,0.7077,0.7107,0.7077,0.688,0.691,0.7107,0.7314,0.7285,0.7098,0.6957,0.6657,0.6195,0.5362,0.4884,0.4658,0.4156,0.3841,0.3792,0.3862,0.3862,0.3813,0.3978,0.4089,0.4089,0.4232,0.4293,0.4293,0.4293,0.4264,0.4216,0.4264,0.3848,0.2897,0.2707,0.2481,0.2208,0.2262,0.2298,0.2297,0.2237,0.0,0.0,0.0,0.0,0.0,0.0,0.0,0.0,0.0,0.0,0.1497,0.1378,0.14,0.1624,0.1539,0.147,0.1405,0.1458,0.1346,0.0958,0.1099,0.1276,0.149,0.1747,0.1895,0.1905,0.2196,0.2334,0.2215,0.2205,0.2205,0.2195,0.2169,0.221,0.2373,0.2432,0.253,0.272,0.2739,0.2795,0.2878,0.2898,0.2908,0.2878,0.2701,0.2539,0.251,0.2332,0.2222,0.2226,0.2233,0.2071,0.1861,0.1775,0.167,0.1534,0.1416,0.127,0.103,0.0987,0.09,0.043,0.0055,-0.0256,-0.0551,-0.1633,-0.2916,-0.3798,-0.3854,-0.3745,0.9422,0.9056,0.8594,0.8168,0.7812,0.7783,0.7783,0.7695,0.0,0.0,0.0,0.7695,0.7695,0.7695,0.7637,0.7375,0.7002,0.6339,0.5759,0.5307,0.4705,0.4321,0.4147,0.4289,0.4366,0.4426,0.4486,0.4518,0.4507,0.4558,0.4547,0.4535,0.4507,0.4495,0.4418,0.4252,0.3874,0.3338,0.2973,0.2623,0.2278,0.2311,0.2344,0.2339,0.2346,0.2436,0.2577,0.2208,0.2084,0.2257,0.1828,0.1631,0.1676,0.1531,0.1542,0.1754,0.1702,0.1771,0.2022,0.1902,0.1785,0.1674,0.1809,0.1792,0.1618,0.1751,0.1897,0.2026,0.2353,0.2486,0.2258,0.2586,0.2676,0.2373,0.2403,0.2423,0.2344,0.2361,0.2431,0.2616,0.2693,0.284,0.305,0.3008,0.3024,0.3104,0.3209,0.3143,0.3111,0.3,0.2841,0.2824,0.2713,0.2627,0.2625,0.2607,0.25,0.2146,0.2176,0.2156,0.1966,0.1889,0.1743,0.1457,0.171,0.1751,0.13,0.0717,0.0276,0.022,-0.1161,-0.2792,-0.3978,-0.4197,-0.4124,0.964,0.946,0.8652,0.8257,0.8233,0.8205,0.8004,0.7695,0.7637,0.7637,0.7695,0.7695,0.7695,0.7695,0.7334,0.7024,0.6721,0.6285,0.5702,0.5077,0.4958,0.4674,0.4313,0.4529,0.4989,0.56,0.5428,0.5327,0.5346,0.5545,0.5555,0.5349,0.533,0.5233,0.4905,0.4004,0.3616,0.3774,0.364,0.3217,0.2566,0.2766,0.2892,0.2885,0.2885,0.2787,0.26,0.2757,0.2741,0.2565,0.2695,0.2679,0.245,0.2389,0.2324,0.2146,0.2176,0.2218,0.2247,0.2237,0.2257,0.2365,0.25,0.2405,0.2076,0.2759,0.3242,0.336,0.3878,0.4125,0.363,0.354,0.335,0.2869,0.271,0.2691,0.2767,0.2711,0.2711,0.2851,0.2851,0.3145,0.3618,0.3477,0.3445,0.3814,0.3955,0.4085,0.4003,0.34,0.3006,0.3008,0.2944,0.2917,0.2978,0.2915,0.2794,0.2625,0.251,0.251,0.2547,0.2355,0.2189,0.2088,0.2695,0.2913,0.2452,0.1673,0.1241,0.1091,0.0175,-0.1111,-0.3159,-0.4004,-0.4416,0.9561,0.9474,0.8833,0.8578,0.8551,0.8568,0.8467,0.8298,0.8298,0.8062,0.7695,0.7695,0.7841,0.8004,0.784,0.7674,0.756,0.7337,0.6775,0.6007,0.5958,0.5509,0.4828,0.5154,0.5676,0.623,0.5904,0.5704,0.5723,0.5845,0.5837,0.5726,0.5708,0.5652,0.5515,0.5006,0.4565,0.4159,0.3471,0.2932,0.2602,0.2724,0.2774,0.2774,0.2774,0.273,0.2593,0.2717,0.2694,0.2497,0.2563,0.2608,0.2598,0.2558,0.2543,0.252,0.2568,0.2615,0.2719,0.2671,0.2706,0.2872,0.3374,0.365,0.3581,0.3784,0.4137,0.457,0.4697,0.4569,0.4214,0.3787,0.3384,0.3044,0.2876,0.2878,0.2985,0.3041,0.3056,0.3189,0.3565,0.3941,0.4237,0.411,0.4074,0.4373,0.451,0.475,0.5093,0.4552,0.3862,0.3468,0.3217,0.3199,0.3336,0.3323,0.3218,0.3102,0.2997,0.298,0.3064,0.2897,0.2854,0.2991,0.3645,0.3915,0.3473,0.2909,0.243,0.1931,0.1519,0.015,-0.191,-0.3711,-0.472,0.9815,0.9728,0.9176,0.8926,0.8926,0.8844,0.8789,0.8789,0.8789,0.8456,0.8004,0.7947,0.8119,0.8393,0.8421,0.8421,0.8396,0.8357,0.7818,0.6955,0.687,0.6277,0.5402,0.5771,0.6199,0.6523,0.6223,0.6063,0.6057,0.6045,0.6039,0.5973,0.5918,0.5881,0.5881,0.5799,0.536,0.4571,0.3458,0.2786,0.2666,0.2666,0.2675,0.2656,0.2666,0.2656,0.2666,0.2665,0.2626,0.252,0.2452,0.252,0.2664,0.2615,0.2664,0.2795,0.2876,0.2991,0.3182,0.3166,0.3277,0.363,0.4288,0.4904,0.5381,0.52,0.5149,0.5479,0.5366,0.5081,0.459,0.4165,0.371,0.3501,0.35,0.3552,0.3481,0.3537,0.3642,0.379,0.4286,0.4736,0.5024,0.5031,0.5095,0.5262,0.536,0.5695,0.6095,0.585,0.53,0.4515,0.386,0.3533,0.3661,0.3699,0.3662,0.3551,0.3489,0.3506,0.356,0.3518,0.3569,0.3803,0.4357,0.4565,0.4261,0.3906,0.3528,0.3109,0.2588,0.1334,-0.1174,-0.3052,-0.4571,1.0782,1.0567,0.969,0.9343,0.9289,0.8981,0.8816,0.8816,0.8789,0.8789,0.8717,0.8706,0.8706,0.8734,0.8745,0.875,0.8773,0.8744,0.8208,0.7336,0.7247,0.6735,0.5885,0.6064,0.6319,0.6594,0.6549,0.65,0.6517,0.6535,0.643,0.6183,0.5979,0.5918,0.5855,0.5523,0.524,0.5127,0.4174,0.3416,0.2902,0.2871,0.2869,0.2889,0.2871,0.288,0.2852,0.2869,0.2871,0.286,0.2832,0.286,0.2869,0.2849,0.2869,0.2926,0.3109,0.3336,0.3541,0.3721,0.4152,0.4929,0.518,0.5912,0.7259,0.7294,0.678,0.6198,0.6421,0.6147,0.4935,0.5081,0.5079,0.4633,0.4952,0.5123,0.4601,0.4471,0.4543,0.4764,0.4928,0.5311,0.6313,0.6328,0.6376,0.6778,0.6886,0.7083,0.7308,0.7324,0.7132,0.632,0.5083,0.409,0.4072,0.4044,0.4133,0.4086,0.3972,0.3991,0.4056,0.401,0.3978,0.4361,0.4756,0.4874,0.4753,0.4555,0.442,0.407,0.3254,0.1904,-0.0589,-0.2181,-0.3249,1.0787,1.0697,0.9978,0.9686,0.9659,0.9516,0.9463,0.9475,0.9463,0.9437,0.9463,0.9437,0.9331,0.9155,0.9155,0.9155,0.917,0.9369,0.8773,0.7633,0.7789,0.7327,0.6397,0.6383,0.6624,0.6924,0.6723,0.6727,0.6917,0.695,0.6818,0.6647,0.6527,0.6423,0.6301,0.6126,0.5889,0.555,0.5294,0.4694,0.3773,0.3185,0.2898,0.2898,0.2898,0.2898,0.2917,0.2981,0.2981,0.2926,0.3049,0.313,0.315,0.3168,0.3217,0.3315,0.35,0.3664,0.3832,0.4417,0.4986,0.5484,0.6439,0.7386,0.8087,0.8404,0.8206,0.7516,0.7378,0.7144,0.6611,0.632,0.5994,0.5733,0.5803,0.5818,0.564,0.5594,0.5675,0.5909,0.6189,0.6597,0.7234,0.7294,0.733,0.7625,0.7778,0.8032,0.8426,0.8341,0.8055,0.7667,0.6664,0.5775,0.5306,0.5343,0.5142,0.4646,0.4368,0.436,0.4442,0.439,0.4382,0.4758,0.4883,0.4934,0.4875,0.4691,0.4574,0.4313,0.2965,0.1336,0.0535,-0.1143,-0.251,1.1402,1.1141,1.0483,1.0173,1.0173,1.0173,1.0186,1.0173,1.0173,1.0173,1.0186,1.0173,1.0046,0.9803,0.9633,0.9581,0.9673,0.9841,0.9268,0.8163,0.824,0.7693,0.6678,0.6663,0.685,0.7123,0.6904,0.6901,0.7178,0.7209,0.7144,0.6996,0.698,0.6898,0.6778,0.6761,0.6584,0.6227,0.6206,0.5674,0.4631,0.3808,0.3289,0.3115,0.31,0.3083,0.3083,0.3194,0.3191,0.31,0.3275,0.3383,0.3386,0.3465,0.3573,0.373,0.3858,0.4002,0.4118,0.5013,0.5806,0.6387,0.7611,0.8471,0.8823,0.922,0.9246,0.886,0.8544,0.8287,0.7578,0.7158,0.682,0.6665,0.6667,0.6726,0.6645,0.6649,0.6737,0.6969,0.7251,0.7761,0.8125,0.8259,0.8295,0.8428,0.854,0.876,0.9264,0.9081,0.8835,0.8796,0.8353,0.7514,0.6453,0.6067,0.5802,0.5182,0.4656,0.4641,0.4753,0.4688,0.4651,0.4889,0.4848,0.48,0.4788,0.4669,0.4443,0.3888,0.2675,0.1314,0.1198,-0.0415,-0.1298,1.3218,1.243,1.133,1.0825,1.0849,1.0825,1.0849,1.0825,1.0849,1.0849,1.0835,1.0835,1.0849,1.0774,1.021,1.0084,1.0285,1.0072,0.9616,0.8987,0.8556,0.7694,0.6656,0.6778,0.7009,0.7296,0.7178,0.7193,0.7242,0.7227,0.7209,0.7209,0.7225,0.7209,0.7178,0.7164,0.715,0.7042,0.6645,0.6075,0.5382,0.4878,0.4247,0.3701,0.3565,0.3536,0.3551,0.3567,0.3573,0.3581,0.3582,0.3598,0.3597,0.3715,0.3874,0.4054,0.4212,0.4324,0.4482,0.5463,0.6585,0.7729,0.8347,0.8962,0.9675,0.9829,0.9806,0.9811,0.9771,0.9115,0.7669,0.7684,0.769,0.7559,0.7967,0.7981,0.7621,0.7594,0.7657,0.7875,0.8031,0.8391,0.9161,0.933,0.9336,0.9462,0.9592,0.9656,0.9749,0.9791,0.976,0.9753,0.9591,0.9076,0.7075,0.6697,0.6119,0.549,0.5352,0.4985,0.498,0.503,0.5019,0.4992,0.4853,0.4772,0.4698,0.4518,0.4233,0.3672,0.2795,0.1918,0.1569,0.1142,0.0174,1.2471,1.1518,1.109,1.0897,1.0897,1.0897,1.1001,1.1159,1.1144,1.123,1.1336,1.1336,1.1483,1.165,1.1173,1.0894,1.0739,1.0594,1.0224,0.9644,0.9073,0.8031,0.6735,0.6934,0.7434,0.7856,0.7589,0.7547,0.7766,0.7894,0.7909,0.7796,0.7781,0.7723,0.7607,0.7592,0.7577,0.7533,0.7047,0.6683,0.64,0.5525,0.4901,0.4664,0.4046,0.3721,0.3721,0.3736,0.3736,0.3736,0.382,0.3867,0.3869,0.4011,0.4196,0.4392,0.4968,0.5126,0.4953,0.6583,0.7867,0.8275,0.9098,0.9645,0.9987,1.0101,1.0097,1.0093,1.013,0.9648,0.9155,0.8915,0.8885,0.8719,0.8836,0.8867,0.8734,0.8676,0.876,0.8939,0.907,0.9305,0.9474,0.9668,0.9774,0.9924,0.9963,0.9986,1.007,1.0099,1.0081,1.0101,1.007,0.979,0.9138,0.8261,0.763,0.6855,0.6381,0.5992,0.5852,0.5343,0.5214,0.5554,0.5302,0.5232,0.5302,0.4861,0.4509,0.4123,0.3184,0.2379,0.1742,0.1259,0.0389,1.265,1.1803,1.1541,1.1453,1.1453,1.1453,1.1571,1.1715,1.1715,1.1806,1.1902,1.1923,1.2061,1.2213,1.2041,1.1764,1.1431,1.1159,1.0795,1.039,0.9813,0.8756,0.7596,0.7689,0.8289,0.8903,0.8452,0.8285,0.848,0.8443,0.8319,0.8214,0.8235,0.8209,0.8084,0.8057,0.8057,0.7978,0.7667,0.7397,0.7135,0.6425,0.5913,0.5667,0.4934,0.4305,0.4005,0.3946,0.3967,0.3995,0.4082,0.4135,0.4195,0.4314,0.4586,0.502,0.5615,0.5923,0.5929,0.7586,0.8793,0.9001,0.9663,1.0134,1.0134,1.0175,1.0195,1.0193,1.0201,1.0115,0.9971,0.9795,0.9654,0.9403,0.9313,0.9313,0.935,0.9368,0.9428,0.9531,0.9654,0.9775,0.9825,0.9887,0.9987,1.0092,1.0098,1.0135,1.0155,1.0166,1.0175,1.0156,1.0095,1.0073,0.9759,0.9261,0.8955,0.8298,0.7229,0.6865,0.6487,0.5898,0.5665,0.5988,0.6078,0.5996,0.5715,0.5272,0.4997,0.4757,0.4029,0.3186,0.2322,0.136,0.0571,1.3914,1.3347,1.286,1.2478,1.2439,1.2439,1.2537,1.2517,1.2572,1.2575,1.26,1.2633,1.2657,1.2635,1.2657,1.2594,1.2368,1.1791,1.1439,1.1249,1.0672,0.996,0.9117,0.9019,0.9379,1.0139,0.9723,0.9412,0.9324,0.8789,0.8472,0.8447,0.8563,0.8622,0.8599,0.8599,0.8599,0.8542,0.8359,0.8028,0.7518,0.7454,0.7191,0.6719,0.6215,0.548,0.4474,0.4292,0.4271,0.4437,0.44,0.4465,0.454,0.4594,0.5025,0.5827,0.6172,0.6636,0.7367,0.8312,0.9316,0.9797,1.0157,1.0179,1.0156,1.0183,1.0195,1.0185,1.0195,1.013,1.0035,1.0024,0.9889,0.9516,0.9411,0.9421,0.9507,0.9589,0.9651,0.9775,0.9868,0.9935,0.9996,1.0066,1.0096,1.0129,1.0153,1.0153,1.0137,1.0116,1.0111,1.0088,1.0035,1.002,1.0054,1.0055,0.9915,0.9584,0.8395,0.758,0.7233,0.6757,0.6529,0.6711,0.6873,0.6744,0.5693,0.5366,0.5711,0.5457,0.4687,0.3823,0.2906,0.1949,0.1087,1.3891,1.2943,1.2687,1.261,1.261,1.261,1.2687,1.2871,1.3018,1.3159,1.3311,1.3441,1.3487,1.3487,1.3487,1.3327,1.3073,1.2851,1.2584,1.2144,1.153,1.1395,1.1316,1.011,0.9381,0.9383,0.9384,0.937,0.9359,0.9146,0.9019,0.903,0.905,0.9081,0.9071,0.9081,0.9081,0.9029,0.8531,0.8383,0.8541,0.7769,0.7412,0.7641,0.7095,0.6578,0.6251,0.5093,0.4737,0.5256,0.4816,0.4594,0.4672,0.4764,0.5221,0.6089,0.6793,0.7198,0.7718,0.8924,0.9776,0.9975,1.0082,1.0099,1.0067,1.0098,1.0151,1.0183,1.0197,1.0175,1.0135,1.0105,1.0075,0.9781,0.9722,0.9682,0.9723,0.9788,0.9829,0.993,0.999,1.0057,1.0123,1.0172,1.0156,1.0153,1.0187,1.0179,1.0121,1.0103,1.0047,0.9987,0.9957,0.9915,0.9939,0.9898,0.9782,0.968,0.8918,0.8267,0.7937,0.7677,0.747,0.7337,0.7491,0.7107,0.6048,0.5778,0.6182,0.5774,0.4829,0.4072,0.3368,0.255,0.1669,1.3848,1.2922,1.2908,1.2889,1.2926,1.2947,1.3055,1.3244,1.3427,1.3601,1.3721,1.3842,1.3881,1.3881,1.3881,1.3751,1.3537,1.3624,1.3454,1.3058,1.2573,1.2656,1.3051,1.1941,1.0847,1.0405,1.0502,1.0419,1.0135,0.988,0.9633,0.9376,0.9359,0.9377,0.9421,0.9412,0.9403,0.9305,0.8903,0.8867,0.9064,0.8473,0.8261,0.8614,0.8335,0.815,0.8076,0.6754,0.6055,0.6228,0.5876,0.5715,0.5738,0.5886,0.6286,0.7085,0.7692,0.8179,0.8633,0.9573,1.0105,0.9996,0.9996,1.0016,0.9986,1.0016,1.0057,1.0124,1.0429,1.0608,1.0666,1.0956,1.0994,1.0949,1.0264,0.9976,0.993,0.9957,1.0005,1.0059,1.0118,1.0153,1.0165,1.0155,1.0162,1.0174,1.0154,1.0147,1.0093,1.0075,0.9968,0.9868,0.9788,0.9769,0.9794,0.9713,0.9576,0.9471,0.926,0.8901,0.86,0.8426,0.824,0.7937,0.7932,0.768,0.6789,0.6688,0.6833,0.59,0.4835,0.4115,0.3373,0.2969,0.216,1.3822,1.3447,1.3413,1.3413,1.3429,1.3523,1.3586,1.363,1.3827,1.3913,1.3927,1.3969,1.3952,1.3955,1.3997,1.3955,1.3927,1.3938,1.3938,1.3818,1.3605,1.3574,1.3422,1.3387,1.2956,1.2442,1.2454,1.2186,1.1452,1.0787,1.0201,0.9704,0.9603,0.9565,0.9617,0.9606,0.9594,0.9538,0.9433,0.9415,0.9468,0.9499,0.9536,0.963,0.9607,0.9619,0.9461,0.8736,0.801,0.75,0.7263,0.7201,0.7425,0.757,0.7799,0.8553,0.8847,0.9231,0.9815,0.9992,1.0042,0.9957,0.9899,0.9919,1.0044,1.0125,1.0254,1.0439,1.0976,1.1374,1.1576,1.2003,1.2408,1.2421,1.11,1.0278,1.0092,1.0147,1.0115,1.0156,1.019,1.0163,1.0112,1.0077,1.007,1.0067,1.0067,1.0042,0.9963,0.9901,0.9837,0.971,0.9588,0.9591,0.9602,0.9578,0.9411,0.9057,0.904,0.9024,0.8969,0.8858,0.857,0.8323,0.8,0.7797,0.7544,0.7166,0.6444,0.5334,0.4509,0.3943,0.3466,0.3035,0.2481,1.4279,1.3789,1.3771,1.3771,1.3786,1.3813,1.381,1.3838,1.4024,1.4123,1.4149,1.4264,1.4307,1.435,1.4332,1.4252,1.4201,1.4282,1.4326,1.4295,1.4366,1.3864,1.3368,1.3456,1.3215,1.2567,1.265,1.2402,1.213,1.1464,1.0983,1.0712,1.0111,0.9825,0.9825,0.9838,0.98,0.9806,0.9781,0.9775,0.9774,0.9797,0.9838,0.9855,0.9911,0.9927,0.9916,0.9772,0.8938,0.7622,0.7494,0.7535,0.7668,0.77,0.8114,0.8789,0.8989,0.9239,0.9855,1.0025,0.9941,0.9798,0.9886,1.0086,1.0677,1.0714,1.1037,1.1506,1.1963,1.2079,1.2216,1.2478,1.2639,1.2559,1.1775,1.1094,1.0953,1.0527,1.0193,1.0196,1.0166,1.0157,1.0149,0.9995,1.001,1.0009,0.9968,0.9903,0.9788,0.9717,0.9647,0.9504,0.9394,0.9386,0.9403,0.9403,0.9181,0.871,0.8672,0.8824,0.8857,0.8898,0.8493,0.8115,0.7621,0.7331,0.7057,0.6734,0.5733,0.4874,0.4203,0.3654,0.3431,0.3078,0.2519,1.4202,1.3881,1.3881,1.3881,1.3896,1.3983,1.4024,1.4065,1.4227,1.4338,1.4362,1.4441,1.4522,1.4589,1.4589,1.4552,1.4512,1.4624,1.4648,1.4641,1.4748,1.4429,1.3988,1.3971,1.377,1.3392,1.341,1.3258,1.2952,1.2452,1.2133,1.169,1.0933,1.0522,1.0536,1.0135,0.9954,0.9939,0.9973,0.9995,0.9986,0.999,1.0006,1.0033,1.0067,1.0067,1.0044,1.0108,0.9609,0.8826,0.8636,0.8661,0.8693,0.8707,0.8905,0.9401,0.9414,0.9619,0.987,0.9948,0.9869,0.9849,1.0013,1.0468,1.093,1.1235,1.1768,1.2103,1.2579,1.2877,1.3081,1.3394,1.3667,1.3725,1.2978,1.2316,1.1916,1.1516,1.0868,1.0484,1.0366,1.0627,1.0728,1.0305,1.0138,1.0207,1.0,0.9822,0.9625,0.9568,0.9553,0.9499,0.9357,0.9339,0.9292,0.9281,1.0001,0.9514,0.8963,0.9013,0.8809,0.8888,0.8402,0.7909,0.7349,0.6858,0.6599,0.6271,0.5639,0.4815,0.4048,0.3499,0.3275,0.3035,0.2476,1.3941,1.3987,1.3987,1.3969,1.4011,1.4175,1.4264,1.4307,1.4446,1.4522,1.4522,1.4522,1.4581,1.4707,1.4707,1.4757,1.4867,1.4859,1.4895,1.4909,1.497,1.4878,1.4809,1.4779,1.4775,1.4707,1.4896,1.4492,1.3944,1.3739,1.3378,1.2726,1.1898,1.1438,1.1179,1.064,1.0212,1.0066,1.0083,1.0089,1.01,1.0103,1.0132,1.0146,1.0161,1.0178,1.0163,1.0189,1.0075,1.0072,1.0157,1.0034,1.0078,1.0128,1.0077,0.9984,0.9957,0.9967,1.0005,0.9982,0.997,1.0054,1.06,1.105,1.1314,1.1817,1.2315,1.264,1.3221,1.3624,1.3921,1.4659,1.4899,1.4761,1.4217,1.3569,1.2959,1.2642,1.2002,1.0684,1.0973,1.146,1.1574,1.109,1.0309,1.0904,1.0625,1.0349,1.0203,1.0172,1.0016,0.9776,0.9571,0.9308,0.9236,0.9174,1.0187,1.065,0.9908,0.9543,0.8972,0.8779,0.8298,0.7796,0.7223,0.6667,0.6208,0.5794,0.543,0.4835,0.4089,0.3549,0.3105,0.2848,0.2415,1.4227,1.4375,1.4375,1.4375,1.438,1.4519,1.4595,1.4595,1.4627,1.4656,1.4637,1.4656,1.4668,1.4727,1.4813,1.4886,1.4902,1.4919,1.4928,1.4999,1.5168,1.5211,1.5196,1.521,1.519,1.5182,1.5192,1.5086,1.4807,1.4263,1.3895,1.3659,1.2885,1.2141,1.1579,1.1387,1.0812,1.0314,1.0226,1.0258,1.0253,1.0196,1.018,1.0184,1.0191,1.0199,1.0201,1.0194,1.0201,1.0201,1.0187,1.0193,1.0183,1.011,1.0081,1.007,0.9992,0.9916,0.995,1.0338,1.0621,1.0512,1.1143,1.1819,1.2311,1.2572,1.3111,1.3604,1.4095,1.4305,1.4484,1.4768,1.4973,1.4916,1.4741,1.4474,1.4095,1.3157,1.2466,1.2316,1.2074,1.2148,1.259,1.1874,1.1448,1.1574,1.1344,1.1063,1.0878,1.0726,1.0516,1.0245,1.022,1.0037,0.9855,1.0035,1.102,1.1464,1.0799,1.024,0.964,0.8957,0.8591,0.7898,0.7077,0.6647,0.6505,0.59,0.563,0.4884,0.4202,0.3779,0.3364,0.2935,0.2376,1.4497,1.4611,1.4656,1.4687,1.4697,1.4766,1.4794,1.4794,1.4794,1.4794,1.4794,1.4794,1.4822,1.4847,1.4925,1.4984,1.5038,1.5068,1.5108,1.5155,1.5263,1.528,1.5306,1.5336,1.5342,1.531,1.5281,1.5302,1.5158,1.4911,1.4683,1.4577,1.3819,1.3254,1.2687,1.2354,1.1963,1.1533,1.1044,1.0853,1.0857,1.041,1.0195,1.0194,1.0195,1.0195,1.0195,1.0195,1.0193,1.0191,1.0209,1.0205,1.0192,1.0117,1.0048,1.0033,0.9965,1.005,1.0298,1.0581,1.0848,1.103,1.1759,1.2244,1.278,1.3175,1.3689,1.4125,1.4421,1.4656,1.4776,1.4841,1.4895,1.4876,1.485,1.4776,1.4559,1.3915,1.3402,1.3403,1.2934,1.2934,1.2837,1.2371,1.2169,1.2097,1.1529,1.1237,1.113,1.0998,1.0976,1.0866,1.0954,1.0873,1.0632,1.104,1.2041,1.2089,1.1509,1.1032,1.0544,0.9772,0.9014,0.8376,0.782,0.7547,0.7286,0.6603,0.5781,0.5097,0.4511,0.4118,0.3756,0.3406,0.272,1.4717,1.4737,1.4859,1.4904,1.4885,1.4921,1.4911,1.4911,1.4911,1.4911,1.4892,1.4892,1.4942,1.4999,1.503,1.5101,1.519,1.5236,1.5263,1.5276,1.53,1.5321,1.5329,1.5364,1.5371,1.5331,1.5338,1.5348,1.5377,1.54,1.5231,1.5215,1.4707,1.4101,1.3905,1.3455,1.287,1.2518,1.201,1.1581,1.1424,1.0815,1.047,1.0209,1.0477,1.0364,1.0385,1.0497,1.0625,1.0413,1.0493,1.0536,1.0485,1.031,1.0211,1.0204,1.0333,1.0599,1.0895,1.1053,1.1305,1.1686,1.2363,1.2766,1.3025,1.3453,1.3891,1.4185,1.4398,1.4666,1.4813,1.4961,1.4906,1.4803,1.4722,1.4706,1.4595,1.4566,1.4233,1.4034,1.3545,1.3385,1.3201,1.286,1.2723,1.2507,1.1937,1.1548,1.149,1.1531,1.1649,1.176,1.1913,1.2009,1.1821,1.1414,1.2498,1.2421,1.1928,1.1634,1.1258,1.0769,1.0066,0.938,0.8892,0.8532,0.7835,0.688,0.6087,0.535,0.5248,0.5312,0.4765,0.3953,0.3153,1.4766,1.4877,1.4895,1.4904,1.4902,1.4965,1.4992,1.4985,1.4999,1.4992,1.4992,1.4992,1.4995,1.5037,1.519,1.5263,1.526,1.5297,1.5303,1.5313,1.5358,1.5391,1.5394,1.5385,1.5389,1.537,1.5389,1.5389,1.539,1.541,1.539,1.5363,1.5203,1.4807,1.4247,1.3846,1.3526,1.3141,1.2705,1.228,1.17,1.132,1.093,1.0567,1.0967,1.0931,1.0744,1.148,1.1925,1.1288,1.1762,1.1935,1.175,1.1263,1.0998,1.0955,1.1283,1.1526,1.1631,1.2165,1.2345,1.2523,1.2927,1.3296,1.3368,1.3548,1.3862,1.4131,1.4373,1.4589,1.4593,1.5068,1.4896,1.4694,1.4756,1.4813,1.4378,1.4257,1.4298,1.4212,1.3961,1.362,1.3325,1.3123,1.3009,1.2909,1.2646,1.2448,1.2466,1.2585,1.2772,1.2874,1.2992,1.3059,1.3074,1.2499,1.253,1.2438,1.2136,1.1958,1.1683,1.165,1.118,1.0283,0.9694,0.9324,0.8427,0.744,0.6818,0.6393,0.6492,0.6586,0.56,0.4613,0.3995,1.489,1.4957,1.5023,1.5045,1.5066,1.5127,1.5143,1.5155,1.5143,1.5144,1.5144,1.5164,1.5144,1.5178,1.5237,1.53,1.5296,1.5334,1.5358,1.5364,1.538,1.5406,1.5426,1.541,1.541,1.5408,1.5406,1.5406,1.5405,1.5379,1.5352,1.5362,1.5358,1.5095,1.4771,1.467,1.4409,1.3981,1.3567,1.2965,1.2175,1.1766,1.1312,1.157,1.1708,1.1728,1.1594,1.1882,1.2271,1.1977,1.2193,1.2315,1.2301,1.23,1.2079,1.1814,1.2003,1.2227,1.2258,1.2684,1.2776,1.2976,1.3323,1.3445,1.3445,1.3542,1.3889,1.4332,1.4591,1.4958,1.5379,1.5612,1.5546,1.5373,1.5455,1.539,1.5145,1.4976,1.4746,1.4473,1.4014,1.3653,1.3327,1.3194,1.3193,1.3176,1.3158,1.3192,1.3208,1.326,1.3277,1.326,1.3209,1.3278,1.3226,1.2799,1.2376,1.2276,1.2215,1.2045,1.1918,1.1803,1.1482,1.0879,1.0426,0.9862,0.9728,0.8973,0.8224,0.7383,0.7031,0.666,0.5997,0.5307,0.4685,1.5021,1.5061,1.5183,1.5237,1.5229,1.5269,1.5295,1.5288,1.5278,1.5271,1.5296,1.5293,1.529,1.5296,1.5302,1.5312,1.5336,1.5376,1.54,1.5443,1.5625,1.5644,1.5448,1.5563,1.5596,1.5371,1.5377,1.5364,1.5366,1.5336,1.5299,1.5303,1.5303,1.5274,1.5206,1.5117,1.5268,1.5047,1.4609,1.3811,1.2961,1.2136,1.1834,1.2446,1.2604,1.2596,1.2187,1.2801,1.281,1.2707,1.2751,1.2811,1.2817,1.3289,1.3298,1.2751,1.2604,1.2735,1.2839,1.2903,1.3107,1.3276,1.3464,1.353,1.3631,1.3853,1.4195,1.4794,1.51,1.5308,1.5782,1.6203,1.6203,1.6081,1.6116,1.6203,1.587,1.5555,1.5169,1.4742,1.4161,1.3684,1.3339,1.3,1.2929,1.2928,1.2908,1.3033,1.3067,1.3173,1.3208,1.3226,1.3226,1.326,1.3086,1.2671,1.2276,1.2003,1.2024,1.1961,1.1891,1.1811,1.1497,1.1205,1.0582,1.0104,1.0272,1.0148,0.8994,0.8017,0.7377,0.6665,0.5861,0.5614,0.5334,1.5075,1.5183,1.526,1.5289,1.5298,1.531,1.529,1.531,1.5299,1.5296,1.5304,1.5299,1.5321,1.5387,1.5426,1.5421,1.5486,1.5605,1.5703,1.582,1.6201,1.6155,1.5706,1.6186,1.6066,1.5802,1.5559,1.5313,1.5478,1.5462,1.529,1.5299,1.5287,1.5269,1.5201,1.5211,1.5199,1.5163,1.4942,1.4391,1.3557,1.2676,1.2383,1.2625,1.3024,1.3185,1.2834,1.3532,1.3965,1.3402,1.398,1.4276,1.4268,1.4272,1.4246,1.4053,1.3961,1.3915,1.3669,1.3581,1.3453,1.3582,1.3755,1.3906,1.4015,1.4271,1.4591,1.4763,1.5216,1.5635,1.6016,1.6486,1.6455,1.6469,1.6532,1.6314,1.6013,1.6157,1.5758,1.5197,1.466,1.3919,1.3358,1.297,1.2649,1.2646,1.2697,1.2892,1.3108,1.3368,1.3172,1.3138,1.3069,1.3086,1.3173,1.2724,1.2282,1.19,1.1863,1.1906,1.1833,1.1805,1.1768,1.1409,1.0774,1.0323,1.0348,1.0008,0.9292,0.8601,0.7858,0.6743,0.5585,0.5585,0.5758,1.5207,1.5265,1.5284,1.5287,1.5294,1.5329,1.536,1.5364,1.5356,1.5341,1.536,1.536,1.5614,1.595,1.6094,1.6384,1.671,1.6717,1.6766,1.6709,1.7043,1.7073,1.6953,1.7092,1.6965,1.6754,1.6697,1.6807,1.6455,1.569,1.5246,1.5313,1.5278,1.5193,1.5287,1.519,1.5127,1.4911,1.4532,1.4276,1.4084,1.3562,1.3209,1.3597,1.3989,1.3859,1.383,1.4071,1.4491,1.4066,1.4405,1.4368,1.4289,1.4227,1.4105,1.4056,1.4359,1.4234,1.3828,1.4083,1.4025,1.3978,1.4212,1.4537,1.4487,1.4571,1.495,1.5301,1.5511,1.5863,1.6368,1.6903,1.7033,1.7054,1.7004,1.6862,1.6602,1.652,1.6351,1.5748,1.5153,1.4485,1.3923,1.3741,1.3437,1.3208,1.3365,1.3616,1.3832,1.4048,1.365,1.3066,1.2942,1.2852,1.2997,1.2889,1.2473,1.2091,1.191,1.1923,1.1841,1.1805,1.1828,1.163,1.1066,1.0732,1.055,1.0059,0.9516,0.8887,0.8269,0.7266,0.6291,0.5742,0.5797,1.531,1.5342,1.5315,1.5309,1.5331,1.5374,1.5401,1.5403,1.5409,1.541,1.541,1.5429,1.5878,1.652,1.6644,1.6941,1.7757,1.7819,1.7804,1.7835,1.7978,1.7935,1.7795,1.7864,1.7951,1.7816,1.754,1.7541,1.7202,1.6625,1.5996,1.583,1.6092,1.5927,1.5734,1.5586,1.5403,1.4811,1.4324,1.4316,1.4485,1.4148,1.4175,1.4425,1.4635,1.4581,1.4446,1.4414,1.4396,1.4591,1.4522,1.4613,1.4788,1.4837,1.473,1.4709,1.4965,1.4882,1.4573,1.4571,1.459,1.4602,1.4691,1.5002,1.4977,1.4905,1.5039,1.5649,1.5826,1.6271,1.6832,1.7093,1.7273,1.7394,1.7524,1.7469,1.7287,1.6849,1.6539,1.6089,1.5583,1.5278,1.4837,1.4704,1.4364,1.3925,1.4004,1.431,1.4467,1.4566,1.4163,1.3475,1.2751,1.2633,1.2721,1.2736,1.242,1.246,1.2276,1.2284,1.2433,1.2194,1.2,1.1701,1.1561,1.1562,1.1624,1.069,0.9725,0.8761,0.7966,0.7831,0.7205,0.6513,0.5797,1.5392,1.5391,1.5392,1.5392,1.5394,1.5408,1.541,1.541,1.541,1.543,1.5527,1.5502,1.596,1.6575,1.692,1.7264,1.7847,1.7801,1.8017,1.8276,1.8508,1.8579,1.8504,1.8557,1.8577,1.8043,1.812,1.8062,1.7792,1.7848,1.7516,1.7503,1.7162,1.7374,1.6941,1.6089,1.5523,1.4972,1.4568,1.4441,1.4563,1.4408,1.4453,1.446,1.4499,1.4422,1.4257,1.4344,1.4609,1.5009,1.4993,1.5189,1.5535,1.5606,1.5488,1.5453,1.5642,1.5584,1.5454,1.5188,1.5064,1.5076,1.5146,1.5366,1.5476,1.5626,1.5764,1.5687,1.579,1.6057,1.6491,1.685,1.7109,1.7296,1.7361,1.7248,1.7035,1.6684,1.6397,1.6235,1.5936,1.5558,1.5458,1.5258,1.5,1.4566,1.4531,1.481,1.4751,1.4776,1.4557,1.3918,1.2785,1.2433,1.244,1.2727,1.3739,1.3588,1.3175,1.3286,1.3436,1.3038,1.2507,1.2841,1.2902,1.2799,1.2429,1.1334,1.007,0.8528,0.7813,0.8239,0.783,0.695,0.6129,1.5408,1.5408,1.5408,1.5408,1.5408,1.541,1.541,1.541,1.541,1.5701,1.6103,1.6178,1.6592,1.732,1.7998,1.8281,1.8668,1.9174,1.9226,1.9407,1.9612,1.9605,1.9514,1.9468,1.9627,1.9265,1.9246,1.9208,1.9177,1.8948,1.9039,1.8849,1.8132,1.7382,1.6837,1.6252,1.5538,1.5405,1.4929,1.4581,1.4522,1.4488,1.4488,1.4488,1.435,1.4572,1.4792,1.4748,1.514,1.5508,1.5592,1.5831,1.6058,1.6039,1.5965,1.5957,1.6211,1.6339,1.6234,1.5972,1.5798,1.5785,1.571,1.5598,1.5726,1.5536,1.5418,1.5389,1.5521,1.5695,1.5933,1.6347,1.6722,1.6942,1.7018,1.6952,1.6757,1.6438,1.6212,1.6062,1.5968,1.5751,1.5737,1.5752,1.5482,1.5199,1.5239,1.5242,1.5186,1.5146,1.4986,1.4779,1.376,1.3418,1.3464,1.4345,1.5364,1.4752,1.4053,1.4109,1.4139,1.374,1.3426,1.3855,1.4147,1.3961,1.3305,1.1944,1.0648,0.9466,0.9126,0.9276,0.8528,0.7484,0.679,1.541,1.5409,1.5409,1.541,1.541,1.541,1.5409,1.5408,1.5371,1.5826,1.6583,1.6606,1.7225,1.8164,1.8734,1.9259,1.9484,1.9926,2.0165,2.0215,2.0185,2.0292,2.0292,2.0227,2.0096,2.0241,2.0216,2.0011,1.9782,1.9905,1.9749,1.9336,1.8755,1.8111,1.7589,1.6458,1.5882,1.5907,1.5661,1.5221,1.5276,1.5276,1.5313,1.5307,1.5166,1.521,1.5439,1.5446,1.5662,1.6027,1.6218,1.6275,1.6347,1.637,1.6275,1.6424,1.6644,1.6961,1.6808,1.6588,1.6312,1.6015,1.589,1.571,1.5536,1.5255,1.5165,1.4951,1.5029,1.5181,1.5491,1.5991,1.6394,1.6659,1.6696,1.667,1.6485,1.6227,1.605,1.5883,1.5827,1.5814,1.5814,1.5814,1.5709,1.557,1.5716,1.5729,1.5712,1.5665,1.559,1.5368,1.4943,1.4847,1.492,1.5287,1.5574,1.5439,1.4857,1.4722,1.4618,1.4333,1.4318,1.4689,1.4894,1.4963,1.4298,1.3147,1.1906,1.0656,1.0654,1.0839,0.9359,0.838,0.784,1.5408,1.5415,1.5394,1.5404,1.5487,1.5421,1.5492,1.5664,1.5584,1.6013,1.6813,1.6788,1.7553,1.8736,1.911,1.9456,1.9834,2.0146,2.0277,2.0249,2.0241,2.0277,2.026,2.0235,2.0153,2.0022,2.0003,1.9962,1.9809,1.9821,1.9797,1.9707,1.9314,1.9207,1.9498,1.8727,1.7807,1.7004,1.6798,1.6615,1.6542,1.6487,1.6468,1.6338,1.6128,1.6054,1.613,1.5992,1.6224,1.6669,1.6762,1.6958,1.7371,1.7422,1.7434,1.7518,1.7563,1.7512,1.7254,1.6928,1.6454,1.5996,1.5827,1.5639,1.5299,1.5058,1.4859,1.461,1.4766,1.4968,1.5315,1.5724,1.6022,1.6301,1.634,1.634,1.6176,1.6065,1.5911,1.5841,1.5827,1.5814,1.5814,1.5814,1.5814,1.5868,1.612,1.6142,1.6049,1.5999,1.5856,1.5725,1.548,1.5464,1.5377,1.5602,1.5754,1.5709,1.5589,1.5334,1.5319,1.5259,1.5349,1.5514,1.5443,1.5315,1.4959,1.4439,1.3023,1.1799,1.2341,1.2191,1.0609,0.9352,0.8804,1.5374,1.5331,1.5331,1.5665,1.6154,1.6183,1.647,1.6927,1.7027,1.7423,1.8125,1.819,1.8352,1.9064,1.9564,1.9735,1.9561,2.0169,2.0269,2.0115,2.0106,2.0098,2.0097,2.0039,2.0009,1.9966,1.9915,1.9809,1.9669,1.9669,1.9559,1.9476,1.9462,1.9419,1.9156,1.8559,1.7721,1.7601,1.7238,1.689,1.6927,1.695,1.6894,1.6751,1.657,1.6587,1.6779,1.6583,1.6778,1.7236,1.7328,1.7502,1.7772,1.7789,1.7789,1.7704,1.7635,1.7199,1.6825,1.6459,1.6274,1.597,1.5785,1.558,1.5165,1.4859,1.4547,1.4227,1.4259,1.4438,1.4738,1.5166,1.5507,1.5898,1.5983,1.5983,1.5898,1.5885,1.5799,1.5799,1.5814,1.5814,1.5814,1.5814,1.5814,1.5814,1.5983,1.5983,1.5922,1.5894,1.5818,1.5818,1.5704,1.5766,1.5814,1.5814,1.5814,1.5769,1.5754,1.5679,1.5754,1.5814,1.5784,1.5664,1.5637,1.5551,1.489,1.4232,1.3572,1.3028,1.317,1.3,1.1745,1.0606,0.9891,1.5329,1.5294,1.5294,1.5955,1.6831,1.6689,1.7034,1.7665,1.7783,1.8248,1.8892,1.8987,1.9196,1.9542,1.9919,2.0111,1.9523,1.9898,2.018,1.9984,1.9934,1.9939,1.9892,1.9835,1.9778,1.9788,1.9751,1.9675,1.9495,1.9499,1.9442,1.935,1.9286,1.9316,1.9099,1.8698,1.8427,1.839,1.8115,1.7855,1.7793,1.7697,1.7584,1.7357,1.7188,1.7146,1.7285,1.7304,1.7287,1.7653,1.7789,1.7789,1.7789,1.7789,1.7743,1.7572,1.7158,1.6773,1.6448,1.6163,1.6011,1.5827,1.5814,1.558,1.5165,1.4876,1.4438,1.4084,1.3815,1.3967,1.4278,1.469,1.5195,1.5566,1.577,1.577,1.5827,1.5814,1.577,1.577,1.5741,1.577,1.5814,1.5814,1.5814,1.5814,1.5814,1.5814,1.5814,1.5814,1.5814,1.5814,1.5799,1.5814,1.5814,1.5814,1.5814,1.5814,1.5814,1.5814,1.5814,1.5814,1.5814,1.5814,1.5712,1.5389,1.4547,1.3828,1.3357,1.3132,1.3207,1.2943,1.2567,1.1909,1.1057,1.529,1.5283,1.5298,1.6207,1.7414,1.7106,1.7269,1.7844,1.7856,1.8357,1.9081,1.9123,1.9454,2.0104,2.0277,2.0211,2.0126,2.0059,1.9993,1.9943,1.9836,1.9797,1.9762,1.9738,1.9613,1.9479,1.9462,1.9495,1.932,1.935,1.9335,1.9305,1.9286,1.9274,1.9185,1.9099,1.9008,1.8901,1.8846,1.8608,1.8476,1.8642,1.8395,1.8143,1.8004,1.7882,1.7872,1.7791,1.7732,1.7789,1.7789,1.7789,1.7789,1.7789,1.7595,1.7224,1.6696,1.6421,1.6219,1.5983,1.5885,1.5814,1.5814,1.5522,1.5195,1.4907,1.4501,1.3986,1.3615,1.3715,1.3914,1.447,1.5029,1.5344,1.561,1.5712,1.5785,1.5785,1.5741,1.5697,1.5668,1.5683,1.5785,1.5814,1.5814,1.5814,1.5814,1.5814,1.5814,1.5814,1.5814,1.5814,1.5814,1.5814,1.5814,1.5814,1.5814,1.5814,1.5814,1.5814,1.5814,1.5814,1.5814,1.5785,1.5712,1.5255,1.4406,1.3782,1.3323,1.321,1.321,1.3094,1.2791,1.2861,1.2198,1.5269,1.5229,1.5229,1.6175,1.7722,1.8756,1.9372,1.9523,1.9561,1.9676,1.9715,1.9696,1.9829,2.0078,2.0078,2.0097,2.0069,2.0022,1.9877,1.9774,1.9676,1.9559,1.9504,1.9458,1.9368,1.9354,1.9343,1.9398,1.932,1.9286,1.9286,1.9305,1.9286,1.9227,1.915,1.9102,1.9102,1.9102,1.9084,1.893,1.8789,1.8752,1.8566,1.8351,1.8246,1.8103,1.7927,1.7878,1.7789,1.7789,1.7789,1.7789,1.7789,1.7766,1.7595,1.6977,1.6528,1.6203,1.5968,1.5856,1.5814,1.5814,1.5814,1.5551,1.5225,1.4968,1.4658,1.4117,1.3547,1.3514,1.3802,1.431,1.4783,1.5104,1.5418,1.5741,1.5814,1.5814,1.5741,1.558,1.5536,1.5639,1.5741,1.5814,1.5814,1.5814,1.5814,1.5814,1.5814,1.5814,1.5814,1.5814,1.5814,1.5814,1.5814,1.5814,1.5814,1.5814,1.5814,1.5814,1.5814,1.5814,1.5814,1.5712,1.5536,1.4998,1.431,1.3749,1.3245,1.321,1.321,1.3129,1.306,1.3129,1.3012,1.5234,1.5195,1.5195,1.6176,1.7823,1.9457,2.0188,2.0188,2.0188,2.0088,1.9933,1.9884,1.9933,1.9922,1.9933,1.9922,1.9922,1.9855,1.9757,1.9656,1.9527,1.9423,1.9335,1.9286,1.9301,1.9286,1.9286,1.932,1.9286,1.9286,1.9286,1.9286,1.9286,1.9212,1.9132,1.9051,1.8949,1.8931,1.8861,1.8734,1.8622,1.8526,1.8371,1.8125,1.8057,1.7966,1.7833,1.7789,1.7789,1.7789,1.7789,1.7789,1.7704,1.7566,1.7199,1.6607,1.6274,1.6039,1.5856,1.5842,1.5814,1.5814,1.5814,1.5668,1.5507,1.5344,1.4845,1.431,1.3702,1.3323,1.3702,1.4117,1.447,1.4814,1.5299,1.5785,1.5814,1.5814,1.5683,1.5477,1.5477,1.561,1.5668,1.5741,1.5814,1.5814,1.5814,1.5814,1.5814,1.5814,1.5814,1.5814,1.5814,1.5814,1.5814,1.5814,1.5814,1.5814,1.5814,1.5814,1.5814,1.5814,1.577,1.5551,1.5255,1.4721,1.4214,1.3648,1.321,1.321,1.321,1.3176,1.3129,1.3163,1.2943,1.5195,1.5234,1.5349,1.6349,1.7816,1.9341,2.0012,1.9974,1.9992,1.9912,1.979,1.9778,1.9797,1.9778,1.9797,1.9797,1.9762,1.9707,1.963,1.9569,1.9427,1.9338,1.932,1.9286,1.9286,1.9286,1.9286,1.9286,1.9286,1.9271,1.9271,1.9256,1.9243,1.9148,1.8981,1.886,1.8697,1.8508,1.8604,1.8604,1.8333,1.831,1.8328,1.7905,1.7833,1.7789,1.7789,1.7789,1.7789,1.7789,1.7755,1.7715,1.7446,1.7126,1.6644,1.6367,1.6067,1.5913,1.5842,1.5814,1.5814,1.5814,1.5814,1.577,1.5668,1.5639,1.5195,1.4406,1.3769,1.3335,1.3527,1.4084,1.4533,1.4845,1.5255,1.5654,1.5814,1.5756,1.5595,1.5448,1.5448,1.5536,1.5712,1.5814,1.5814,1.5814,1.5814,1.5814,1.5814,1.5814,1.5844,1.5844,1.5814,1.5814,1.5814,1.5814,1.5814,1.5814,1.5814,1.5814,1.5814,1.577,1.577,1.5344,1.4937,1.4627,1.4195,1.3628,1.3232,1.321,1.321,1.321,1.321,1.321,1.3094,1.5195,1.533,1.658,1.7375,1.7881,1.9351,1.9924,1.9836,1.9738,1.9682,1.9662,1.9662,1.9643,1.9643,1.9643,1.963,1.9636,1.9577,1.9495,1.9423,1.9305,1.9305,1.9286,1.9286,1.9286,1.9286,1.9286,1.9274,1.9259,1.9259,1.9196,1.9084,1.9051,1.8948,1.8625,1.8489,1.8333,1.8187,1.827,1.829,1.8018,1.7932,1.7883,1.7789,1.7789,1.7789,1.7789,1.7789,1.7789,1.7772,1.7519,1.7309,1.7035,1.6648,1.6421,1.6246,1.5983,1.5856,1.5814,1.5814,1.5814,1.5814,1.5814,1.5814,1.5814,1.5814,1.5403,1.4564,1.3868,1.3459,1.3425,1.4032,1.4564,1.4907,1.5255,1.5522,1.5814,1.5683,1.5522,1.5492,1.5448,1.5551,1.5741,1.5814,1.5814,1.5814,1.5814,1.5814,1.5814,1.5829,1.5918,1.5903,1.5829,1.5814,1.5814,1.5814,1.5814,1.5814,1.5814,1.5814,1.5814,1.577,1.5697,1.5059,1.4564,1.447,1.4227,1.3615,1.3323,1.3267,1.321,1.321,1.321,1.321,1.321,1.5426,1.5958,1.7512,1.8187,1.8384,1.937,1.9786,1.9707,1.9536,1.9452,1.9471,1.9471,1.9471,1.9471,1.9452,1.9467,1.9485,1.9452,1.9394,1.932,1.9286,1.9286,1.9286,1.9286,1.9286,1.9271,1.918,1.9132,1.9182,1.9016,1.8878,1.8843,1.8807,1.8678,1.833,1.8249,1.8103,1.8014,1.8035,1.7927,1.7816,1.7883,1.7861,1.7861,1.7789,1.7789,1.7789,1.7789,1.7681,1.7526,1.7245,1.6903,1.6686,1.6425,1.6246,1.608,1.5898,1.5814,1.5814,1.5814,1.5814,1.5814,1.5829,1.5829,1.5433,1.5374,1.5179,1.4374,1.3669,1.3232,1.3648,1.4181,1.4596,1.4968,1.5359,1.5712,1.5814,1.5741,1.5683,1.5683,1.5639,1.5668,1.5799,1.5814,1.5814,1.5814,1.5814,1.5889,1.5874,1.6054,1.6084,1.6099,1.6069,1.5889,1.5814,1.5814,1.5814,1.5814,1.5814,1.5814,1.5814,1.5799,1.561,1.5165,1.4814,1.4658,1.431,1.3769,1.3425,1.3301,1.3232,1.321,1.321,1.321,1.321,1.5683,1.6624,1.813,1.8783,1.8849,1.937,1.9596,1.9569,1.938,1.9286,1.932,1.932,1.9286,1.9286,1.9286,1.9286,1.9301,1.935,1.9305,1.9305,1.9286,1.9286,1.9286,1.9286,1.9274,1.9164,1.9016,1.9017,1.9035,1.8825,1.8679,1.8604,1.8566,1.8508,1.843,1.829,1.8078,1.8014,1.7949,1.7833,1.79,1.8014,1.7949,1.7856,1.7789,1.7789,1.7789,1.7726,1.7595,1.7368,1.7076,1.6654,1.6378,1.6169,1.6055,1.5898,1.5856,1.5814,1.5814,1.5814,1.5814,1.5814,1.5844,1.5713,1.5371,1.5179,1.4959,1.4501,1.3783,1.3497,1.3908,1.4409,1.4826,1.5129,1.5551,1.6039,1.6054,1.6024,1.6024,1.6053,1.6008,1.5979,1.6114,1.6113,1.6053,1.6008,1.5979,1.598,1.6084,1.6427,1.6636,1.659,1.659,1.6338,1.5934,1.5873,1.5888,1.5814,1.5814,1.5814,1.5873,1.6098,1.5995,1.5507,1.5195,1.5011,1.4578,1.4019,1.3702,1.3323,1.3267,1.321,1.321,1.321,1.321,1.5619,1.641,1.8087,1.8726,1.8696,1.9307,1.9596,1.9574,1.938,1.9286,1.9286,1.9286,1.9286,1.9286,1.9286,1.9286,1.9286,1.9286,1.9286,1.9286,1.9286,1.9286,1.9256,1.9206,1.918,1.9016,1.8861,1.8807,1.8789,1.866,1.8566,1.8547,1.833,1.8187,1.7971,1.79,1.7922,1.7883,1.7883,1.7789,1.7789,1.7856,1.7856,1.7811,1.7789,1.7789,1.7789,1.7789,1.7749,1.7542,1.7093,1.6495,1.6169,1.5958,1.59,1.5856,1.5814,1.5814,1.5814,1.5814,1.5814,1.6038,1.6084,1.6173,1.592,1.5806,1.5515,1.5114,1.4476,1.3899,1.4199,1.4937,1.5417,1.5636,1.5979,1.665,1.7026,1.6952,1.6907,1.6817,1.6712,1.6982,1.7371,1.7281,1.7101,1.7071,1.7041,1.6994,1.6542,1.6828,1.7136,1.7072,1.701,1.6547,1.6053,1.6023,1.6008,1.5903,1.5918,1.6113,1.6353,1.6608,1.6397,1.5712,1.5536,1.5445,1.4913,1.4374,1.3715,1.3301,1.3232,1.321,1.321,1.321,1.321]}]]